.

MPMG - Transparência

Contracheque - Verbas indenizatórias e outras remunerações temporárias - Tabela III (Resolução nº 200/2019) - Pós Resolução CNMP 200/2019

Período: 2020 - Dezembro

Ordem Matrícula Nome Cargo Lotação Verbas Indenizatórias *1 Outras Remunerações Temporárias *2 Data de Referência
Auxílio Alimentação Auxílio Creche Auxílio Saúde Auxílio Transporte Estagiário Indenizações Indenizações e Diligênias Adicionais de Periculosidade e Insalubridade Gratificações Outras Remunerações
1 498900 ABDON MARCIO BARBOSA DA SILVA OFICIAL DO MP ABRE CAMPO - COMARCA; ABRE CAMPO-PJ-01PJ 1.100,00 0,00 450,00 0,00 0,00 0,00 0,00 0,00 0,00 31/12/2020
2 293600 ABELARDO GUIMARAES CASTRO PROMOT.ENTRANC.ESPECIAL BELO HORIZONTE - COMARCA; BH-02PJ FAMILIA-GAB 035PJ 1.100,00 0,00 2.601,04 0,00 5.614,85 0,00 0,00 0,00 0,00 31/12/2020
3 99200 ADALBERTO DE PAULA CHRISTO LEITE PROMOT.ENTRANC.ESPECIAL SÃO JOÃO DEL REI - COMARCA; SAO JOAO DEL REI-PJ-02PJ 1.100,00 0,00 2.345,20 0,00 11.229,70 0,00 0,00 0,00 514,69 31/12/2020
4 177800 ADALBERTO MENEZES FARIA SAMORA OFICIAL DO MP BELO HORIZONTE - COMARCA; DIR ESTRUTURA E PROCESSOS ORGANIZACIONAIS 1.100,00 0,00 450,00 0,00 0,00 0,00 0,00 0,00 0,00 31/12/2020
5 306400 ADALBERTO MOREIRA GONCALVES ANALISTA DO MP BELO HORIZONTE - COMARCA; BH-24PJ JUIZO REG BARREIRO-SECRETARIA 1.100,00 0,00 450,00 0,00 0,00 0,00 0,00 0,00 0,00 31/12/2020
6 1150100 ADAO ABADE DE BARROS JUNIOR ESTAGIARIO OLIVEIRA; OLIVEIRA-PJ-01PJ 0,00 0,00 0,00 117,00 0,00 0,00 0,00 0,00 0,00 31/12/2020
7 100400 ADELAIDE CRISTINA DE CARVALHO MACHADO PROCURADOR DE JUSTICA BELO HORIZONTE - COMARCA; GABINETE DE PROCURADOR DE JUSTIÇA - SALA 708 1.100,00 0,00 980,72 0,00 5.910,37 0,00 0,00 0,00 0,00 31/12/2020
8 96500 ADELIA LAGE DE OLIVEIRA PROCURADOR DE JUSTICA BELO HORIZONTE - COMARCA; GABINETE DE PROCURADOR DE JUSTIÇA - SALA 403 1.100,00 0,00 1.279,20 0,00 11.820,74 0,00 0,00 0,00 541,78 31/12/2020
9 1121100 ADELIA NATALI CHURATA URBANO ESTAGIARIO BETIM; BETIM-PJ-04PJ 0,00 0,00 0,00 99,00 0,00 0,00 0,00 0,00 0,00 31/12/2020
10 49200 ADEMAR PEREIRA PROMOTOR 2A ENTRANCIA MACHADO - COMARCA; MACHADO-PJ-01PJ 1.100,00 0,00 2.984,80 0,00 10.668,22 0,00 0,00 0,00 488,96 31/12/2020
11 179300 ADENISE AUXILIADORA SOUZA SAD OFICIAL DO MP BARBACENA - COMARCA; BARBACENA-PJ-06PJ 1.100,00 0,00 450,00 0,00 0,00 0,00 0,00 0,00 0,00 31/12/2020
12 272200 ADILSON BATISTA ORNELAS OFICIAL DO MP LAVRAS - COMARCA; LAVRAS-PJ-SECRETARIA 1.100,00 0,00 450,00 0,00 0,00 0,00 0,00 0,00 0,00 31/12/2020
13 143000 ADILSON DE OLIVEIRA NASCIMENTO PROCURADOR DE JUSTICA BELO HORIZONTE - COMARCA; GABINETE DE PROCURADOR DE JUSTIÇA - SALA 614 1.100,00 0,00 3.326,96 0,00 5.910,37 0,00 0,00 0,00 0,00 31/12/2020
14 380100 ADILSON GONCALVES DE MELO JUNIOR ANALISTA DO MP ARAXÁ - COMARCA; ARAXA-PJ-05PJ 1.100,00 769,39 450,00 0,00 0,00 0,00 0,00 0,00 0,00 31/12/2020
15 148800 ADILSON JANUARIO OFICIAL DO MP BELO HORIZONTE - COMARCA; BH-22PJ PES COM DEF E IDOSOS-SECRETARIA 1.100,00 0,00 450,00 0,00 0,00 0,00 0,00 0,00 0,00 31/12/2020
16 322601 ADMILSON SILVEIRA ANALISTA DO MP SAO JOAO DO PARAISO COMARCA; SAO JOAO DO PARAISO-PJ-UNPJ 1.100,00 0,00 450,00 0,00 0,00 0,00 0,00 0,00 0,00 31/12/2020
17 1067600 ADNEIA CARVALHO NUNES ESTAGIARIO JANUARIA; JANUARIA-PJ-01PJ 0,00 0,00 0,00 153,00 0,00 0,00 0,00 0,00 0,00 31/12/2020
18 333700 ADRIANA ABRITTA TEIXEIRA OFICIAL DO MP BELO HORIZONTE - COMARCA; DIRET DE PESSOAL DO MINISTERIO PUBLICO - DPMP 1.100,00 0,00 450,00 0,00 0,00 0,00 0,00 0,00 0,00 31/12/2020
19 468500 ADRIANA APARECIDA FIRMINO ANALISTA DO MP CARATINGA - COMARCA; CARATINGA-PJ-04PJ 1.100,00 769,39 450,00 0,00 0,00 0,00 0,00 0,00 0,00 31/12/2020
20 326100 ADRIANA AUGUSTA AMARAL BELO OFICIAL DO MP BARBACENA - COMARCA; BARBACENA-PJ-08PJ 1.100,00 0,00 450,00 0,00 0,00 0,00 0,00 0,00 0,00 31/12/2020
21 363000 ADRIANA CARVALHO PEREIRA E SILVA COSTA PROMOTOR 2A ENTRANCIA ALÉM PARAÍBA - COMARCA; ALEM PARAIBA-PJ-02PJ 1.100,00 0,00 2.494,44 0,00 5.334,11 0,00 0,00 0,00 0,00 31/12/2020
22 605700 ADRIANA COSTA LIRA ASSESSOR/OFICIAL BELO HORIZONTE - COMARCA; COORD ESTADUAL DE DEFESA DA EDUCACAO 1.100,00 0,00 450,00 0,00 0,00 0,00 0,00 0,00 -460,39 31/12/2020
23 541100 ADRIANA CRISTINA DE OLIVEIRA OFICIAL DO MP GUAPÉ - COMARCA; GUAPE-PJ-UNPJ 1.100,00 769,39 450,00 0,00 0,00 0,00 0,00 0,00 0,00 31/12/2020
24 254800 ADRIANA DAS GRACAS FERNANDES ANALISTA DO MP UBERABA - COMARCA; UBERABA-PJ-07PJ 1.100,00 0,00 450,00 0,00 0,00 0,00 0,00 0,00 0,00 31/12/2020
25 217400 ADRIANA DE CARVALHO CATAO BRAGA ASSESSOR BELO HORIZONTE - COMARCA; DIV FISCAL ADM CONT TERCEIRIZACAO 1.100,00 0,00 450,00 0,00 0,00 0,00 0,00 0,00 0,00 31/12/2020
26 1190100 ADRIANA DE VASCONCELOS QUEIROZ ESTAGIARIO IBIRITE; IBIRITE-PJ-06PJ 0,00 0,00 0,00 144,00 200,83 0,00 0,00 0,00 562,33 31/12/2020
27 434600 ADRIANA FERREIRA DA SILVA ANALISTA DO MP BELO HORIZONTE - COMARCA; BH-14PJ DEFESA CONSUMIDOR-GAB 112PJ 1.100,00 0,00 450,00 0,00 0,00 0,00 0,00 0,00 0,00 31/12/2020
28 499800 ADRIANA FERREIRA TIAGO OFICIAL DO MP SALINAS - COMARCA; SALINAS-PJ-02PJ 1.100,00 0,00 450,00 0,00 0,00 0,00 0,00 0,00 0,00 31/12/2020
29 543400 ADRIANA GUIMARAES NUNES DE PAULA ANALISTA DO MP PATROCÍNIO - COMARCA; PATROCINIO-PJ-01PJ 1.100,00 0,00 450,00 0,00 0,00 0,00 0,00 0,00 0,00 31/12/2020
30 471500 ADRIANA HORTA DE CARVALHO RODRIGUES DE SOUSA ANALISTA DO MP BELO HORIZONTE - COMARCA; GRUPO ESP PROM JUST DEF PROB ADM PAT PUB 1.100,00 0,00 450,00 0,00 0,00 0,00 0,00 0,00 0,00 31/12/2020
31 314300 ADRIANA JULIA DE SOUZA PROMOT.ENTRANC.ESPECIAL BELO HORIZONTE - COMARCA; BH-26 CRIME CONT CRIAN ADOL-GAB 169PJ 1.100,00 0,00 2.558,40 0,00 0,00 0,00 0,00 0,00 0,00 31/12/2020
32 1148500 ADRIANA LACERDA SOARES ESTAGIARIO RAUL SOARES; RAUL SOARES-PJ-UNPJ 0,00 0,00 0,00 54,00 0,00 0,00 0,00 0,00 0,00 31/12/2020
33 1042600 ADRIANA LELLIS DOS SANTOS RESENDE ESTAGIARIO BELO HORIZONTE; CAO-FUNDACOES 0,00 0,00 0,00 54,00 0,00 0,00 0,00 0,00 0,00 31/12/2020
34 86400 ADRIANA MOREIRA CALDEIRA BRANT OFICIAL DO MP BELO HORIZONTE - COMARCA; BH-21PJ TUTELA FUNDACOES-SECRETARIA 1.100,00 0,00 450,00 0,00 0,00 0,00 0,00 0,00 0,00 31/12/2020
35 480700 ADRIANA MOREIRA DE AVELLAR CEZILIO OFICIAL DO MP BELO HORIZONTE - COMARCA; BH-18PJ VIOLENCIA DOMESTICA-SECRETARIA 1.100,00 0,00 450,00 0,00 0,00 0,00 0,00 0,00 0,00 31/12/2020
36 326000 ADRIANA PEREIRA CARNEIRO RESENDE OFICIAL DO MP BELO HORIZONTE - COMARCA; BH-25PJ DEFESA DA EDUCACAO-SECRETARIA 1.100,00 0,00 450,00 0,00 0,00 0,00 0,00 0,00 0,00 31/12/2020
37 502200 ADRIANA PETRUCCI DAVINA OFICIAL DO MP PATROCÍNIO - COMARCA; PATROCINIO-PJ-01PJ 1.100,00 769,39 450,00 0,00 0,00 0,00 0,00 0,00 0,00 31/12/2020
38 685200 ADRIANA PRATES DOS SANTOS PROMOTOR SUBSTITUTO TEÓFILO OTONI - COMARCA; TEOFILO OTONI-PJ-05PJ 1.100,00 0,00 596,96 0,00 0,00 0,00 0,00 0,00 0,00 31/12/2020
39 201900 ADRIANA REIS PIMENTA OFICIAL DO MP TEÓFILO OTONI - COMARCA; TEOFILO OTONI-PJ-03PJ 1.100,00 0,00 450,00 0,00 0,00 0,00 0,00 0,00 0,00 31/12/2020
40 278700 ADRIANA RODRIGUES PINTO COELHO AMARAL ANALISTA DO MP BELO HORIZONTE - COMARCA; CGMP-ASSESSORIA JURIDICA 1.100,00 0,00 450,00 0,00 0,00 0,00 0,00 0,00 0,00 31/12/2020
41 468000 ADRIANA SANTOS DE SANTANA MOREIRA ANALISTA DO MP ARAÇUAÍ - COMARCA; ARACUAI-PJ-02PJ 1.100,00 0,00 450,00 0,00 0,00 0,00 0,00 0,00 0,00 31/12/2020
42 290900 ADRIANA TORRES BECK PROMOT.ENTRANC.ESPECIAL BELO HORIZONTE - COMARCA; BH-23PJ DEF DIR CRIAN ADOL 1.100,00 0,00 3.070,08 0,00 0,00 0,00 0,00 0,00 0,00 31/12/2020
43 194700 ADRIANA TSUKIDE OFICIAL DO MP UBERABA - COMARCA; COORD REG BACIAS PARANAIBA BAIXO RIO GRANDE 1.100,00 0,00 450,00 0,00 5.797,94 0,00 0,00 0,00 531,48 31/12/2020
44 1202300 ADRIANA TULIO DUARTE DOS SANTOS ESTAGIARIO IPATINGA; IPATINGA-PJ-05PJ 0,00 0,00 0,00 117,00 0,00 0,00 0,00 0,00 0,00 31/12/2020
45 291500 ADRIANA VITAL DO VALLE PROMOT.ENTRANC.ESPECIAL SÃO JOÃO DEL REI - COMARCA; SAO JOAO DEL REI-PJ-06PJ 1.100,00 0,00 2.217,28 0,00 5.614,85 0,00 0,00 0,00 0,00 31/12/2020
46 1088700 ADRIANE SILVA ESTAGIARIO BETIM; BETIM-PJ-05PJ 0,00 0,00 0,00 18,00 241,33 0,00 0,00 0,00 0,00 31/12/2020
47 212900 ADRIANO ARANTES BOZOLA PROMOT.ENTRANC.ESPECIAL UBERLÂNDIA - COMARCA; UBERLANDIA-PJ-21PJ 1.100,00 0,00 2.174,64 0,00 5.614,85 0,00 0,00 0,00 0,00 31/12/2020
48 174200 ADRIANO BOTELHO ESTRELA PROMOT.ENTRANC.ESPECIAL BELO HORIZONTE - COMARCA; BH-12PJ JUIZO CRIMINAL-GAB 095PJ 1.100,00 0,00 1.918,80 0,00 8.983,76 0,00 0,00 0,00 308,82 31/12/2020
49 465500 ADRIANO CASSIANO MATOS ANALISTA DO MP ARAXÁ - COMARCA; ARAXA-PJ-02PJ 1.100,00 0,00 450,00 0,00 0,00 0,00 0,00 0,00 0,00 31/12/2020
50 500500 ADRIANO DE ALMEIDA SILVA OFICIAL DO MP UBERABA - COMARCA; UBERABA-PJ-12PJ 1.100,00 769,39 450,00 0,00 0,00 0,00 0,00 0,00 0,00 31/12/2020
51 187200 ADRIANO DE FREITAS MARON OFICIAL DO MP PONTE NOVA - COMARCA; PONTE NOVA-PJ-03PJ 1.100,00 0,00 450,00 0,00 0,00 0,00 0,00 0,00 0,00 31/12/2020
52 344000 ADRIANO DUTRA GOMES DE FARIA PROMOT.ENTRANC.ESPECIAL VESPASIANO - COMARCA; VESPASIANO-PJ-04PJ 1.100,00 0,00 2.345,20 0,00 5.614,85 0,00 0,00 0,00 0,00 31/12/2020
53 477900 ADRIANO FERREIRA DE ALMEIDA OFICIAL DO MP TAIOBEIRAS - COMARCA; TAIOBEIRAS-PJ-UNPJ 1.100,00 0,00 450,00 0,00 0,00 0,00 0,00 0,00 0,00 31/12/2020
54 658300 ADRIANO NEPOMUCENO DE CARVALHO TENENTE CORONEL BELO HORIZONTE - COMARCA; GAECO - SECRETARIA 1.100,00 0,00 0,00 0,00 0,00 0,00 0,00 0,00 3.699,95 31/12/2020
55 269101 ADRIANO PEREIRA SILVA ANALISTA DO MP UBERABA - COMARCA; UBERABA-PJ-02PJ 1.100,00 769,39 450,00 0,00 0,00 0,00 0,00 0,00 0,00 31/12/2020
56 414200 ADRIANO RODRIGUES FERNANDES ANALISTA DO MP CARANDAÍ - COMARCA; CARANDAI-PJ-UNPJ 1.100,00 0,00 450,00 0,00 0,00 0,00 0,00 0,00 0,00 31/12/2020
57 536700 ADRIELLE COSTA MARIA MOURAO FIGUEIREDO OFICIAL DO MP SERRO - COMARCA; SERRO-PJ-SECRETARIA 1.100,00 769,39 450,00 0,00 0,00 0,00 0,00 0,00 0,00 31/12/2020
58 514300 ADRIENE DAMASCENO BRAGA ANALISTA DO MP ALFENAS - COMARCA; ALFENAS-PJ-03PJ 1.100,00 769,39 450,00 0,00 0,00 0,00 0,00 0,00 0,00 31/12/2020
59 254600 ADRIENE DOMINGUES COSTA ANALISTA DO MP BELO HORIZONTE - COMARCA; SUPERINTENDENCIA GESTÃO DE PESSOAS
60 252001 ADRIENE GOMES BARRETO ANALISTA DO MP BELO HORIZONTE - COMARCA; BH-19PJ SAUDE-SECRETARIA 047PJ 1.100,00 0,00 450,00 0,00 0,00 0,00 0,00 0,00 0,00 31/12/2020
61 84100 ADROALDO JUNQUEIRA AYRES NETO PROMOT.ENTRANC.ESPECIAL UBERABA - COMARCA; UBERABA-PJ-12PJ 1.100,00 0,00 3.112,72 0,00 5.614,85 0,00 0,00 0,00 0,00 31/12/2020
62 1167400 ADSON GUSTAVO DE OLIVEIRA ESTAGIARIO BELO HORIZONTE; PROC. JUSTICA CRIMINAL 0,00 0,00 0,00 162,00 0,00 0,00 0,00 0,00 0,00 31/12/2020
63 162700 AECIO RABELO PROMOTOR 2A ENTRANCIA LAVRAS - COMARCA; LAVRAS-PJ-04PJ 1.100,00 0,00 2.387,84 0,00 8.534,58 0,00 0,00 0,00 293,38 31/12/2020
64 645000 AFONSO CELSO GUIMARAES JUNIOR OFICIAL DO MP PIRAPORA - COMARCA; PIRAPORA-PJ-01PJ 1.100,00 0,00 450,00 0,00 0,00 0,00 0,00 0,00 0,00 31/12/2020
65 97600 AFONSO HENRIQUE DE MIRANDA TEIXEIRA PROCURADOR DE JUSTICA BELO HORIZONTE - COMARCA; CAO-CONFLITOS AGRARIOS 1.100,00 0,00 3.261,96 0,00 11.820,74 0,00 0,00 0,00 541,78 31/12/2020
66 1207200 AFRA YASMIM DA SILVA ESTAGIARIO BELO HORIZONTE; DIRET DE FORMACAO, APERFEIC. E POS-GRADUACAO
67 610000 AGENOR ANDRADE LEAO PROMOT.ENTRANC.ESPECIAL TEÓFILO OTONI - COMARCA; COORD REG PJ DEF EDU DIR CRIAN ADOL JEQUI MUC 1.100,00 0,00 1.685,60 0,00 17.967,52 0,00 0,00 0,00 514,69 31/12/2020
68 302500 AGENOR JOSE DA SILVA JUNIOR ANALISTA DO MP JUIZ DE FORA - COMARCA; JUIZ DE FORA-PJ-14PJ 1.100,00 0,00 450,00 0,00 0,00 0,00 0,00 0,00 0,00 31/12/2020
69 344100 AGNALDO LUCAS COTRIM PROMOT.ENTRANC.ESPECIAL POUSO ALEGRE - COMARCA; POUSO ALEGRE-PJ-02PJ 1.100,00 0,00 2.259,92 0,00 5.614,85 0,00 0,00 0,00 0,00 31/12/2020
70 67400 AIDA FERNANDES LISBOA MARINHO PROCURADOR DE JUSTICA BELO HORIZONTE - COMARCA; GABINETE DE PROCURADOR DE JUSTIÇA - SALA 604 1.100,00 0,00 2.856,88 0,00 5.910,37 0,00 0,00 0,00 0,00 31/12/2020
71 1160200 AIESKA TALITA QUEIROZ MOTA ESTAGIARIO PIRAPORA; PIRAPORA-PJ-01PJ 0,00 0,00 0,00 162,00 0,00 0,00 0,00 0,00 0,00 31/12/2020
72 1194700 AILA QUINTAO MAYR ESTAGIARIO BELO HORIZONTE; BH-26 CRIME CONT CRIAN ADOL 0,00 0,00 0,00 162,00 0,00 0,00 0,00 0,00 0,00 31/12/2020
73 357500 AILSON WAGNER DE ALENCAR SILVA OFICIAL DO MP BELO HORIZONTE - COMARCA; BH-12PJ JUIZO CRIMINAL-SECRETARIA 1.100,00 0,00 450,00 0,00 0,00 0,00 0,00 0,00 0,00 31/12/2020
74 366400 AILTON ALEXSSANDRO ALVES OFICIAL DO MP PARÁ DE MINAS - COMARCA; PARA DE MINAS-PJ-05PJ 1.100,00 0,00 450,00 0,00 0,00 0,00 0,00 0,00 0,00 31/12/2020
75 318900 AILTON DE CASTRO RIBEIRO JUNIOR OFICIAL DO MP ITAJUBA - COMARCA; ITAJUBA-PJ-01PJ 1.100,00 769,39 450,00 0,00 0,00 0,00 0,00 0,00 0,00 31/12/2020
76 533100 AIMARA DE BRITTO DIAS LEITE PROMOTOR SUBSTITUTO SANTA LUZIA - COMARCA; SANTA LUZIA-PJ-SECRETARIA 1.100,00 0,00 1.492,40 0,00 5.067,40 0,00 0,00 0,00 0,00 31/12/2020
77 439100 AIRTON BATISTA COSTA NETO NEPOMUCENO PROMOTOR 2A ENTRANCIA ITUIUTABA - COMARCA; ITUIUTABA-PJ-04PJ 1.100,00 0,00 2.975,40 0,00 5.334,11 0,00 0,00 0,00 0,00 31/12/2020
78 341600 ALAM BAENA BERTOLLA DOS SANTOS PROMOTOR 2A ENTRANCIA ARAGUARI - COMARCA; ARAGUARI-PJ-05PJ 1.100,00 0,00 2.558,40 0,00 5.334,11 0,00 0,00 0,00 0,00 31/12/2020
79 175700 ALAN CARRIJO RAMOS PROMOTOR 1A ENTRANCIA PRATÁPOLIS - COMARCA; PRATAPOLIS-PJ-UNPJ 1.100,00 0,00 3.040,44 0,00 5.067,40 0,00 0,00 0,00 0,00 31/12/2020
80 1099500 ALAN GOMES BARBOSA JUNIOR ESTAGIARIO JOAO PINHEIRO; JOAO PINHEIRO-PJ-02PJ 0,00 0,00 0,00 153,00 0,00 0,00 0,00 0,00 0,00 31/12/2020
81 464400 ALAN MONTEIRO GASPAR ANALISTA DO MP SETE LAGOAS - COMARCA; SETE LAGOAS-PJ-08PJ 1.100,00 0,00 450,00 0,00 0,00 0,00 0,00 0,00 0,00 31/12/2020
82 1195800 ALAN PATRICK BORGES OLIVEIRA ESTAGIARIO UBERLANDIA; UBERLANDIA-PJ-02PJ 0,00 0,00 0,00 162,00 0,00 0,00 0,00 0,00 0,00 31/12/2020
83 670200 ALANA ARAUJO AGUIAR ASSESSOR BELO HORIZONTE - COMARCA; ASSESS EXECUTIVA DO CONSELHO SUPERIOR DO MP 1.100,00 0,00 450,00 0,00 0,00 0,00 0,00 0,00 0,00 31/12/2020
84 492000 ALANA DE CASTRO FREITAS OFICIAL DO MP ITUMIRIM - COMARCA; ITUMIRIM-PJ-SECRETARIA 1.100,00 0,00 450,00 0,00 0,00 0,00 0,00 0,00 0,00 31/12/2020
85 1200300 ALANA KATHERINE FERREIRA DA SILVA ESTAGIARIO GOVERNADOR VALADARES; COORD REG DO MA DA BACIA DO RIO DOCE 0,00 0,00 0,00 162,00 0,00 0,00 0,00 0,00 0,00 31/12/2020
86 306700 ALANA MARCIA DE OLIVEIRA OFICIAL DO MP BELO HORIZONTE - COMARCA; DIRETORIA DE ADMINISTRACAO FINANCEIRA 1.100,00 0,00 450,00 0,00 0,00 0,00 0,00 0,00 0,00 31/12/2020
87 324500 ALANMAR COUTINHO COSTA OFICIAL DO MP LEOPOLDINA - COMARCA; LEOPOLDINA-PJ-02PJ 1.100,00 0,00 450,00 0,00 0,00 0,00 0,00 0,00 0,00 31/12/2020
88 1124700 ALANNA CARDOSO LINHARES RIBEIRO AMORIM ESTAGIARIO 0,00 0,00 0,00 0,00 60,33 0,00 0,00 0,00 0,00 31/12/2020
89 170800 ALBERTO BOGLIOLO SIRIHAL PROMOT.ENTRANC.ESPECIAL BELO HORIZONTE - COMARCA; BH-05PJ JUIZO SUCESSÕES-GAB CARGO 045PJ 1.100,00 0,00 2.278,04 0,00 5.614,85 0,00 0,00 0,00 0,00 31/12/2020
90 1160400 ALBERTO DOS ANJOS GODEFROID ESTAGIARIO OURO PRETO; OURO PRETO-PJ-01PJ
91 407300 ALBERTO LUIZ SOARES DE OLIVEIRA ANALISTA DO MP BELO HORIZONTE - COMARCA; DIRETORIA DE PROJETOS DE EDIFICACOES 1.100,00 0,00 450,00 0,00 0,00 0,00 0,00 0,00 0,00 31/12/2020
92 118200 ALBERTO PEREIRA DA COSTA OFICIAL DO MP DORES DO INDAIÁ - COMARCA; DORES DO INDAIA-PJ-UNPJ 1.100,00 0,00 450,00 0,00 0,00 0,00 0,00 0,00 0,00 31/12/2020
93 1084700 ALBERTO RISI NETO ESTAGIARIO RIBEIRAO DAS NEVES; RIBEIRAO DAS NEVES-PJ-12PJ
94 72000 ALBINO VITORIO BERNARDO PROCURADOR DE JUSTICA BELO HORIZONTE - COMARCA; GABINETE DE PROCURADOR DE JUSTIÇA - SALA 710 1.100,00 0,00 2.153,32 0,00 11.820,74 0,00 0,00 0,00 541,78 31/12/2020
95 660700 ALCIDEZIO JOSE DE OLIVEIRA BISPO JUNIOR PROMOT.ENTRANC.ESPECIAL CARATINGA - COMARCA; CARATINGA-PJ-05PJ 1.100,00 0,00 1.876,16 0,00 21.336,43 0,00 0,00 0,00 514,69 31/12/2020
96 282400 ALCILENE MARISE DE ARAUJO ANALISTA DO MP BELO HORIZONTE - COMARCA; BH-23PJ INF-FISC MED SOC FEC 1.100,00 0,00 450,00 0,00 0,00 0,00 0,00 0,00 0,00 31/12/2020
97 112600 ALCIONE DA MOTA JARDIM OFICIAL DO MP BELO HORIZONTE - COMARCA; CAO-CRIANCAS E ADOLESCENTES-SECRETARIA 1.100,00 0,00 450,00 0,00 0,00 0,00 0,00 0,00 0,00 31/12/2020
98 396400 ALCIONE DE FREITAS E SILVA ANALISTA DO MP BELO HORIZONTE - COMARCA; ASSESS JUR DO CONS SUPERIOR DO MINISTERIO PUB 1.100,00 0,00 450,00 0,00 0,00 0,00 0,00 0,00 0,00 31/12/2020
99 657400 ALCIONE MARIA FERREIRA ASSESSOR PROCURADOR JUSTICA BELO HORIZONTE - COMARCA; PROC JUST RECURSOS ESP E EXTRAORD CRIMINAIS 1.100,00 0,00 450,00 0,00 23.325,10 0,00 0,00 0,00 2.352,13 31/12/2020
100 161600 ALCIONE NERY SOUZA ASSESSOR BELO HORIZONTE - COMARCA; BH-18PJ DIREITOS HUMANOS-SECRETARIA 1.100,00 0,00 450,00 0,00 0,00 0,00 0,00 0,00 0,00 31/12/2020
101 92000 ALCIR ARANTES PROMOT.ENTRANC.ESPECIAL UBERABA - COMARCA; UBERABA-PJ-03PJ 1.100,00 0,00 2.558,40 0,00 11.229,70 0,00 0,00 0,00 514,69 31/12/2020
102 376000 ALDA GOMES LANA OFICIAL DO MP BELO HORIZONTE - COMARCA; BH-18PJ VIOLENCIA DOMESTICA-SECRETARIA 1.100,00 0,00 450,00 0,00 0,00 0,00 0,00 0,00 0,00 31/12/2020
103 148000 ALDA MARTINS SIMOES OFICIAL DO MP BELO HORIZONTE - COMARCA; BH-23PJ CIVEL- FISC ENT AB POL 1.100,00 0,00 450,00 0,00 0,00 0,00 0,00 0,00 0,00 31/12/2020
104 89200 ALDECIR RESENDE BOLLESI DE PLA E SANT'ANNA PROMOT.ENTRANC.ESPECIAL CONTAGEM - COMARCA; CONTAGEM-PJ-08PJ 1.100,00 0,00 2.153,32 0,00 0,00 0,00 0,00 0,00 0,00 31/12/2020
105 457700 ALDERICO DE CARVALHO JUNIOR PROMOTOR 2A ENTRANCIA NOVA SERRANA - COMARCA; NOVA SERRANA-PJ-03PJ 1.100,00 0,00 2.409,16 0,00 5.334,11 0,00 0,00 0,00 0,00 31/12/2020
106 318400 ALDO CREPALDI JUNIOR OFICIAL DO MP BELO HORIZONTE - COMARCA; DIVISAO DE MATERIAIS 1.100,00 0,00 450,00 0,00 0,00 0,00 0,00 0,00 0,00 31/12/2020
107 604500 ALENIZE APARECIDA RODRIGUES HENRIQUE OFICIAL DO MP RIO NOVO - COMARCA; RIO NOVO-PJ-UNPJ 1.100,00 0,00 450,00 0,00 0,00 0,00 0,00 0,00 0,00 31/12/2020
108 1057900 ALESSA ARAUJO FONSECA ESTAGIARIO BOTELHOS; BOTELHOS-PJ-UNPJ 0,00 0,00 0,00 81,00 0,00 0,00 0,00 0,00 0,00 31/12/2020
109 197900 ALESSA DE SOUSA E SILVA OFICIAL DO MP OLIVEIRA - COMARCA; OLIVEIRA-PJ-02PJ 1.100,00 0,00 450,00 0,00 0,00 120,00 0,00 0,00 0,00 31/12/2020
110 428500 ALESSANDRA ALVES DINIZ OFICIAL DO MP BELO HORIZONTE - COMARCA; CENTRAL DE APOIO TECNICO-SECRETARIA 1.100,00 0,00 450,00 0,00 0,00 0,00 0,00 0,00 0,00 31/12/2020
111 286801 ALESSANDRA BOTELHO JUNQUEIRA DE MENEZES ANALISTA DO MP PASSOS - COMARCA; PASSOS-PJ-05PJ 1.100,00 769,39 450,00 0,00 0,00 0,00 0,00 0,00 0,00 31/12/2020
112 1069900 ALESSANDRA CAROLINE PELEGRINO ESTAGIARIO BRASOPOLIS; BRASOPOLIS-PJ-UNPJ 0,00 0,00 0,00 135,00 0,00 0,00 0,00 0,00 0,00 31/12/2020
113 307000 ALESSANDRA CRISTINA SANTOS MENDES ANALISTA DO MP BELO HORIZONTE - COMARCA; BH-18PJ VIOLENCIA DOMESTICA-SECRETARIA 1.100,00 0,00 450,00 0,00 0,00 0,00 0,00 0,00 0,00 31/12/2020
114 989400 ALESSANDRA DE CARVALHO PAULA ESTAGIARIO POCOS DE CALDAS; POCOS DE CALDAS-PJ-07PJ 0,00 0,00 0,00 144,00 0,00 0,00 0,00 0,00 0,00 31/12/2020
115 264400 ALESSANDRA DE SOUZA SANTOS ANALISTA DO MP BELO HORIZONTE - COMARCA; OUVIDORIA DO MPMG 1.100,00 0,00 450,00 0,00 0,00 0,00 0,00 0,00 0,00 31/12/2020
116 441500 ALESSANDRA DRUMMOND DE FIGUEIREDO ROSSI ANALISTA DO MP BELO HORIZONTE - COMARCA; DIRETORIA DE PROJETOS DE EDIFICACOES 1.100,00 0,00 450,00 0,00 0,00 0,00 0,00 0,00 0,00 31/12/2020
117 524000 ALESSANDRA LUCIOLI DE BARROS GUERRA ANALISTA DO MP BELO HORIZONTE - COMARCA; BH-19PJ SAUDE--SECRETARIA 1.100,00 0,00 450,00 0,00 0,00 0,00 0,00 0,00 0,00 31/12/2020
118 479900 ALESSANDRA MARA ANDRADE DE FARIA OFICIAL DO MP UBERABA - COMARCA; UBERABA-PJ-09PJ 1.100,00 0,00 450,00 0,00 0,00 0,00 0,00 0,00 0,00 31/12/2020
119 226700 ALESSANDRA MARA VASCONCELOS REZENDE OFICIAL DO MP CONSELHEIRO LAFAIETE - COMARCA; CONSELHEIRO LAFAIETE-PJ-07PJ 1.100,00 0,00 450,00 0,00 0,00 0,00 0,00 0,00 0,00 31/12/2020
120 112100 ALESSANDRA MARCIA FERREIRA OFICIAL DO MP BELO HORIZONTE - COMARCA; BELO HORIZONTE- SECRETARIA DAS PROMOTORIAS 1.100,00 0,00 450,00 0,00 0,00 0,00 0,00 0,00 0,00 31/12/2020
121 196500 ALESSANDRA MARIA RIBEIRO LUCIANO OFICIAL DO MP RIO PARANAÍBA - COMARCA; RIO PARANAIBA-PJ-UNPJ 1.100,00 0,00 450,00 0,00 0,00 0,00 0,00 0,00 0,00 31/12/2020
122 91400 ALESSANDRA MENDES VASCONCELOS DE SOUZA OFICIAL DO MP BELO HORIZONTE - COMARCA; BH-23PJ INF-FISC MED SOC AB 1.100,00 0,00 450,00 0,00 0,00 0,00 0,00 0,00 0,00 31/12/2020
123 290500 ALESSANDRA PINTO CASSIANO PROMOTOR 2A ENTRANCIA BOA ESPERANÇA - COMARCA; BOA ESPERANCA-PJ-02PJ 1.100,00 0,00 1.279,20 0,00 5.334,11 0,00 0,00 0,00 0,00 31/12/2020
124 651700 ALESSANDRA PROFIRIO SOUZA OFICIAL DO MP NOVA ERA - COMARCA; NOVA ERA-PJ-UNPJ 1.100,00 0,00 450,00 0,00 0,00 0,00 0,00 0,00 0,00 31/12/2020
125 384900 ALESSANDRA RODRIGUES ANALISTA DO MP VISCONDE DO RIO BRANCO - COMARCA; VISCONDE DO RIO BRANCO-PJ-03PJ 1.100,00 1.538,78 450,00 0,00 0,00 0,00 0,00 0,00 0,00 31/12/2020
126 390000 ALESSANDRA SPADANO MASSARA VASCONCELOS OFICIAL DO MP BETIM - COMARCA; BETIM-PJ-10PJ 1.100,00 0,00 450,00 0,00 0,00 0,00 0,00 0,00 0,00 31/12/2020
127 426500 ALESSANDRO CAMPOS DE PAIVA ANALISTA DO MP BELO HORIZONTE - COMARCA; DIR CRIACAO E MIDIAS 1.100,00 0,00 450,00 0,00 0,00 0,00 0,00 0,00 0,00 31/12/2020
128 623400 ALESSANDRO DE OLIVEIRA REZENDE ANALISTA DO MP BELO HORIZONTE - COMARCA; DIRET DE INFORMACAO E CONHECIMENTO-DINC/CEAF 1.100,00 0,00 450,00 0,00 0,00 0,00 0,00 0,00 0,00 31/12/2020
129 174100 ALESSANDRO GARCIA SILVA PROMOT.ENTRANC.ESPECIAL DIVINÓPOLIS - COMARCA; DIVINOPOLIS-PJ-12PJ 1.100,00 0,00 2.387,84 0,00 5.614,85 0,00 0,00 0,00 0,00 31/12/2020
130 308201 ALESSANDRO RAMOS MACHADO PROMOTOR 2A ENTRANCIA ALFENAS - COMARCA; ALFENAS-PJ-04PJ 1.100,00 0,00 2.558,40 0,00 5.334,11 0,00 0,00 0,00 0,00 31/12/2020
131 665700 ALESSANDRO ROGERIO DIAS DE OLIVEIRA PROMOTOR 2A ENTRANCIA JANUÁRIA - COMARCA; JANUARIA-PJ-02PJ 1.100,00 0,00 1.300,52 0,00 0,00 0,00 0,00 0,00 0,00 31/12/2020
132 420600 ALESSANDRO SILVA OFICIAL DO MP VISCONDE DO RIO BRANCO - COMARCA; VISCONDE DO RIO BRANCO-PJ-02PJ 1.100,00 0,00 450,00 0,00 0,00 0,00 0,00 0,00 0,00 31/12/2020
133 171100 ALESSIA ALVES DE ALVARENGA SANTA BARBARA PROMOT.ENTRANC.ESPECIAL CONSELHEIRO LAFAIETE - COMARCA; CONSELHEIRO LAFAIETE-PJ-06PJ 1.100,00 0,00 3.368,91 0,00 5.614,85 0,00 0,00 0,00 0,00 31/12/2020
134 57800 ALESSIO GUIMARAES PROCURADOR DE JUSTICA BELO HORIZONTE - COMARCA; GABINETE DE PROCURADOR DE JUSTIÇA - SALA 508 1.100,00 0,00 2.451,80 0,00 0,00 0,00 0,00 0,00 0,00 31/12/2020
135 375301 ALETHEIA PATRICIA ASSIS MORAIS MOREIRA ANALISTA DO MP ITABIRA - COMARCA; ITABIRA-PJ-02PJ 1.100,00 1.538,78 450,00 0,00 0,00 0,00 0,00 0,00 0,00 31/12/2020
136 949200 ALEX ALVES DA SILVA ESTAGIARIO ABRE CAMPO; ABRE CAMPO-PJ-01PJ 0,00 0,00 0,00 81,00 844,67 0,00 0,00 0,00 0,00 31/12/2020
137 382300 ALEX CARVALHO LIMA ANALISTA DO MP UBERLÂNDIA - COMARCA; UBERLANDIA-PJ-14PJ 1.100,00 0,00 450,00 0,00 0,00 0,00 0,00 0,00 0,00 31/12/2020
138 195201 ALEX DE CASTRO PEREIRA ANALISTA DO MP UBERABA - COMARCA; UBERABA-PJ-09PJ 1.100,00 0,00 450,00 0,00 0,00 0,00 0,00 0,00 0,00 31/12/2020
139 358900 ALEX DE PAULA LANZA ASSESSOR BELO HORIZONTE - COMARCA; DIR CONTEUDO JORNALISTICO 1.100,00 769,39 450,00 0,00 0,00 0,00 0,00 0,00 0,00 31/12/2020
140 171400 ALEX FERNANDES SANTIAGO PROMOT.ENTRANC.ESPECIAL JUIZ DE FORA - COMARCA; JUIZ DE FORA-PJ-08PJ 1.100,00 0,00 1.726,92 0,00 5.614,85 0,00 0,00 0,00 0,00 31/12/2020
141 685300 ALEX RAFAEL BITTENCOURT PROMOTOR SUBSTITUTO RIO POMBA - COMARCA; RIO POMBA-PJ-UNPJ 1.100,00 0,00 746,20 0,00 0,00 0,00 0,00 0,00 0,00 31/12/2020
142 178400 ALEX RODRIGO SALDANHA GUIMARAES OFICIAL DO MP BELO HORIZONTE - COMARCA; DIRETORIA DE SISTEMAS DE INFORMACAO 1.100,00 0,00 450,00 0,00 0,00 0,00 0,00 0,00 0,00 31/12/2020
143 314100 ALEX SOARES NACIF PROMOT.ENTRANC.ESPECIAL CONTAGEM - COMARCA; CONTAGEM-PJ-15PJ 1.100,00 0,00 895,44 0,00 5.614,85 0,00 0,00 0,00 0,00 31/12/2020
144 413500 ALEX VILELA OLIVEIRA ANALISTA DO MP GOVERNADOR VALADARES - COMARCA; COORD REG PJ DEF EDU DIR CRIANCA ADOL RIODOCE 1.100,00 0,00 450,00 0,00 0,00 0,00 0,00 0,00 0,00 31/12/2020
145 264300 ALEXANDRA FATIMA SARAIVA SOARES ANALISTA DO MP BELO HORIZONTE - COMARCA; CENTRAL DE APOIO TECN-SETOR DE MEIO AMBIENTE 1.100,00 0,00 450,00 0,00 0,00 0,00 0,00 0,00 0,00 31/12/2020
146 488000 ALEXANDRA LARA PAIS DE CARVALHO ANALISTA DO MP SERRO - COMARCA; SERRO-PJ-UNPJ 1.100,00 0,00 450,00 0,00 0,00 0,00 0,00 0,00 0,00 31/12/2020
147 256300 ALEXANDRA SANTOS GOMES OFICIAL DO MP BELO HORIZONTE - COMARCA; DIRETORIA GESTAO COMPRAS LICITACOES 1.100,00 0,00 450,00 0,00 0,00 0,00 0,00 0,00 0,00 31/12/2020
148 236300 ALEXANDRE ALVES DE OLIVEIRA PROMOT.ENTRANC.ESPECIAL BELO HORIZONTE - COMARCA; BH-12PJ JUIZO CRIMINAL-GAB 108PJ 1.100,00 0,00 980,72 0,00 5.614,85 0,00 0,00 0,00 0,00 31/12/2020
149 403300 ALEXANDRE AUGUSTO RODRIGUES ANALISTA DO MP ÁGUAS FORMOSAS - COMARCA; AGUAS FORMOSAS-PJ-UNPJ 1.100,00 769,39 450,00 0,00 0,00 0,00 0,00 0,00 0,00 31/12/2020
150 640900 ALEXANDRE BARBOSA MASCARENHAS ANALISTA DO MP BETIM - COMARCA; BETIM-PJ-02PJ 1.100,00 0,00 450,00 0,00 0,00 0,00 0,00 0,00 0,00 31/12/2020
151 311700 ALEXANDRE BARCELOS RESENDE OFICIAL DO MP BELO HORIZONTE - COMARCA; BH-19PJ SAUDE-SECRETARIA 047PJ 1.100,00 769,39 450,00 0,00 0,00 0,00 0,00 0,00 0,00 31/12/2020
152 293700 ALEXANDRE BRASILEIRO DE QUEIROZ PROMOT.ENTRANC.ESPECIAL BELO HORIZONTE - COMARCA; BH-12PJ JUIZO CRIMINAL-GAB 092PJ 1.100,00 0,00 3.181,68 0,00 5.614,85 0,00 0,00 0,00 0,00 31/12/2020
153 285600 ALEXANDRE CAMPOS DE OLIVEIRA OFICIAL DO MP UBERABA - COMARCA; COORD REG BACIAS PARANAIBA BAIXO RIO GRANDE 1.100,00 0,00 450,00 0,00 0,00 0,00 0,00 0,00 0,00 31/12/2020
154 509200 ALEXANDRE CAPUANO DE REZENDE ANALISTA DO MP BELO HORIZONTE - COMARCA; GABINETE DE PROCURADOR DE JUSTIÇA - SALA 715 1.100,00 0,00 450,00 0,00 0,00 0,00 0,00 0,00 0,00 31/12/2020
155 229400 ALEXANDRE CARLOS BOTREL DIRETOR/OFICIAL BELO HORIZONTE - COMARCA; SUPERINTENDENCIA DOS ORGAOS COLEGIADOS 1.100,00 0,00 450,00 0,00 0,00 0,00 0,00 0,00 -821,24 31/12/2020
156 411900 ALEXANDRE CARVALHO SANTOS RIBEIRO ANALISTA DO MP OLIVEIRA - COMARCA; OLIVEIRA-PJ-02PJ 1.100,00 769,39 450,00 0,00 0,00 0,00 0,00 0,00 0,00 31/12/2020
157 641600 ALEXANDRE DA SILVA ASSUNCAO OFICIAL DO MP BELO HORIZONTE - COMARCA; SERVICO MEDICO-DEPTO PERIC MEDICA SAUDE OCUP 1.100,00 0,00 450,00 0,00 0,00 0,00 0,00 0,00 0,00 31/12/2020
158 201200 ALEXANDRE DE ALENCAR CORDEIRO OFICIAL DO MP ÁGUAS FORMOSAS - COMARCA; AGUAS FORMOSAS-PJ-UNPJ 1.100,00 0,00 450,00 0,00 0,00 0,00 0,00 0,00 0,00 31/12/2020
159 288200 ALEXANDRE DE VASCONCELOS COSTA KER ANALISTA DO MP BELO HORIZONTE - COMARCA; BH-03PJ EMPRESARIAL-SECRETARIA 1.100,00 0,00 450,00 0,00 0,00 0,00 0,00 0,00 0,00 31/12/2020
160 445000 ALEXANDRE DIOGENES OLIVEIRA ANALISTA DO MP SALINAS - COMARCA; SALINAS-PJ-02PJ 1.100,00 769,39 450,00 0,00 0,00 0,00 0,00 0,00 0,00 31/12/2020
161 1032000 ALEXANDRE EVARISTO CUNHA BARBOSA ESTAGIARIO CAPELINHA; CAPELINHA-PJ-01PJ
162 665800 ALEXANDRE FIGUEIREDO MORATO PROMOTOR 2A ENTRANCIA GUANHÃES - COMARCA; GUANHAES-PJ-01PJ 1.100,00 0,00 703,56 0,00 10.668,22 0,00 0,00 0,00 488,96 31/12/2020
163 463400 ALEXANDRE LEAL WINKELSTROTER ANALISTA DO MP TEÓFILO OTONI - COMARCA; TEOFILO OTONI-PJ-04PJ 1.100,00 0,00 450,00 0,00 0,00 0,00 0,00 0,00 0,00 31/12/2020
164 96600 ALEXANDRE LIBERO BARONI PROMOT.ENTRANC.ESPECIAL SETE LAGOAS - COMARCA; SETE LAGOAS-PJ-04PJ 1.100,00 0,00 2.771,60 0,00 11.229,70 0,00 0,00 0,00 514,69 31/12/2020
165 1189100 ALEXANDRE LOPES PEREIRA ESTAGIARIO CANAPOLIS; CANAPOLIS-PJ-UNPJ 0,00 0,00 0,00 162,00 0,00 0,00 0,00 0,00 0,00 31/12/2020
166 615700 ALEXANDRE LUIZ DE CASTRO MACIEL ANALISTA DO MP IBIRITÉ - COMARCA; IBIRITE-PJ-02PJ 1.100,00 0,00 450,00 0,00 0,00 0,00 0,00 0,00 0,00 31/12/2020
167 356900 ALEXANDRE MOISES MENDONCA E ARAUJO OFICIAL DO MP UBERABA - COMARCA; UBERABA-PJ-13PJ 1.100,00 0,00 450,00 0,00 0,00 0,00 0,00 0,00 0,00 31/12/2020
168 232100 ALEXANDRE MOTTA BENEVIDES PROMOT.ENTRANC.ESPECIAL BELO HORIZONTE - COMARCA; BH-12PJ JUIZO CRIMINAL-GAB 094PJ 1.100,00 0,00 2.302,56 0,00 11.229,70 0,00 0,00 0,00 514,69 31/12/2020
169 633300 ALEXANDRE NONATO MARTINS OFICIAL DO MP IGARAPÉ - COMARCA; IGARAPE-PJ-02PJ 1.100,00 0,00 450,00 0,00 0,00 0,00 0,00 0,00 0,00 31/12/2020
170 469900 ALEXANDRE PEREIRA GUEDES ANALISTA DO MP CATAGUASES - COMARCA; CATAGUASES-PJ-03PJ 1.100,00 0,00 450,00 0,00 0,00 0,00 0,00 0,00 0,00 31/12/2020
171 208700 ALEXANDRE RESENDE FRAGA ANALISTA DO MP BELO HORIZONTE - COMARCA; BH-19PJ SAUDE-SECRETARIA 130PJ 1.100,00 0,00 450,00 0,00 0,00 0,00 0,00 0,00 0,00 31/12/2020
172 156900 ALEXANDRE REZENDE GRILLO PROMOTOR 2A ENTRANCIA SÃO GONÇALO DO SAPUCAÍ - COMARCA; SAO GONCALO DO SAPUCAI-PJ-02PJ 1.100,00 0,00 2.686,32 0,00 10.668,22 0,00 0,00 0,00 488,96 31/12/2020
173 216401 ALEXANDRE RIBEIRO DE LIMA MAIORINO ANALISTA DO MP UBERABA - COMARCA; UBERABA-PJ-03PJ 1.100,00 0,00 450,00 0,00 0,00 0,00 0,00 0,00 0,00 31/12/2020
174 475100 ALEXANDRE TEOTONIO COSTA ANALISTA DO MP ARAGUARI - COMARCA; ARAGUARI-PJ-01PJ 1.100,00 0,00 450,00 0,00 0,00 0,00 0,00 0,00 0,00 31/12/2020
175 339000 ALEXANDRE VITOR CARDOSO OFICIAL DO MP BELO HORIZONTE - COMARCA; PROMOT ESTADUAL DE DEF PATRI CULT E TUR DE MG 1.100,00 0,00 450,00 0,00 0,00 0,00 0,00 0,00 0,00 31/12/2020
176 1088900 ALEXANDRE VITOR FONSECA ALVES ESTAGIARIO BELO HORIZONTE; BH-19PJ SAUDE-RECEPCAO 0,00 0,00 0,00 18,00 0,00 0,00 0,00 0,00 30,17 31/12/2020
177 694000 ALEXANDRO ANTONIO PORTO E SOUZA INVESTIGADOR DE POLICIA 2 BELO HORIZONTE - COMARCA; GAECO - SETOR POLICIAL CIVIL 2.500,00 0,00 0,00 0,00 0,00 0,00 0,00 0,00 3.236,21 31/12/2020
178 678900 ALEXIA DUARTE TORRES ASSESSOR PROCURADOR JUSTICA BELO HORIZONTE - COMARCA; GABINETE DE PROCURADOR DE JUSTIÇA - SALA 502 1.100,00 0,00 450,00 0,00 0,00 0,00 0,00 0,00 0,00 31/12/2020
179 623100 ALEXSANDER BATISTA AGUIAR ANALISTA DO MP BELO HORIZONTE - COMARCA; DIRETORIA DE SUPORTE E MANUTENCAO 1.100,00 769,39 450,00 0,00 0,00 0,00 0,00 0,00 0,00 31/12/2020
180 1170300 ALEXSANDER MERCURY CASSEMIRO ALVES ESTAGIARIO BELO HORIZONTE; BH-09PJ AUDITORIA MILITAR-GAB 074PJ
181 513300 ALFSON MIRANDA BRAGA ANALISTA DO MP BELO HORIZONTE - COMARCA; BH-12PJ JUIZO CRIMINAL-GAB 092PJ 1.100,00 0,00 450,00 0,00 0,00 0,00 0,00 0,00 0,00 31/12/2020
182 157000 ALI MAHMOUD FAYEZ AYOUB PROMOTOR 2A ENTRANCIA GUAXUPÉ - COMARCA; GUAXUPE-PJ-02PJ 1.100,00 0,00 2.686,32 0,00 5.334,11 0,00 0,00 0,00 0,00 31/12/2020
183 1178100 ALICE ARAUJO CAMPOS ESTAGIARIO PARACATU; PARACATU-PJ-04PJ 0,00 0,00 0,00 162,00 0,00 0,00 0,00 0,00 0,00 31/12/2020
184 485300 ALICE DE MELLO VILELA PROMOT.ENTRANC.ESPECIAL CONTAGEM - COMARCA; CONTAGEM-PJ-06PJ 1.100,00 0,00 852,80 0,00 5.614,85 0,00 0,00 0,00 0,00 31/12/2020
185 618400 ALICE MAGALHAES MACEDO DE CARVALHO ANALISTA DO MP IPATINGA - COMARCA; IPATINGA-PJ-10PJ 1.100,00 769,39 450,00 0,00 0,00 0,00 0,00 0,00 0,00 31/12/2020
186 882300 ALICE MARIA RIBEIRO DINIZ ESTAGIARIO BELO HORIZONTE; BH-13PJ JUIZO DE TOXICOS-GAB 149PJ 0,00 0,00 0,00 162,00 724,00 0,00 0,00 0,00 0,00 31/12/2020
187 1128600 ALICE OLIVEIRA BOTTARO ESTAGIARIO BELO HORIZONTE; PROMOT ESTADUAL DE DEF PATRI CULT E TUR DE MG
188 471000 ALICE TITONELI MOREIRA ANALISTA DO MP MIRADOURO - COMARCA; MIRADOURO-PJ-UNPJ 1.100,00 769,39 450,00 0,00 0,00 0,00 0,00 0,00 0,00 31/12/2020
189 1206000 ALICIA PAULA RODRIGUES DE LIMA ESTAGIARIO TIROS; TIROS-PJ-UNPJ 0,00 0,00 0,00 117,00 0,00 0,00 0,00 0,00 0,00 31/12/2020
190 1164000 ALINE APARECIDA CUSTODIO ESTAGIARIO SAO SEBASTIAO DO PARAISO; SAO SEBASTIAO DO PARAISO-PJ-01PJ 0,00 0,00 0,00 81,00 0,00 0,00 0,00 0,00 0,00 31/12/2020
191 1138500 ALINE ARAUJO GONCALVES DE SOUZA ESTAGIARIO BELO HORIZONTE; BH-25PJ DEFESA DA EDUCACAO-SECRETARIA
192 622400 ALINE BALBINO PORTUGAL LOPES ANALISTA DO MP TRÊS PONTAS - COMARCA; TRES PONTAS-PJ-03PJ 1.100,00 769,39 450,00 0,00 0,00 0,00 0,00 0,00 0,00 31/12/2020
193 373000 ALINE BOTELHO RESENDE OFICIAL DO MP JUIZ DE FORA - COMARCA; JUIZ DE FORA-PJ-22PJ 1.100,00 0,00 450,00 0,00 0,00 0,00 0,00 0,00 0,00 31/12/2020
194 699800 ALINE CRISTINA DE OLIVEIRA AMARAL BARBOSA ASSESSOR PROCURADOR JUSTICA BELO HORIZONTE - COMARCA; GABINETE DE PROCURADOR DE JUSTIÇA - SALA 904 1.000,00 0,00 450,00 0,00 0,00 0,00 0,00 0,00 0,00 31/12/2020
195 407700 ALINE CRISTINA RODRIGUES PEREIRA COORDENADOR/ANALISTA BELO HORIZONTE - COMARCA; DIRETORIA DE PROJETOS DE EDIFICACOES 1.100,00 769,39 450,00 0,00 0,00 0,00 0,00 0,00 0,00 31/12/2020
196 193100 ALINE CRISTINA SENA OLIVEIRA OFICIAL DO MP UBERLÂNDIA - COMARCA; UBERLANDIA-PJ-03PJ 1.100,00 769,39 450,00 0,00 0,00 0,00 0,00 0,00 0,00 31/12/2020
197 554200 ALINE CRISTINA SILVA SOUZA OFICIAL DO MP TIROS - COMARCA; TIROS-PJ-UNPJ 1.100,00 0,00 450,00 0,00 0,00 0,00 0,00 0,00 0,00 31/12/2020
198 505500 ALINE DA CUNHA MARREIROS OLIVEIRA ANALISTA DO MP CARANGOLA - COMARCA; CARANGOLA-PJ-03PJ 1.100,00 769,39 450,00 0,00 0,00 0,00 0,00 0,00 0,00 31/12/2020
199 433500 ALINE DE MELO QUEIROZ ASSESSOR/OFICIAL BELO HORIZONTE - COMARCA; ASSESSORIA TECNICA DO PROCON-MG 1.100,00 769,39 450,00 0,00 0,00 0,00 0,00 0,00 -703,60 31/12/2020
200 691100 ALINE DE MELO SOUZA ASSESSOR PROCURADOR JUSTICA BELO HORIZONTE - COMARCA; GABINETE DE PROCURADOR DE JUSTIÇA - SALA 401 1.100,00 0,00 450,00 0,00 0,00 0,00 0,00 0,00 0,00 31/12/2020
201 935200 ALINE DE PAULA BRAGA ESTAGIARIO TRES PONTAS; TRES PONTAS-PJ-03PJ 0,00 0,00 0,00 27,00 0,00 0,00 0,00 0,00 0,00 31/12/2020
202 542700 ALINE DE SOUSA ALBINO ANALISTA DO MP CONTAGEM - COMARCA; CONTAGEM-PJ-09PJ 1.100,00 0,00 450,00 0,00 0,00 0,00 0,00 0,00 0,00 31/12/2020
203 330000 ALINE DIORIO MAYRINK OFICIAL DO MP BELO HORIZONTE - COMARCA; BH-15PJ M AMB PAT HIST CULT-GAB 115PJ 1.100,00 0,00 450,00 0,00 0,00 0,00 0,00 0,00 0,00 31/12/2020
204 499000 ALINE FERREIRA LOPES ANALISTA DO MP TEÓFILO OTONI - COMARCA; COORD. DE DEF. DO PAT. PUBLICO-JEQUIT./MUCURI 1.100,00 0,00 450,00 0,00 0,00 0,00 0,00 0,00 0,00 31/12/2020
205 405300 ALINE LAIA CARDOZO DIRETOR/ANALISTA BELO HORIZONTE - COMARCA; SUPERINTENDENCIA LOGISTICA SERVICOS 1.100,00 0,00 450,00 0,00 0,00 0,00 0,00 0,00 -1.386,24 31/12/2020
206 278200 ALINE MARCIA FARIA BARBOSA FERNANDES OFICIAL DO MP BARBACENA - COMARCA; BARBACENA-PJ-SECRETARIA 1.100,00 0,00 450,00 0,00 0,00 0,00 0,00 0,00 0,00 31/12/2020
207 1091400 ALINE MARIA MARTINS SILVA ESTAGIARIO FORMIGA; FORMIGA-PJ-01PJ 0,00 0,00 0,00 162,00 0,00 0,00 0,00 0,00 0,00 31/12/2020
208 389000 ALINE NERI NOBRE ANALISTA DO MP MONTES CLAROS - COMARCA; COORD REG PJ DEF EDUC DIR CRIANCA ADOL NORTE 1.100,00 0,00 450,00 0,00 0,00 0,00 0,00 0,00 0,00 31/12/2020
209 1138600 ALINE OLIVEIRA DE FATIMA ESTAGIARIO PARACATU; GAECO REGIONAL DE PARACATU 0,00 0,00 0,00 162,00 0,00 0,00 0,00 0,00 0,00 31/12/2020
210 294600 ALINE PATRICIA SILVA VIEIRA OFICIAL DO MP UBERLÂNDIA - COMARCA; UBERLANDIA-PJ-03PJ 1.100,00 0,00 450,00 0,00 0,00 0,00 1.445,27 0,00 0,00 31/12/2020
211 420000 ALINE RODRIGUES CAMOROPIN ANALISTA DO MP SABARÁ - COMARCA; SABARA-PJ-02PJ 1.100,00 0,00 450,00 0,00 0,00 0,00 0,00 0,00 0,00 31/12/2020
212 699600 ALINE SEPULVEDA ROSA PIRES ASSESSOR PROCURADOR JUSTICA BELO HORIZONTE - COMARCA; SUPERINTENDENCIA GESTÃO DE PESSOAS 1.000,00 0,00 450,00 0,00 0,00 0,00 0,00 0,00 0,00 31/12/2020
213 408300 ALINE SILVA ARAUJO DE PAULA ANALISTA DO MP SÃO SEBASTIÃO DO PARAÍSO - COMARCA; SAO SEBASTIAO DO PARAISO-PJ-02PJ 1.100,00 769,39 450,00 0,00 0,00 0,00 0,00 0,00 0,00 31/12/2020
214 665900 ALINE SILVA BARROS PROMOTOR 2A ENTRANCIA VARZEA DA PALMA - COMARCA; VARZEA DA PALMA-PJ-01PJ 1.100,00 0,00 703,56 0,00 5.334,11 0,00 0,00 0,00 0,00 31/12/2020
215 1182600 ALINE SILVA MONTOVANI ESTAGIARIO VARGINHA; VARGINHA-PJ-07PJ 0,00 0,00 0,00 162,00 0,00 0,00 0,00 0,00 0,00 31/12/2020
216 1138200 ALINE STEFANE DE OLIVEIRA ASSUNCAO ESTAGIARIO BELO HORIZONTE; BH-23PJ INFRACIONAL 0,00 0,00 0,00 63,00 0,00 0,00 0,00 0,00 0,00 31/12/2020
217 425400 ALINE TRINDADE DE FREITAS CAMPOS OFICIAL DO MP BELO HORIZONTE - COMARCA; BH-14PJ DEFESA CONSUMIDOR-SECRETARIA 1.100,00 0,00 450,00 0,00 0,00 0,00 0,00 0,00 0,00 31/12/2020
218 1111700 ALINI PEREIRA DE ALMEIDA ESTAGIARIO VICOSA; VICOSA-PJ-04PJ 0,00 0,00 0,00 162,00 0,00 0,00 0,00 0,00 0,00 31/12/2020
219 1077600 ALINY SANTOS ARRUDA ESTAGIARIO BELO HORIZONTE; BH-13PJ JUIZO DE TOXICOS-GAB 149PJ 0,00 0,00 0,00 162,00 0,00 0,00 0,00 0,00 0,00 31/12/2020
220 517200 ALISSOM PEREIRA DA SILVA ANALISTA DO MP BORDA DA MATA - COMARCA; BORDA DA MATA-PJ-UNPJ 1.100,00 0,00 450,00 0,00 0,00 0,00 0,00 0,00 0,00 31/12/2020
221 442400 ALISSON LABRE ANALISTA DO MP VARGINHA - COMARCA; VARGINHA-PJ-03PJ 1.100,00 769,39 450,00 0,00 0,00 0,00 0,00 0,00 0,00 31/12/2020
222 643800 ALLAN PAUL FONSECA DE CASTRO ASSESSOR/OFICIAL CONTAGEM - COMARCA; CONTAGEM-PJ-SECRETARIA 1.100,00 769,39 450,00 0,00 0,00 0,00 0,00 0,00 0,00 31/12/2020
223 612900 ALLAN VINICIUS VIEIRA ARAUJO COORDENADOR/OFICIAL BELO HORIZONTE - COMARCA; DIVISAO TRANSPORTES 1.100,00 0,00 450,00 0,00 0,00 0,00 0,00 0,00 -82,20 31/12/2020
224 1081200 ALLANA RODRIGUES DA CRUZ ESTAGIARIO PEDRA AZUL; PEDRA AZUL-PJ-01PJ 0,00 0,00 0,00 90,00 0,00 0,00 0,00 0,00 0,00 31/12/2020
225 349000 ALLEC RODRIGUES VIEIRA OFICIAL DO MP BELO HORIZONTE - COMARCA; EXTINTA-COORD EST DEF DIR FAM PES DEFIC IDOSO 1.100,00 0,00 450,00 0,00 0,00 0,00 0,00 0,00 0,00 31/12/2020
226 532400 ALLENDER BARRETO LIMA DA SILVA PROMOTOR 1A ENTRANCIA ABAETÉ - COMARCA; ABAETE-PJ-UNPJ 1.100,00 0,00 746,20 0,00 5.067,40 0,00 0,00 0,00 0,00 31/12/2020
227 297300 ALLYSON SALIBA MONTEIRO LAIZO ANALISTA DO MP CONSELHEIRO LAFAIETE - COMARCA; CONSELHEIRO LAFAIETE-PJ-03PJ 1.100,00 1.538,78 450,00 0,00 0,00 0,00 0,00 0,00 0,00 31/12/2020
228 68900 ALMIR ALVES MOREIRA PROCURADOR DE JUSTICA BELO HORIZONTE - COMARCA; GABINETE DE PROCURADOR DE JUSTIÇA - SALA 1012 1.100,00 0,00 2.451,80 0,00 11.820,74 0,00 0,00 0,00 541,78 31/12/2020
229 226601 ALMIR GERALDO GUIMARAES PROMOTOR 2A ENTRANCIA MATEUS LEME - COMARCA; MATEUS LEME-PJ-02PJ 1.100,00 0,00 2.132,00 0,00 8.534,58 0,00 0,00 0,00 293,38 31/12/2020
230 303700 ALMIR LOPES LOURES ANALISTA DO MP BELO HORIZONTE - COMARCA; CENTRAL DE APOIO TECN-SETOR DE MEIO AMBIENTE 1.100,00 0,00 450,00 0,00 0,00 0,00 0,00 0,00 0,00 31/12/2020
231 440700 ALOISIO CUNHA SOARES JUNIOR PROMOTOR 2A ENTRANCIA PATROCÍNIO - COMARCA; PATROCINIO-PJ-04PJ 1.100,00 0,00 1.918,80 0,00 5.334,11 0,00 0,00 0,00 0,00 31/12/2020
232 90600 ALOISIO RABELO DE REZENDE PROMOT.ENTRANC.ESPECIAL VARGINHA - COMARCA; VARGINHA-PJ-01PJ 1.100,00 0,00 2.665,00 0,00 11.229,70 0,00 0,00 0,00 514,69 31/12/2020
233 696600 ALOIZIO MARTINS JALES JUNIOR ASSESSOR PROMOTOR JUSTICA CAMPESTRE - COMARCA; CAMPESTRE-PJ-SECRETARIA 1.000,00 0,00 450,00 0,00 0,00 0,00 0,00 0,00 0,00 31/12/2020
234 515900 ALTAIR NEVES JUNIOR OFICIAL DO MP BELO HORIZONTE - COMARCA; BH-01PJ FAZENDA PUBLICA-SECRETARIA 1.100,00 0,00 450,00 0,00 0,00 0,00 0,00 0,00 0,00 31/12/2020
235 290800 ALUISIA BERALDO RIBEIRO PROMOT.ENTRANC.ESPECIAL UBERLÂNDIA - COMARCA; UBERLANDIA-PJ-14PJ 1.100,00 0,00 1.321,84 0,00 5.614,85 0,00 0,00 0,00 0,00 31/12/2020
236 233300 ALVARINDO BATISTA ANALISTA DO MP BELO HORIZONTE - COMARCA; NUCLEO APOIO TECNICO ESP COMUNICACAO 1.100,00 769,39 450,00 0,00 0,00 0,00 0,00 0,00 0,00 31/12/2020
237 952300 ALVARO EPIFANIO GOMES JUNIOR ESTAGIARIO ITABIRA; ITABIRA-PJ-04PJ 0,00 0,00 0,00 117,00 301,67 0,00 0,00 0,00 0,00 31/12/2020
238 1171700 ALVIM JUNIO DE LIMA ESTAGIARIO BARBACENA; BARBACENA-PJ-02PJ 0,00 0,00 0,00 72,00 0,00 0,00 0,00 0,00 0,00 31/12/2020
239 1165500 ALYCE RAMALHO PRIMO ESTAGIARIO BELO HORIZONTE; PROC. JUSTICA DE HABEAS CORPUS
240 344400 ALYSSON CARDOZO CEMBRANEL PROMOT.ENTRANC.ESPECIAL BELO HORIZONTE - COMARCA; BH-09PJ AUDITORIA MILITAR-GAB 073PJ 1.100,00 0,00 1.556,36 0,00 5.614,85 0,00 0,00 0,00 0,00 31/12/2020
241 274100 ALYSSON CARVALHO VIDAL DE LACERDA OFICIAL DO MP MANHUAÇU - COMARCA; MANHUACU-PJ-01PJ 1.100,00 0,00 450,00 0,00 0,00 0,00 0,00 0,00 0,00 31/12/2020
242 1176600 AMANDA ANDREA IDENAGA CASTANHEIRA ESTAGIARIO FRUTAL; FRUTAL-PJ-05PJ 0,00 0,00 0,00 162,00 0,00 0,00 0,00 0,00 0,00 31/12/2020
243 621000 AMANDA BASTOS ALVES ANALISTA DO MP BELO HORIZONTE - COMARCA; BH-07PJ 02 TRIBUNAL DO JURI-GAB 066PJ 1.100,00 0,00 450,00 0,00 0,00 0,00 0,00 0,00 0,00 31/12/2020
244 1041500 AMANDA CALDEIRA DE OLIVEIRA ESTAGIARIO BELO HORIZONTE; SUPERINTENDÊNCIA DE ENGENHARIA E ARQUITETURA 0,00 0,00 0,00 18,00 0,00 0,00 0,00 0,00 0,00 31/12/2020
245 521700 AMANDA CRISTINA AGUIAR MACHADO OFICIAL DO MP CONGONHAS - COMARCA; CONGONHAS-PJ-01PJ 1.100,00 0,00 450,00 0,00 0,00 0,00 0,00 0,00 0,00 31/12/2020
246 1039800 AMANDA CRISTINA ALVES SANTOS ESTAGIARIO JOAO MONLEVADE; JOAO MONLEVADE-PJ-01PJ 0,00 0,00 0,00 153,00 0,00 0,00 0,00 0,00 0,00 31/12/2020
247 1162200 AMANDA CRISTINA DE CASTRO VIANA ESTAGIARIO BELO HORIZONTE; DIV FISCAL ADM CONT TERCEIRIZACAO
248 1086900 AMANDA CRISTINA FERREIRA DE SOUSA ESTAGIARIO VESPASIANO; VESPASIANO-PJ-06PJ 0,00 0,00 0,00 18,00 0,00 0,00 0,00 0,00 0,00 31/12/2020
249 613400 AMANDA DE ASSIS IUNES SANTOS ANALISTA DO MP CONGONHAS - COMARCA; CONGONHAS-PJ-01PJ 1.100,00 0,00 450,00 0,00 0,00 0,00 0,00 0,00 0,00 31/12/2020
250 695900 AMANDA DE OLIVEIRA ASSESSOR PROCURADOR JUSTICA BELO HORIZONTE - COMARCA; PROC JUST RECURSOS ESP E EXTRAORD CRIMINAIS 1.000,00 0,00 450,00 0,00 0,00 0,00 0,00 0,00 0,00 31/12/2020
251 520800 AMANDA DE SOUZA MACHADO ANALISTA DO MP BAEPENDI - COMARCA; BAEPENDI-PJ-UNPJ 1.100,00 0,00 450,00 0,00 0,00 0,00 0,00 0,00 0,00 31/12/2020
252 663900 AMANDA DENISE GONCALVES DA SILVA ASSESSOR BELO HORIZONTE - COMARCA; DIRET DE FORMACAO, APERFEIC. E POS-GRADUACAO 1.100,00 0,00 450,00 0,00 0,00 0,00 0,00 0,00 0,00 31/12/2020
253 1095700 AMANDA DOS SANTOS FERREIRA ESTAGIARIO MONTES CLAROS; MONTES CLAROS-PJ-14PJ 0,00 0,00 0,00 162,00 0,00 0,00 0,00 0,00 0,00 31/12/2020
254 928600 AMANDA DUTRA DE REZENDE ANTUNES ESTAGIARIO BELO HORIZONTE; BH-01PJ FAZENDA PUBLICA-GAB 008PJ 0,00 0,00 0,00 0,00 1.325,50 0,00 0,00 0,00 0,00 31/12/2020
255 1086600 AMANDA EMERICK DA SILVA ESTAGIARIO MANHUMIRIM; MANHUMIRIM-PJ-01PJ 0,00 0,00 0,00 153,00 392,17 0,00 0,00 0,00 0,00 31/12/2020
256 1183300 AMANDA GABRIELA GONCALVES DE MIRANDA ESTAGIARIO BELO HORIZONTE; BH-02PJ FAMILIA 0,00 0,00 0,00 27,00 0,00 0,00 0,00 0,00 0,00 31/12/2020
257 1153000 AMANDA GIL DE SOUZA ESTAGIARIO MONTES CLAROS; MONTES CLAROS-PJ-09PJ 0,00 0,00 0,00 117,00 0,00 0,00 0,00 0,00 0,00 31/12/2020
258 1027600 AMANDA GOMES BARBOSA ESTAGIARIO VARGINHA; VARGINHA-PJ-06PJ 0,00 0,00 0,00 162,00 0,00 0,00 0,00 0,00 0,00 31/12/2020
259 1059400 AMANDA GONTIJO DE LACERDA ESTAGIARIO PATOS DE MINAS; PATOS DE MINAS-PJ-06PJ 0,00 0,00 0,00 162,00 0,00 0,00 0,00 0,00 0,00 31/12/2020
260 677000 AMANDA LETICIA MESSIAS PEGO ASSESSOR PROMOTOR JUSTICA CORAÇÃO DE JESUS - COMARCA; CORACAO DE JESUS-PJ-UNPJ 1.100,00 0,00 450,00 0,00 0,00 0,00 0,00 0,00 0,00 31/12/2020
261 1166600 AMANDA LUIZA NUNES SOARES ESTAGIARIO BELO HORIZONTE; BH-18PJ VIOLENCIA DOMESTICA-GAB 053PJ 0,00 0,00 0,00 126,00 0,00 0,00 0,00 0,00 0,00 31/12/2020
262 1014500 AMANDA MACHADO SOUZA ESTAGIARIO PASSOS; PASSOS-PJ-06PJ 0,00 0,00 0,00 117,00 0,00 0,00 0,00 0,00 0,00 31/12/2020
263 1014600 AMANDA MAGALHAES DE CARVALHO E SILVA ESTAGIARIO BELO HORIZONTE; PROC. JUSTICA CIVEL 0,00 0,00 0,00 9,00 0,00 0,00 0,00 0,00 0,00 31/12/2020
264 937900 AMANDA MARIA THOMAZ DE LIMA ESTAGIARIO SETE LAGOAS; SETE LAGOAS-PJ-10PJ 0,00 0,00 0,00 63,00 0,00 0,00 0,00 0,00 0,00 31/12/2020
265 666000 AMANDA MERLINI DUTRA OSIPE PROMOTOR SUBSTITUTO CATAGUASES - COMARCA; CATAGUASES-PJ-01PJ 1.100,00 0,00 1.407,12 0,00 10.134,80 0,00 0,00 0,00 464,51 31/12/2020
266 1157400 AMANDA MIQUELINO RIBEIRO ESTAGIARIO UBERABA; UBERABA-PJ-13PJ 0,00 0,00 0,00 54,00 0,00 0,00 0,00 0,00 0,00 31/12/2020
267 1076900 AMANDA PEREIRA MACEDO ESTAGIARIO UBERLANDIA; UBERLANDIA-PJ-07PJ 0,00 0,00 0,00 63,00 0,00 0,00 0,00 0,00 0,00 31/12/2020
268 1093100 AMANDA REGINA DE ALMEIDA E SILVA ESTAGIARIO JUIZ DE FORA; JUIZ DE FORA-PJ-02PJ
269 1071000 AMANDA SALIS LOTT ESTAGIARIO BELO HORIZONTE; BH-15PJ M AMB PAT HIST CULT-GAB 115PJ 0,00 0,00 0,00 81,00 0,00 0,00 0,00 0,00 0,00 31/12/2020
270 1100000 AMANDA SANTOS DIAS ESTAGIARIO ERVALIA; ERVALIA-PJ-UNPJ 0,00 0,00 0,00 153,00 0,00 0,00 0,00 0,00 0,00 31/12/2020
271 951000 AMANDA TEIXEIRA IZIDORIO ESTAGIARIO RIO CASCA; RIO CASCA-PJ-UNPJ 0,00 0,00 0,00 63,00 0,00 0,00 0,00 0,00 0,00 31/12/2020
272 543100 AMANDA VIEIRA FREITAS BRESSANE ANALISTA DO MP VARGINHA - COMARCA; COORD REG DEF ORDEM ECON TRIB VARGINHA 1.100,00 0,00 450,00 0,00 0,00 0,00 0,00 0,00 0,00 31/12/2020
273 1024900 AMANDA XAVIER DA COSTA ESTAGIARIO JEQUERI; JEQUERI-PJ-UNPJ 0,00 0,00 0,00 153,00 0,00 0,00 0,00 0,00 0,00 31/12/2020
274 656701 AMARILDO ODILON REZENDE DE AGUIAR INVESTIGADOR DE POLICIA 2 BELO HORIZONTE - COMARCA; CAO-ORDEM ECONOMICA E TRIBUTARIA 1.100,00 0,00 0,00 0,00 0,00 0,00 0,00 0,00 1.847,30 31/12/2020
275 434400 AMARILIS ASSIS SIMAO CURCIO ANALISTA DO MP MANHUAÇU - COMARCA; MANHUACU-PJ-SECRETARIA 1.100,00 0,00 450,00 0,00 0,00 0,00 0,00 0,00 0,00 31/12/2020
276 74200 AMAURI ARTIMOS DA MATTA PROCURADOR DE JUSTICA BELO HORIZONTE - COMARCA; PROCON-MG 1.100,00 0,00 2.345,20 0,00 11.820,74 0,00 0,00 0,00 541,78 31/12/2020
277 652000 AMAURI SILVA ALVES ASSESSOR/OFICIAL BELO HORIZONTE - COMARCA; BH-23PJ INFRACIONAL-SEC EXP 1.100,00 0,00 450,00 0,00 0,00 0,00 0,00 0,00 0,00 31/12/2020
278 273700 AMBROLINA CARNEIRO DE VASCONCELOS OFICIAL DO MP FRUTAL - COMARCA; FRUTAL-PJ-01PJ 1.100,00 0,00 450,00 0,00 0,00 0,00 0,00 0,00 0,00 31/12/2020
279 58000 AMELIA GUARIZE DE CASTRO OFICIAL DO MP JUIZ DE FORA - COMARCA; JUIZ DE FORA-PJ-SECRETARIA 1.100,00 0,00 450,00 0,00 0,00 0,00 0,00 0,00 0,00 31/12/2020
280 324301 AMERICA SUELI FERREIRA DA SILVA ANALISTA DO MP MONTE CARMELO - COMARCA; MONTE CARMELO-PJ-02PJ 1.100,00 769,39 450,00 0,00 0,00 0,00 0,00 0,00 0,00 31/12/2020
281 273300 AMUJACY DE BRITO ASSIZ OFICIAL DO MP BELO HORIZONTE - COMARCA; BH-12PJ JUIZO CRIMINAL-SECRETARIA 1.100,00 0,00 450,00 0,00 0,00 0,00 0,00 0,00 0,00 31/12/2020
282 482200 ANA ALICE LOPES ACHTSCHIN ANALISTA DO MP BELO HORIZONTE - COMARCA; PROC JUST RECURSOS ESP E EXTRAORD CRIMINAIS 1.100,00 0,00 450,00 0,00 0,00 0,00 0,00 0,00 0,00 31/12/2020
283 490400 ANA AMELIA PAULINO GARCIA OFICIAL DO MP CONTAGEM - COMARCA; CONTAGEM-PJ-SECRETARIA 1.100,00 0,00 450,00 0,00 0,00 0,00 0,00 0,00 0,00 31/12/2020
284 690400 ANA ANGELICA MOREIRA DA CUNHA ASSESSOR PROMOTOR JUSTICA TIMÓTEO - COMARCA; TIMOTEO-PJ-02PJ 1.100,00 0,00 450,00 0,00 0,00 0,00 0,00 0,00 0,00 31/12/2020
285 671300 ANA BARBARA CANEDO OLIVEIRA PROMOTOR 2A ENTRANCIA ALMENARA - COMARCA; ALMENARA-PJ-02PJ 1.100,00 0,00 703,56 0,00 0,00 0,00 0,00 0,00 0,00 31/12/2020
286 1128400 ANA BEATRIZ DE MELO FERNANDES ESTAGIARIO MESQUITA; MESQUITA-PJ-UNPJ 0,00 0,00 0,00 162,00 0,00 0,00 0,00 0,00 0,00 31/12/2020
287 1126700 ANA BEATRIZ DE SOUZA ARCANJO BASTOS ESTAGIARIO JOAO MONLEVADE; JOAO MONLEVADE-PJ-02PJ 0,00 0,00 0,00 144,00 301,67 0,00 0,00 0,00 0,00 31/12/2020
288 1161500 ANA BEATRIZ DIAS DE AZEVEDO ESTAGIARIO POUSO ALEGRE; POUSO ALEGRE-PJ-06PJ 0,00 0,00 0,00 63,00 0,00 0,00 0,00 0,00 0,00 31/12/2020
289 1211700 ANA CARLA LIMA REIS ESTAGIARIO TEIXEIRAS; TEIXEIRAS-PJ-UNPJ 0,00 0,00 0,00 63,00 0,00 0,00 0,00 0,00 0,00 31/12/2020
290 959600 ANA CARLA RODRIGUES DE SOUZA ESTAGIARIO AIURUOCA; AIURUOCA-PJ-UNPJ 0,00 0,00 0,00 81,00 0,00 0,00 0,00 0,00 0,00 31/12/2020
291 1147800 ANA CAROLINA AFONSO OMENA ESTAGIARIO ITUIUTABA; ITUIUTABA-PJ-02PJ 0,00 0,00 0,00 153,00 0,00 0,00 0,00 0,00 0,00 31/12/2020
292 279100 ANA CAROLINA ARAUJO PEREIRA ANALISTA DO MP BELO HORIZONTE - COMARCA; DIRETORIA DE PROJETOS DE EDIFICACOES 1.100,00 0,00 450,00 0,00 0,00 0,00 0,00 0,00 0,00 31/12/2020
293 954400 ANA CAROLINA BATISTA PEREIRA ESTAGIARIO PATOS DE MINAS; PATOS DE MINAS-PJ-01PJ 0,00 0,00 0,00 162,00 0,00 0,00 0,00 0,00 0,00 31/12/2020
294 653300 ANA CAROLINA CYRNE DINIZ ASSESSOR BELO HORIZONTE - COMARCA; CENTRAL DE APOIO TECNICO-SETOR CONTABIL 1.100,00 0,00 450,00 0,00 0,00 0,00 0,00 0,00 0,00 31/12/2020
295 1165800 ANA CAROLINA DA COSTA ESTAGIARIO SAO JOAO EVANGELISTA; SAO JOAO EVANGELISTA-PJ-UNPJ 0,00 0,00 0,00 162,00 0,00 0,00 0,00 0,00 0,00 31/12/2020
296 1076100 ANA CAROLINA DALDEGAN COUTINHO ESTAGIARIO BELO HORIZONTE; GABINETE DE PROCURADOR DE JUSTIÇA - SALA 804 0,00 0,00 0,00 9,00 0,00 0,00 0,00 0,00 0,00 31/12/2020
297 359400 ANA CAROLINA DE ABREU FARIA ASSESSOR BELO HORIZONTE - COMARCA; SUPERINTENDÊNCIA DE ENGENHARIA E ARQUITETURA 0,00 0,00 450,00 0,00 0,00 0,00 0,00 0,00 0,00 31/12/2020
298 408500 ANA CAROLINA DE CASTRO CARVALHO ANALISTA DO MP BARBACENA - COMARCA; BARBACENA - SECRETARIA DAS PJS CRIMINAIS 1.100,00 0,00 450,00 0,00 0,00 0,00 0,00 0,00 0,00 31/12/2020
299 1032200 ANA CAROLINA DE MEDEIROS CHAVES FERZEM TAVARES ESTAGIARIO BELO HORIZONTE; OUVIDORIA DO MPMG
300 688000 ANA CAROLINA DE OLIVEIRA PINTO ASSESSOR PROCURADOR JUSTICA BELO HORIZONTE - COMARCA; GABINETE DE PROCURADOR DE JUSTIÇA - SALA 1014 1.100,00 0,00 450,00 0,00 0,00 0,00 0,00 0,00 0,00 31/12/2020
301 598900 ANA CAROLINA DUARTE DA SILVA INVESTIGADOR DE POLICIA 2 BELO HORIZONTE - COMARCA; PROC JUST ESP ACOES COMP ORIG CRIMINAL-SEC 1.100,00 0,00 0,00 0,00 0,00 0,00 0,00 0,00 1.422,95 31/12/2020
302 420200 ANA CAROLINA FERNANDES SILVA ANALISTA DO MP BELO HORIZONTE - COMARCA; GABINETE DE PROCURADOR DE JUSTIÇA - SALA 704 1.100,00 0,00 450,00 0,00 0,00 0,00 0,00 0,00 0,00 31/12/2020
303 522100 ANA CAROLINA FERNANDINO VIDAL PEREIRA SANTOS OFICIAL DO MP BELO HORIZONTE - COMARCA; SECRETARIA DO PROCON-MG 1.100,00 0,00 450,00 0,00 4.898,38 0,00 0,00 0,00 449,02 31/12/2020
304 244700 ANA CAROLINA GARCIA COSTA PROMOT.ENTRANC.ESPECIAL BELO HORIZONTE - COMARCA; BH-23PJ INFRACIONAL-GAB 147PJ 1.100,00 0,00 2.686,32 0,00 15.721,58 0,00 0,00 0,00 0,00 31/12/2020
305 502400 ANA CAROLINA GONCALVES FERNANDES ANALISTA DO MP IPATINGA - COMARCA; IPATINGA-PJ-01PJ 1.100,00 769,39 450,00 0,00 0,00 0,00 0,00 0,00 0,00 31/12/2020
306 529900 ANA CAROLINA GONCALVES PECANHA CHEQUER ANALISTA DO MP MANHUAÇU - COMARCA; MANHUACU-PJ-04PJ 1.100,00 1.538,78 450,00 0,00 0,00 0,00 0,00 0,00 0,00 31/12/2020
307 1193100 ANA CAROLINA JANUARIO SILVA ESTAGIARIO BELO HORIZONTE; BH-18PJ VIOLENCIA DOMESTICA 0,00 0,00 0,00 72,00 0,00 0,00 0,00 0,00 0,00 31/12/2020
308 1106000 ANA CAROLINA LEITE CHAVES ESTAGIARIO BELO HORIZONTE; BH-18PJ DIREITOS HUMANOS-SECRETARIA
309 1207700 ANA CAROLINA LETAYF CAMPOS ESTAGIARIO JUIZ DE FORA; JUIZ DE FORA-PJ-25PJ 0,00 0,00 0,00 36,00 0,00 0,00 0,00 0,00 0,00 31/12/2020
310 957300 ANA CAROLINA MARTINS DA SILVA ESTAGIARIO UBERLANDIA; UBERLANDIA-PJ-18PJ 0,00 0,00 0,00 162,00 0,00 0,00 0,00 0,00 0,00 31/12/2020
311 1202400 ANA CAROLINA MARTINS DE ANDRADE ESTAGIARIO UBA; UBA-PJ-02PJ 0,00 0,00 0,00 27,00 0,00 0,00 0,00 0,00 0,00 31/12/2020
312 1137800 ANA CAROLINA MIRANDA DE MEIRELES MOUTINHO ESTAGIARIO SETE LAGOAS; SETE LAGOAS-PJ-05PJ 0,00 0,00 0,00 153,00 0,00 0,00 0,00 0,00 0,00 31/12/2020
313 431900 ANA CAROLINA MOTTA GUATIMOSIM ANALISTA DO MP BELO HORIZONTE - COMARCA; ASSESSORIA JURIDICO-ADMINISTRATIVA 1.100,00 769,39 450,00 0,00 0,00 0,00 0,00 0,00 0,00 31/12/2020
314 969900 ANA CAROLINA SILVA CAMPOS ESTAGIARIO 0,00 0,00 0,00 81,00 0,00 0,00 0,00 0,00 0,00 31/12/2020
315 1043500 ANA CAROLINA SILVEIRA PASSOS ESTAGIARIO DIAMANTINA; COORD REG BACIAS RIOS JEQUITINHONHA E MUCURI 0,00 0,00 0,00 108,00 0,00 0,00 0,00 0,00 0,00 31/12/2020
316 1111200 ANA CAROLINA SOARES CUNHA ESTAGIARIO SETE LAGOAS; SETE LAGOAS-PJ-09PJ 0,00 0,00 0,00 117,00 181,00 0,00 0,00 0,00 0,00 31/12/2020
317 490600 ANA CAROLINA XAVIER GODOY ANALISTA DO MP BELO HORIZONTE - COMARCA; GABINETE DE PROCURADOR DE JUSTIÇA - SALA 1006 1.100,00 1.538,78 450,00 0,00 0,00 0,00 0,00 0,00 0,00 31/12/2020
318 313700 ANA CAROLINA ZAMBOM PINTO COELHO PROMOTOR 2A ENTRANCIA SABARÁ - COMARCA; SABARA-PJ-01PJ 1.100,00 0,00 1.279,20 0,00 5.334,11 0,00 0,00 0,00 0,00 31/12/2020
319 1188000 ANA CAROLINE DA CRUZ SILVA ESTAGIARIO CURVELO; CURVELO-PJ-04PJ 0,00 0,00 0,00 162,00 0,00 0,00 0,00 0,00 0,00 31/12/2020
320 1120600 ANA CAROLINE DE CASSIA COSTA ESTAGIARIO JOAO MONLEVADE; JOAO MONLEVADE-PJ-03PJ 0,00 0,00 0,00 162,00 301,67 0,00 0,00 0,00 0,00 31/12/2020
321 1142100 ANA CAROLINE FERRAZ CHAIB ESTAGIARIO CONCEICAO DO RIO VERDE; CONCEICAO DO RIO VERDE-PJ-UNPJ 0,00 0,00 0,00 135,00 0,00 0,00 0,00 0,00 0,00 31/12/2020
322 1074500 ANA CAROLINE MONTEIRO DE BARROS ESTAGIARIO IPATINGA; IPATINGA-PJ-10PJ 0,00 0,00 0,00 117,00 0,00 0,00 0,00 0,00 0,00 31/12/2020
323 1206100 ANA CAROLINE OLIVEIRA PEREIRA ESTAGIARIO BELO HORIZONTE; BH-21PJ TUTELA FUNDACOES-SECRETARIA 0,00 0,00 0,00 90,00 0,00 0,00 0,00 0,00 0,00 31/12/2020
324 600300 ANA CAROLINE PEREIRA DINIZ ANALISTA DO MP BELO HORIZONTE - COMARCA; PROC JUST ESP ACOES COMP ORIG CRIMINAL-SEC 1.100,00 769,39 450,00 0,00 0,00 0,00 0,00 0,00 0,00 31/12/2020
325 615800 ANA CAROLINE PEREIRA OLIVEIRA OFICIAL DO MP ALFENAS - COMARCA; ALFENAS-PJ-06PJ 1.100,00 0,00 450,00 0,00 0,00 0,00 0,00 0,00 0,00 31/12/2020
326 1209600 ANA CAROLINE RODRIGUES DOS SANTOS ESTAGIARIO
327 229202 ANA CECILIA JUNQUEIRA GOUVEA PROMOT.ENTRANC.ESPECIAL RIBEIRÃO DAS NEVES - COMARCA; RIBEIRAO DAS NEVES-PJ-08PJ 1.100,00 0,00 2.025,40 0,00 5.614,85 0,00 0,00 0,00 0,00 31/12/2020
328 980200 ANA CECILIA MACHADO FELIPE ESTAGIARIO GOVERNADOR VALADARES; GOVERNADOR VALADARES-PJ-02PJ
329 324800 ANA CECILIA MENDES DA SILVA OFICIAL DO MP OURO FINO - COMARCA; OURO FINO-PJ-01PJ 1.100,00 0,00 450,00 0,00 0,00 0,00 0,00 0,00 0,00 31/12/2020
330 1162800 ANA CLARA BARBI LIMA ESTAGIARIO BELO HORIZONTE; PROC. JUSTICA CRIMINAL 0,00 0,00 0,00 63,00 0,00 0,00 0,00 0,00 0,00 31/12/2020
331 1178000 ANA CLARA CORDEIRO DUARTE NUNES ESTAGIARIO NOVA LIMA; NOVA LIMA-PJ-04PJ 0,00 0,00 0,00 117,00 0,00 0,00 0,00 0,00 0,00 31/12/2020
332 1092000 ANA CLARA DE SOUZA ESTAGIARIO BELO HORIZONTE; PROC. JUSTICA CIVEL
333 1154400 ANA CLARA DE SOUZA II ESTAGIARIO ARAXA; ARAXA-PJ-03PJ 0,00 0,00 0,00 99,00 0,00 0,00 0,00 0,00 0,00 31/12/2020
334 1210000 ANA CLARA GUIMARAES ROSA ESTAGIARIO IGARAPE; IGARAPE-PJ-03PJ 0,00 0,00 0,00 72,00 0,00 0,00 0,00 0,00 0,00 31/12/2020
335 1165900 ANA CLARA PORTO REIS ESTAGIARIO PATROCINIO; PATROCINIO-PJ-01PJ 0,00 0,00 0,00 117,00 0,00 0,00 0,00 0,00 0,00 31/12/2020
336 1199400 ANA CLARA RIBEIRO GONCALVES ESTAGIARIO BELO HORIZONTE; ASSESSORIA DE COMUNICACAO INTEGRADA 0,00 0,00 0,00 126,00 0,00 0,00 0,00 0,00 0,00 31/12/2020
337 1062800 ANA CLARA SANTOS ALMEIDA ESTAGIARIO SABINOPOLIS; SABINOPOLIS-PJ-UNPJ 0,00 0,00 0,00 36,00 562,33 0,00 0,00 0,00 0,00 31/12/2020
338 698700 ANA CLARA SANTOS ALMEIDA ASSESSOR PROMOTOR JUSTICA SABINÓPOLIS - COMARCA 1.000,00 0,00 450,00 0,00 0,00 0,00 0,00 0,00 0,00 31/12/2020
339 441300 ANA CLAUDIA ALKIMIM MIRANDA BOMTEMPO ANALISTA DO MP MONTES CLAROS - COMARCA; MONTES CLAROS-PJ-11PJ 1.100,00 0,00 450,00 0,00 3.629,17 0,00 0,00 0,00 332,67 31/12/2020
340 1068500 ANA CLAUDIA ALVES MACHADO ESTAGIARIO ITAUNA; ITAUNA-PJ-01PJ 0,00 0,00 0,00 90,00 0,00 0,00 0,00 0,00 0,00 31/12/2020
341 1156600 ANA CLAUDIA ALVIM SANTOS BERTOLI ESTAGIARIO JANAUBA; JANAUBA-PJ-01PJ 0,00 0,00 0,00 126,00 0,00 0,00 0,00 0,00 0,00 31/12/2020
342 642500 ANA CLAUDIA DA COSTA NAVES OFICIAL DO MP MONTE CARMELO - COMARCA; MONTE CARMELO-PJ-02PJ 1.100,00 769,39 450,00 0,00 0,00 0,00 0,00 0,00 0,00 31/12/2020
343 1149600 ANA CLAUDIA DE ALMEIDA FERREIRA ESTAGIARIO POCO FUNDO; POCO FUNDO-PJ-UNPJ 0,00 0,00 0,00 162,00 0,00 0,00 0,00 0,00 0,00 31/12/2020
344 1028100 ANA CLAUDIA FERNANDES MENDES ESTAGIARIO BRUMADINHO; BRUMADINHO-PJ-02PJ 0,00 0,00 0,00 162,00 0,00 0,00 0,00 0,00 0,00 31/12/2020
345 1166700 ANA CLAUDIA FERREIRA DA SILVA ESTAGIARIO BELO HORIZONTE; BH-16PJ HABITACAO URBANISMO-GAB 117PJ 0,00 0,00 0,00 54,00 0,00 0,00 0,00 0,00 0,00 31/12/2020
346 1110600 ANA CLAUDIA JUSTINO SILVA ESTAGIARIO IBIRITE; IBIRITE-PJ-02PJ 0,00 0,00 0,00 198,00 0,00 0,00 0,00 0,00 0,00 31/12/2020
347 341500 ANA CLAUDIA LOPES PROMOT.ENTRANC.ESPECIAL BELO HORIZONTE - COMARCA; BH-07PJ 01 TRIBUNAL DO JURI-GAB 077PJ 1.100,00 0,00 895,44 0,00 6.737,82 0,00 0,00 0,00 0,00 31/12/2020
348 604900 ANA CLAUDIA OLIVEIRA DE MIRANDA OFICIAL DO MP PONTE NOVA - COMARCA; PONTE NOVA-PJ-04PJ 1.100,00 0,00 450,00 0,00 0,00 0,00 0,00 0,00 0,00 31/12/2020
349 1131000 ANA CLAUDIA OLIVEIRA PEREIRA ESTAGIARIO BELO HORIZONTE; PROMOT ESTADUAL DE DEF PATRI CULT E TUR DE MG 0,00 0,00 0,00 18,00 0,00 0,00 0,00 0,00 0,00 31/12/2020
350 1085500 ANA CLERIA DE OLIVEIRA SOUZA ESTAGIARIO GOVERNADOR VALADARES; GOVERNADOR VALADARES-PJ-13PJ 0,00 0,00 0,00 162,00 0,00 0,00 0,00 0,00 0,00 31/12/2020
351 379300 ANA CRISTINA ALVES FLAVIO ANALISTA DO MP SÃO GOTARDO - COMARCA; SAO GOTARDO-PJ-01PJ 1.100,00 769,39 450,00 0,00 0,00 0,00 0,00 0,00 0,00 31/12/2020
352 461200 ANA CRISTINA ALVES PASCHOAL ANALISTA DO MP SANTA LUZIA - COMARCA; SANTA LUZIA-PJ-03PJ 1.100,00 0,00 450,00 0,00 0,00 0,00 0,00 0,00 0,00 31/12/2020
353 514100 ANA CRISTINA ARAUJO ASSUNCAO ANALISTA DO MP BELO HORIZONTE - COMARCA; ASSESS JUR DO CONS SUPERIOR DO MINISTERIO PUB 1.100,00 769,39 450,00 0,00 0,00 0,00 0,00 0,00 0,00 31/12/2020
354 113400 ANA CRISTINA BRAGA ALBUQUERQUE ASSESSOR/ANALISTA BELO HORIZONTE - COMARCA; ASSESS ESP ADM E FINANCEIRA DO PGJ ADJ ADM 1.100,00 0,00 450,00 0,00 0,00 0,00 0,00 0,00 0,00 31/12/2020
355 233800 ANA CRISTINA BRAGA SOARES OFICIAL DO MP CONTAGEM - COMARCA; CONTAGEM-PJ-SECRETARIA 1.100,00 0,00 450,00 0,00 0,00 0,00 0,00 0,00 0,00 31/12/2020
356 186400 ANA CRISTINA DE AZEVEDO LOPES OFICIAL DO MP UBÁ - COMARCA; UBA-PJ-01PJ 1.100,00 0,00 450,00 0,00 0,00 0,00 0,00 0,00 0,00 31/12/2020
357 693000 ANA CRISTINA DE MELO SILVEIRA ASSESSOR PROCURADOR JUSTICA BELO HORIZONTE - COMARCA; GABINETE DE PROCURADOR DE JUSTIÇA - SALA 507 1.100,00 1.410,55 450,00 0,00 0,00 0,00 0,00 0,00 0,00 31/12/2020
358 465100 ANA CRISTINA DE OLIVEIRA GUIMARAES ANALISTA DO MP ITAJUBA - COMARCA; ITAJUBA-PJ-05PJ 1.100,00 1.538,78 450,00 0,00 0,00 0,00 0,00 0,00 0,00 31/12/2020
359 1121200 ANA CRISTINA HENRIQUES ALVES ESTAGIARIO IGARAPE; IGARAPE-PJ-03PJ 0,00 0,00 0,00 153,00 0,00 0,00 0,00 0,00 0,00 31/12/2020
360 500600 ANA CRISTINA LATADO SUDARIO ANALISTA DO MP UBERLÂNDIA - COMARCA; UBERLANDIA-PJ-09PJ 1.100,00 0,00 450,00 0,00 0,00 0,00 0,00 0,00 0,00 31/12/2020
361 331400 ANA CRISTINA RIBEIRO ALVES OFICIAL DO MP BAMBUÍ - COMARCA; BAMBUI-PJ-UNPJ 1.100,00 0,00 450,00 0,00 0,00 0,00 0,00 0,00 0,00 31/12/2020
362 1021500 ANA CRISTINA SILVEIRA BATISTA ESTAGIARIO CONTAGEM; CONTAGEM-PJ-23PJ
363 249300 ANA ELOINA MARTINS OFICIAL DO MP BETIM - COMARCA; BETIM-PJ-02PJ 1.100,00 0,00 450,00 0,00 0,00 0,00 0,00 0,00 0,00 31/12/2020
364 611500 ANA FLAVIA AFONSO DRUMOND AMORIM PROMOTOR 2A ENTRANCIA PIRAPORA - COMARCA; PIRAPORA-PJ-02PJ 1.100,00 0,00 0,00 0,00 10.668,22 0,00 0,00 0,00 488,96 31/12/2020
365 257400 ANA FLAVIA CAMBRAIA ANALISTA DO MP BELO HORIZONTE - COMARCA; BH-19PJ SAUDE-SECRETARIA 150PJ 1.100,00 0,00 450,00 0,00 0,00 0,00 0,00 0,00 0,00 31/12/2020
366 1066000 ANA FLAVIA CARDOSO DE ABREU ESTAGIARIO BELO HORIZONTE; CENTRAL DE APOIO TECNICO-SETOR CONTABIL
367 248201 ANA FLAVIA DE MORAIS SOUZA ANALISTA DO MP DIVINÓPOLIS - COMARCA; DIVINOPOLIS-PJ-01PJ 1.100,00 769,39 450,00 0,00 0,00 0,00 0,00 0,00 0,00 31/12/2020
368 621100 ANA FLAVIA DINIZ TEODORO OFICIAL DO MP SANTA LUZIA - COMARCA; SANTA LUZIA-PJ-06PJ 1.100,00 0,00 450,00 0,00 0,00 0,00 0,00 0,00 0,00 31/12/2020
369 1137900 ANA FLAVIA FIGUEIREDO SALOMAO ESTAGIARIO TEOFILO OTONI; TEOFILO OTONI-PJ-08PJ 0,00 0,00 0,00 153,00 0,00 0,00 0,00 0,00 0,00 31/12/2020
370 238600 ANA FLAVIA FRANCO OFICIAL DO MP BELO HORIZONTE - COMARCA; DIRETORIA DE PESSOAL ADMINISTRATIVO - DPAD 1.100,00 0,00 450,00 0,00 0,00 0,00 0,00 0,00 0,00 31/12/2020
371 1123700 ANA FLAVIA GRACIELE GUIMARAES PAIVA ESTAGIARIO SANTA LUZIA; SANTA LUZIA-PJ-01PJ 0,00 0,00 0,00 108,00 0,00 0,00 0,00 0,00 0,00 31/12/2020
372 690000 ANA FLAVIA LURIAN DE PAIVA ASSESSOR PROCURADOR JUSTICA BELO HORIZONTE - COMARCA; GABINETE DE PROCURADOR DE JUSTIÇA - SALA 609 1.100,00 0,00 450,00 0,00 0,00 0,00 0,00 0,00 0,00 31/12/2020
373 1032100 ANA FLAVIA PEREIRA ESTAGIARIO BELO HORIZONTE; PROC JUST RECURSOS ESP E EXTRAORD CRIMINAIS 0,00 0,00 0,00 72,00 0,00 0,00 0,00 0,00 0,00 31/12/2020
374 402900 ANA FLAVIA PORTES DE CARVALHO ANALISTA DO MP BELO HORIZONTE - COMARCA; DIRET DE PLANOS PROJETOS E PROGRAMAS INST 1.100,00 0,00 450,00 0,00 0,00 0,00 0,00 0,00 0,00 31/12/2020
375 1023800 ANA FLAVIA RIBEIRO PEREIRA ESTAGIARIO CURVELO; CURVELO-PJ-02PJ 0,00 0,00 0,00 81,00 60,33 0,00 0,00 0,00 0,00 31/12/2020
376 1070200 ANA FLAVIA VALLADAO FERREIRA ESTAGIARIO BELO HORIZONTE; PROCURADORIA DE JUSTIÇA DE DIREITOS DIFUSOS E
377 526300 ANA GABRIELA BRITO MELO ROCHA PROMOTOR 2A ENTRANCIA TRÊS PONTAS - COMARCA; TRES PONTAS-PJ-03PJ 1.100,00 0,00 1.492,40 0,00 5.334,11 0,00 0,00 0,00 0,00 31/12/2020
378 1195300 ANA HELOISA MARQUES OLIVEIRA CARNEIRO ESTAGIARIO BELO HORIZONTE; BH-18PJ DIREITOS HUMANOS-GAB 125PJ 0,00 0,00 0,00 72,00 0,00 0,00 0,00 0,00 0,00 31/12/2020
379 1172400 ANA JULIA DE VILHENA ESTAGIARIO IBIRACI; IBIRACI-PJ-UNPJ 0,00 0,00 0,00 153,00 0,00 0,00 0,00 0,00 0,00 31/12/2020
380 1135300 ANA JULIA DIXINI CARVALHO ESTAGIARIO TRES PONTAS; TRES PONTAS-PJ-03PJ 0,00 0,00 0,00 99,00 0,00 0,00 0,00 0,00 0,00 31/12/2020
381 382700 ANA KARENINA SALDANHA GONTIJO ANALISTA DO MP BELO HORIZONTE - COMARCA; ASSESS TECNICO-JUR JUNTO AS PROC. DE JUST 1.100,00 769,39 450,00 0,00 0,00 0,00 0,00 0,00 0,00 31/12/2020
382 620500 ANA KARINE DE ANDRADE OLIVEIRA ANALISTA DO MP RIBEIRÃO DAS NEVES - COMARCA; SEC PJ EXECUCAO PENAL RIBEIRAO NEVES 1.100,00 0,00 450,00 0,00 0,00 0,00 0,00 0,00 0,00 31/12/2020
383 1208400 ANA KAROLINE ARAUJO DA SILVA ESTAGIARIO SANTA LUZIA; SANTA LUZIA-PJ-07PJ 0,00 0,00 0,00 72,00 0,00 0,00 0,00 0,00 0,00 31/12/2020
384 1088800 ANA KAROLINE DOS SANTOS ESTAGIARIO JANAUBA; JANAUBA-PJ-03PJ 0,00 0,00 0,00 144,00 543,00 0,00 0,00 0,00 0,00 31/12/2020
385 952400 ANA LARA PEREIRA DAMACENO ESTAGIARIO 0,00 0,00 0,00 153,00 844,67 0,00 0,00 0,00 0,00 31/12/2020
386 1103900 ANA LAURA DE FARIA LIMA ESTAGIARIO PARA DE MINAS; PARA DE MINAS-PJ-04PJ 0,00 0,00 0,00 162,00 0,00 0,00 0,00 0,00 0,00 31/12/2020
387 970300 ANA LAURA DRUMOND ESTAGIARIO BELO HORIZONTE; PROC. JUSTICA DIR. DIFUSOS E COLETIVOS 0,00 0,00 0,00 9,00 0,00 0,00 0,00 0,00 0,00 31/12/2020
388 1055000 ANA LAURA FREITAS MARTINS ESTAGIARIO SETE LAGOAS; SETE LAGOAS-PJ-01PJ 0,00 0,00 0,00 63,00 0,00 0,00 0,00 0,00 0,00 31/12/2020
389 994400 ANA LAURA NEVES CERQUEIRA ESTAGIARIO BELO HORIZONTE; BH-12PJ JUIZO CRIMINAL-GAB 108PJ 0,00 0,00 0,00 99,00 0,00 0,00 0,00 0,00 0,00 31/12/2020
390 1174700 ANA LAURA PEREIRA DIAS ESTAGIARIO DIAMANTINA; DIAMANTINA-PJ-01PJ 0,00 0,00 0,00 126,00 0,00 0,00 0,00 0,00 0,00 31/12/2020
391 57400 ANA LEIA SALOMAO E RIBEIRO PROMOT.ENTRANC.ESPECIAL JUIZ DE FORA - COMARCA; JUIZ DE FORA-PJ-02PJ 1.100,00 0,00 1.279,20 0,00 11.229,70 0,00 0,00 0,00 514,69 31/12/2020
392 224300 ANA LETICIA MARTINS DE SOUZA PROMOT.ENTRANC.ESPECIAL CONTAGEM - COMARCA; CONTAGEM-PJ-13PJ 1.100,00 0,00 0,00 0,00 0,00 0,00 0,00 0,00 0,00 31/12/2020
393 1034000 ANA LIVIA DE FREITAS SILVA ESTAGIARIO PARAOPEBA; PARAOPEBA-PJ-UNPJ 0,00 0,00 0,00 162,00 0,00 0,00 0,00 0,00 0,00 31/12/2020
394 1174300 ANA LIVIA GOMES VIEIRA ESTAGIARIO BELO HORIZONTE; BH-23PJ CIVEL 0,00 0,00 0,00 54,00 0,00 0,00 0,00 0,00 0,00 31/12/2020
395 462200 ANA LUCIA ANDRADE TOMICH OTTONI ANALISTA DO MP TEÓFILO OTONI - COMARCA; TEOFILO OTONI-PJ-07PJ 1.100,00 0,00 450,00 0,00 0,00 0,00 0,00 0,00 0,00 31/12/2020
396 504100 ANA LUCIA CATAO DE CARVALHO OFICIAL DO MP BELO HORIZONTE - COMARCA; BH-09PJ AUDITORIA MILITAR-SECRETARIA 1.100,00 769,39 450,00 0,00 0,00 0,00 0,00 0,00 0,00 31/12/2020
397 274700 ANA LUCIA DE ALENCAR BRAGATO OFICIAL DO MP UBERABA - COMARCA; UBERABA-PJ-07PJ 1.100,00 0,00 450,00 0,00 0,00 0,00 0,00 0,00 0,00 31/12/2020
398 509400 ANA LUCIA DORNELAS MALLOSTO ANALISTA DO MP JUIZ DE FORA - COMARCA; JUIZ DE FORA-PJ-25PJ 1.100,00 0,00 450,00 0,00 0,00 0,00 0,00 0,00 0,00 31/12/2020
399 114600 ANA LUCIA JUNQUEIRA MUZZI CAVALIERI PROMOT.ENTRANC.ESPECIAL JUIZ DE FORA - COMARCA; JUIZ DE FORA-PJ-12PJ 1.100,00 0,00 2.686,32 0,00 5.614,85 0,00 0,00 0,00 -57,19 31/12/2020
400 302600 ANA LUCIA LOPES SANTOS OFICIAL DO MP BELO HORIZONTE - COMARCA; DIVISÃO DE FISCALIZAÇÃO DAS RELAÇÕES DE CONSU 1.100,00 0,00 450,00 0,00 0,00 0,00 1.445,27 0,00 0,00 31/12/2020
401 666200 ANA LUCIA SAYURI WATANABE PROMOTOR SUBSTITUTO SANTA RITA DO SAPUCAÍ - COMARCA; SANTA RITA DO SAPUCAI-PJ-01PJ 1.100,00 0,00 1.407,12 0,00 0,00 0,00 0,00 0,00 0,00 31/12/2020
402 1030200 ANA LUISA ARAUJO MORAIS ESTAGIARIO CAMPO BELO; CAMPO BELO-PJ-03PJ 0,00 0,00 0,00 90,00 0,00 0,00 0,00 0,00 0,00 31/12/2020
403 1103200 ANA LUISA DE LANA COELHO ESTAGIARIO BELO HORIZONTE; GABINETE DE PROCURADOR DE JUSTIÇA - SALA 715
404 493400 ANA LUISA NOGUEIRA MOREIRA ANALISTA DO MP BELO HORIZONTE - COMARCA; BH-19PJ SAUDE-SECRETARIA 130PJ 1.100,00 0,00 450,00 0,00 0,00 0,00 0,00 0,00 0,00 31/12/2020
405 389300 ANA LUISA REUTER LIMA ANALISTA DO MP BELO HORIZONTE - COMARCA; DIRETORIA DE SISTEMAS DE INFORMACAO 1.100,00 0,00 450,00 0,00 0,00 0,00 0,00 0,00 0,00 31/12/2020
406 1112300 ANA LUISA RODRIGUES DUARTE ESTAGIARIO BELO HORIZONTE; EXTINTA-COORD EST DEF DIR FAM PES DEFIC IDOSO 0,00 0,00 0,00 63,00 0,00 0,00 0,00 0,00 0,00 31/12/2020
407 1141900 ANA LUISA SOUSA GUIMARAES ESTAGIARIO UBERABA; UBERABA-PJ-10PJ 0,00 0,00 0,00 144,00 0,00 0,00 0,00 0,00 0,00 31/12/2020
408 1197700 ANA LUIZA AGUILAR DE REZENDE ESTAGIARIO RIBEIRAO DAS NEVES; RIBEIRAO NEVES-SEC PJ EXECUCAO PENAL 0,00 0,00 0,00 153,00 0,00 0,00 0,00 0,00 0,00 31/12/2020
409 1089000 ANA LUIZA ALESSI FERREIRA DE CARVALHO ESTAGIARIO BELO HORIZONTE; PROC. JUSTICA CRIMINAL 0,00 0,00 0,00 108,00 0,00 0,00 0,00 0,00 0,00 31/12/2020
410 947900 ANA LUIZA BRANDAO DE AGUIAR VILACA ESTAGIARIO DIVINOPOLIS; COORD REG DO MA DA BACIA DO ALTO SAO FRANC 0,00 0,00 0,00 54,00 0,00 0,00 0,00 0,00 0,00 31/12/2020
411 441100 ANA LUIZA DA COSTA E CRUZ PROMOTOR SUBSTITUTO BETIM - COMARCA; BETIM-PJ-04PJ 1.100,00 0,00 1.975,44 0,00 5.067,40 0,00 0,00 0,00 0,00 31/12/2020
412 161000 ANA LUIZA DE ABREU MOREIRA PROMOT.ENTRANC.ESPECIAL BELO HORIZONTE - COMARCA; BH-03PJ EMPRESARIAL-GAB 037PJ 1.100,00 0,00 2.579,72 0,00 5.614,85 0,00 0,00 0,00 0,00 31/12/2020
413 1108900 ANA LUIZA DE OLIVEIRA REIS ESTAGIARIO SABARA; SABARA-PJ-03PJ 0,00 0,00 0,00 162,00 60,33 0,00 0,00 0,00 0,00 31/12/2020
414 480600 ANA LUIZA FERNANDES FRAGA E GRECO OFICIAL DO MP BELO HORIZONTE - COMARCA; BH-23PJ CIVEL-SEC EXP CIVEIS 1.100,00 0,00 450,00 0,00 0,00 0,00 0,00 0,00 0,00 31/12/2020
415 1133300 ANA LUIZA FERREIRA VAZ ESTAGIARIO DIVINOPOLIS; DIVINOPOLIS-PJ-12PJ 0,00 0,00 0,00 27,00 0,00 0,00 0,00 0,00 0,00 31/12/2020
416 1154800 ANA LUIZA GIORNI NOCCHI ESTAGIARIO BELO HORIZONTE; PROC. JUSTICA CIVEL 0,00 0,00 0,00 18,00 0,00 0,00 0,00 0,00 0,00 31/12/2020
417 685400 ANA LUIZA HENRIQUES BERGER MACHADO PROMOTOR SUBSTITUTO JACINTO - COMARCA; JACINTO-PJ-UNPJ 1.100,00 0,00 703,56 0,00 0,00 0,00 0,00 0,00 0,00 31/12/2020
418 996700 ANA LUIZA MELO MACIEL ESTAGIARIO BELO HORIZONTE; BH-07PJ 01 TRIBUNAL DO JURI-GAB 059PJ
419 1000700 ANA LUIZA MOREIRA ABREU ESTAGIARIO BELO HORIZONTE; BH-12PJ JUIZO CRIMINAL-GAB 087PJ 0,00 0,00 0,00 117,00 0,00 0,00 0,00 0,00 0,00 31/12/2020
420 1145200 ANA LUIZA SILVA FIDELIS ESTAGIARIO VISCONDE DO RIO BRANCO; VISCONDE DO RIO BRANCO-PJ-02PJ 0,00 0,00 0,00 81,00 0,00 0,00 0,00 0,00 0,00 31/12/2020
421 1055200 ANA LUIZA SILVA PEREIRA CRUZ ESTAGIARIO 0,00 0,00 0,00 144,00 0,00 0,00 0,00 0,00 0,00 31/12/2020
422 1021000 ANA LUIZA SILVA SANTIAGO ESTAGIARIO BELO HORIZONTE; CAO-CRIMINAL-GABINETES 0,00 0,00 0,00 45,00 0,00 0,00 0,00 0,00 0,00 31/12/2020
423 1171500 ANA LUIZA TEIXEIRA CUNHA ESTAGIARIO ITAPAGIPE; ITAPAGIPE-PJ-UNPJ 0,00 0,00 0,00 162,00 0,00 0,00 0,00 0,00 0,00 31/12/2020
424 481400 ANA MARCIA CANDIDA FERREIRA OFICIAL DO MP BRUMADINHO - COMARCA; BRUMADINHO-PJ-02PJ 1.100,00 0,00 450,00 0,00 0,00 0,00 0,00 0,00 0,00 31/12/2020
425 114700 ANA MARIA CAMILO DA HORA E ROCHA PROMOT.ENTRANC.ESPECIAL MONTES CLAROS - COMARCA; MONTES CLAROS-PJ-05PJ 1.100,00 0,00 3.368,91 0,00 5.614,85 0,00 0,00 0,00 0,00 31/12/2020
426 643100 ANA MARIA LOPES MIRANDA ANALISTA DO MP BELO HORIZONTE - COMARCA; CAO-FUNDACOES 1.100,00 0,00 450,00 0,00 0,00 0,00 0,00 0,00 0,00 31/12/2020
427 556400 ANA MARIA OLIVEIRA SOUZA OFICIAL DO MP ITAPECERICA - COMARCA; ITAPECERICA-PJ-UNPJ 1.100,00 0,00 450,00 0,00 0,00 0,00 0,00 0,00 0,00 31/12/2020
428 409600 ANA OLIVIA FARIA ROSENBURG ANALISTA DO MP BELO HORIZONTE - COMARCA; DIRETORIA DO COLEGIO E DA CAMARA DE PJ 1.100,00 0,00 450,00 0,00 0,00 0,00 0,00 0,00 0,00 31/12/2020
429 461500 ANA PAULA ALVES CARVALHO ANALISTA DO MP UBERLÂNDIA - COMARCA; UBERLANDIA-PJ-25PJ 1.100,00 769,39 450,00 0,00 0,00 0,00 0,00 0,00 0,00 31/12/2020
430 523200 ANA PAULA ALVES DA SILVA OFICIAL DO MP GOVERNADOR VALADARES - COMARCA; GOVERNADOR VALADARES-PJ-10PJ 1.100,00 3.076,47 450,00 0,00 0,00 0,00 0,00 0,00 0,00 31/12/2020
431 381200 ANA PAULA BARROS PEREIRA RIGHI ANALISTA DO MP BELO HORIZONTE - COMARCA; PROC JUST RECURSOS ESP E EXTRAORD CRIMINAIS 1.100,00 769,39 450,00 0,00 0,00 0,00 0,00 0,00 0,00 31/12/2020
432 1081000 ANA PAULA BORGES MOREIRA ESTAGIARIO POUSO ALEGRE; POUSO ALEGRE-PJ-05PJ 0,00 0,00 0,00 81,00 0,00 0,00 0,00 0,00 0,00 31/12/2020
433 942700 ANA PAULA BORGES SANTOS ESTAGIARIO ITAUNA; ITAUNA-PJ-03PJ 0,00 0,00 0,00 108,00 0,00 0,00 0,00 0,00 0,00 31/12/2020
434 696400 ANA PAULA CARVALHO SILVA ASSESSOR PROMOTOR JUSTICA LAVRAS - COMARCA; LAVRAS-PJ-SECRETARIA 1.000,00 0,00 450,00 0,00 0,00 0,00 0,00 0,00 0,00 31/12/2020
435 227200 ANA PAULA DA SILVA CAMPOLINA ANALISTA DO MP BELO HORIZONTE - COMARCA; DIRETORIA DE ORCAMENTO-DIOR/SPC 1.100,00 0,00 450,00 0,00 0,00 0,00 0,00 0,00 0,00 31/12/2020
436 1114000 ANA PAULA DE OLIVEIRA SANTOS ESTAGIARIO ARAGUARI; ARAGUARI-PJ-07PJ 0,00 0,00 0,00 81,00 0,00 0,00 0,00 0,00 0,00 31/12/2020
437 84200 ANA PAULA DE SOUZA ROCHA OFICIAL DO MP BELO HORIZONTE - COMARCA; DIRETORIA DE CONTABILIDADE 1.100,00 0,00 450,00 0,00 0,00 0,00 0,00 0,00 0,00 31/12/2020
438 278500 ANA PAULA DIAS CAPANEMA OFICIAL DO MP BELO HORIZONTE - COMARCA; DIRETORIA DE SEGURANCA 1.100,00 0,00 450,00 0,00 0,00 0,00 0,00 0,00 0,00 31/12/2020
439 1158900 ANA PAULA FONSECA ANDRADE ESTAGIARIO BELO HORIZONTE; CENTRAL DE APOIO TECNICO-SETOR DE ENGENHARIA
440 327300 ANA PAULA GARCIA MAXIMO OFICIAL DO MP UNAÍ - COMARCA; UNAI-PJ-01PJ 1.100,00 0,00 450,00 0,00 0,00 0,00 0,00 0,00 0,00 31/12/2020
441 1027400 ANA PAULA GOMES MIRANDA ESTAGIARIO BELO HORIZONTE; BH-12PJ JUIZO CRIMINAL-GAB 092PJ 0,00 0,00 0,00 162,00 603,33 0,00 0,00 0,00 0,00 31/12/2020
442 270000 ANA PAULA GOULART CRUZ DE MAGALHAES ANALISTA DO MP BELO HORIZONTE - COMARCA; PROC JUST ESP ACOES COMP ORIG CRIMINAL-ASSESS 1.100,00 0,00 450,00 0,00 0,00 0,00 0,00 0,00 0,00 31/12/2020
443 262100 ANA PAULA KOMATSUZAKI ABIJAUDI ANALISTA DO MP BELO HORIZONTE - COMARCA; BH-17PJ PATRIMONIO PUBLICO-SECRETARIA 1.100,00 0,00 450,00 0,00 0,00 0,00 0,00 0,00 0,00 31/12/2020
444 1079700 ANA PAULA LEITE MOREIRA ESTAGIARIO MANHUACU; MANHUACU-PJ-04PJ 0,00 0,00 0,00 162,00 0,00 0,00 0,00 0,00 0,00 31/12/2020
445 671400 ANA PAULA LIMA DA SILVA PROMOTOR 1A ENTRANCIA RIO CASCA - COMARCA; RIO CASCA-PJ-UNPJ 1.100,00 0,00 1.167,56 0,00 10.134,80 0,00 0,00 0,00 0,00 31/12/2020
446 222600 ANA PAULA LOURENCO DE PAULA PROMOTOR 2A ENTRANCIA ITUIUTABA - COMARCA; ITUIUTABA-PJ-03PJ 1.100,00 0,00 3.200,47 0,00 5.334,11 0,00 0,00 0,00 0,00 31/12/2020
447 106200 ANA PAULA MENDES RODRIGUES PROCURADOR DE JUSTICA BELO HORIZONTE - COMARCA; PROC JUSTICA DIR DIFUSOS E COLETIVOS-GAB007 1.100,00 0,00 980,72 0,00 0,00 0,00 0,00 0,00 0,00 31/12/2020
448 1065000 ANA PAULA MINARINI DA SILVA ESTAGIARIO CATAGUASES; CATAGUASES-PJ-01PJ 0,00 0,00 0,00 63,00 0,00 0,00 0,00 0,00 0,00 31/12/2020
449 278900 ANA PAULA MOREIRA GURGEL ANALISTA DO MP BELO HORIZONTE - COMARCA; DIRETORIA-GERAL 1.100,00 0,00 450,00 0,00 0,00 0,00 0,00 0,00 0,00 31/12/2020
450 1082100 ANA PAULA NOBRE PEREIRA ESTAGIARIO 0,00 0,00 0,00 162,00 0,00 0,00 0,00 0,00 0,00 31/12/2020
451 940200 ANA PAULA PACHECO DA SILVA ARAUJO ESTAGIARIO BELO HORIZONTE; BH-12PJ JUIZO CRIMINAL-GAB 102PJ 0,00 0,00 0,00 117,00 60,33 0,00 0,00 0,00 0,00 31/12/2020
452 1185200 ANA PAULA QUINTELA PENA LOPES ESTAGIARIO CARATINGA; CARATINGA-PJ-07PJ 0,00 0,00 0,00 153,00 0,00 0,00 0,00 0,00 0,00 31/12/2020
453 484400 ANA PAULA RESENDE DORNELLAS DE AZEVEDO PROMOTOR SUBSTITUTO RIBEIRÃO DAS NEVES - COMARCA; RIBEIRAO DAS NEVES-PJ-06PJ 1.100,00 0,00 1.599,00 0,00 5.067,40 0,00 0,00 0,00 0,00 31/12/2020
454 425701 ANA PAULA ROCHA ANALISTA DO MP BELO HORIZONTE - COMARCA; ASSESSORIA DE COMUNICACAO INTEGRADA 1.100,00 769,39 450,00 0,00 0,00 0,00 0,00 0,00 0,00 31/12/2020
455 692700 ANA PAULA RODRIGUES GOMES GONCALVES ASSESSOR PROCURADOR JUSTICA BELO HORIZONTE - COMARCA; GABINETE DE PROCURADOR DE JUSTIÇA - SALA 1012 1.100,00 1.436,19 450,00 0,00 0,00 0,00 0,00 0,00 0,00 31/12/2020
456 395601 ANA PAULA SALGE OLIVEIRA ANALISTA DO MP UBERABA - COMARCA; COORD REG PP TRIANGULO MINEIRO UBERABA 1.100,00 0,00 450,00 0,00 0,00 0,00 0,00 0,00 0,00 31/12/2020
457 1150000 ANA PAULA SANTIAGO TEIXEIRA SANTOS ESTAGIARIO GUANHAES; GUANHAES-PJ-02PJ 0,00 0,00 0,00 72,00 0,00 0,00 0,00 0,00 0,00 31/12/2020
458 473200 ANA PAULA SCOTTON BRASIL ANALISTA DO MP JUIZ DE FORA - COMARCA; JUIZ DE FORA-PJ-07PJ 1.100,00 769,39 450,00 0,00 0,00 0,00 0,00 0,00 0,00 31/12/2020
459 633600 ANA PAULA SILVA FERNANDES OFICIAL DO MP CATAGUASES - COMARCA; CATAGUASES-PJ-04PJ 1.100,00 0,00 450,00 0,00 0,00 0,00 0,00 0,00 0,00 31/12/2020
460 470900 ANA PAULA VALADARES ANALISTA DO MP PITANGUI - COMARCA; PITANGUI-PJ-01PJ 1.100,00 0,00 450,00 0,00 0,00 0,00 0,00 0,00 0,00 31/12/2020
461 447000 ANA PAULA VALENTIM DE ARAUJO ANALISTA DO MP BELO HORIZONTE - COMARCA; PROC JUST ESP ACOES COMP ORIG CRIMINAL-ASSESS 1.100,00 0,00 450,00 0,00 0,00 0,00 0,00 0,00 0,00 31/12/2020
462 604200 ANA PAULA VIANA E SILVA OFICIAL DO MP BELO HORIZONTE - COMARCA; BH-17PJ PATRIMONIO PUBLICO-SECRETARIA 1.100,00 0,00 450,00 0,00 0,00 0,00 0,00 0,00 0,00 31/12/2020
463 505400 ANA PAULA VIEIRA SOUTO OFICIAL DO MP ALMENARA - COMARCA; ALMENARA-PJ-01PJ 1.100,00 0,00 450,00 0,00 0,00 0,00 0,00 0,00 0,00 31/12/2020
464 280200 ANA RACHEL BRANDAO LADEIRA ROLAND DIRETOR/ANALISTA BELO HORIZONTE - COMARCA; SUPRIN DE FORMACAO E APERFEICOAMENTO-SFA/CEAF 1.100,00 0,00 450,00 0,00 0,00 0,00 0,00 0,00 0,00 31/12/2020
465 691000 ANA RACHEL DOS REIS E SENA COSTA ASSESSOR PROMOTOR JUSTICA BELO HORIZONTE - COMARCA; GABINETE DE PROCURADOR DE JUSTIÇA - SALA 601 1.100,00 0,00 450,00 0,00 0,00 0,00 0,00 0,00 0,00 31/12/2020
466 601200 ANA REGINA RIBEIRO COORDENADOR/ANALISTA BELO HORIZONTE - COMARCA; DIV FISCAL ADM CONT TERCEIRIZACAO 1.100,00 0,00 450,00 0,00 0,00 0,00 0,00 0,00 -859,60 31/12/2020
467 1182200 ANA RITA DE CASSIA ABREU ESTAGIARIO BELO HORIZONTE; CENTRAL DE RECEPÇÃO DE FLAGRANTES
468 1053100 ANA RITA FERREIRA PIMENTA DOS SANTOS ESTAGIARIO BOCAIUVA; BOCAIUVA-PJ-03PJ 0,00 0,00 0,00 153,00 0,00 0,00 0,00 0,00 0,00 31/12/2020
469 384700 ANA RODRIGUES PEREIRA MARRA ANALISTA DO MP COROMANDEL - COMARCA; COROMANDEL-PJ-01PJ 1.100,00 769,39 450,00 0,00 0,00 0,00 0,00 0,00 0,00 31/12/2020
470 232700 ANA SILVIA SEMBLANO NAKAMURA ASSESSOR/OFICIAL BELO HORIZONTE - COMARCA; CENT DE APOIO TEC-SETOR DEF,IDOSO E INFANC 1.100,00 0,00 450,00 0,00 0,00 0,00 0,00 0,00 0,00 31/12/2020
471 1123000 ANA TELMA APARECIDA COSTA ESTAGIARIO 0,00 0,00 0,00 45,00 0,00 0,00 0,00 0,00 0,00 31/12/2020
472 530300 ANA TEREZA RIBEIRO SALLES GIACOMINI PROMOTOR SUBSTITUTO BRUMADINHO - COMARCA; BRUMADINHO-PJ-01PJ 1.100,00 0,00 2.345,20 0,00 5.067,40 0,00 0,00 0,00 0,00 31/12/2020
473 1147700 ANA VICTORIA DOS PASSOS CAETANO ESTAGIARIO GOVERNADOR VALADARES; GOVERNADOR VALADARES-PJ-16PJ 0,00 0,00 0,00 54,00 0,00 0,00 0,00 0,00 0,00 31/12/2020
474 963500 ANA VIRGINIA DA CRUZ PRAIS ESTAGIARIO MONTES CLAROS; MONTES CLAROS-PJ-03PJ 0,00 0,00 0,00 27,00 0,00 0,00 0,00 0,00 0,00 31/12/2020
475 602100 ANACLETO FRANCISCO MARCIER PIMENTA OFICIAL DO MP SÃO JOÃO DEL REI - COMARCA; SAO JOAO DEL REI-PJ-03PJ 1.100,00 1.538,78 450,00 0,00 0,00 0,00 0,00 0,00 0,00 31/12/2020
476 310400 ANADEJE DO CARMO DINIZ ARAUJO OFICIAL DO MP BELO HORIZONTE - COMARCA; DIRETORIA DE PESSOAL ADMINISTRATIVO - DPAD 1.100,00 0,00 450,00 0,00 0,00 0,00 0,00 0,00 0,00 31/12/2020
477 337000 ANAILDES MARIA MENDES OFICIAL DO MP JANAÚBA - COMARCA; JANAUBA-PJ-02PJ 1.100,00 1.538,78 450,00 0,00 0,00 0,00 0,00 0,00 0,00 31/12/2020
478 1170500 ANANDA EVELYN AURELIO DE SOUZA ESTAGIARIO CONTAGEM; CONTAGEM-PJ-24PJ 0,00 0,00 0,00 99,00 0,00 0,00 0,00 0,00 0,00 31/12/2020
479 192900 ANATALIA CERQUEIRA LIMA PERES OFICIAL DO MP UBERABA - COMARCA; COORD REG SAUDE MACROR SANIT TRIANGULO SUL 1.100,00 0,00 450,00 0,00 0,00 0,00 0,00 0,00 0,00 31/12/2020
480 377400 ANDEIRSON DA MATTA BARBOSA ANALISTA DO MP POUSO ALEGRE - COMARCA; POUSO ALEGRE-PJ-01PJ 1.100,00 1.154,09 450,00 0,00 0,00 0,00 0,00 0,00 0,00 31/12/2020
481 317400 ANDERSON DA SILVA BICALHO OFICIAL DO MP CONTAGEM - COMARCA; CONTAGEM-PJ-SECRETARIA 1.100,00 0,00 450,00 0,00 0,00 0,00 0,00 0,00 0,00 31/12/2020
482 506900 ANDERSON DE SOUZA DAMIANI ANALISTA DO MP BELO HORIZONTE - COMARCA; DIRETORIA DE PAGAMENTO DE PESSOAL-DPAG 1.100,00 769,39 450,00 0,00 0,00 0,00 0,00 0,00 0,00 31/12/2020
483 410000 ANDERSON DE SOUZA NETO ASSESSOR BELO HORIZONTE - COMARCA; DIRETORIA DE ADMINISTRACAO FINANCEIRA 1.100,00 0,00 450,00 0,00 0,00 0,00 0,00 0,00 0,00 31/12/2020
484 181900 ANDERSON FLAVIO DE OLIVEIRA OFICIAL DO MP ITAGUARA - COMARCA; ITAGUARA-PJ-SECRETARIA 1.100,00 0,00 450,00 0,00 0,00 0,00 0,00 0,00 0,00 31/12/2020
485 333200 ANDERSON JOSE DE FREITAS OFICIAL DO MP IPATINGA - COMARCA; IPATINGA-PJ-04PJ 1.100,00 0,00 450,00 0,00 0,00 0,00 1.445,27 0,00 0,00 31/12/2020
486 699400 ANDERSON LUIZ CABRAL ASSESSOR PROMOTOR JUSTICA ALÉM PARAÍBA - COMARCA; ALEM PARAIBA-PJ-03PJ 1.000,00 0,00 450,00 0,00 0,00 0,00 0,00 0,00 0,00 31/12/2020
487 462100 ANDERSON LUIZ GUIMARAES CARDOSO ANALISTA DO MP BARBACENA - COMARCA; BARBACENA-PJ-02PJ 1.100,00 0,00 450,00 0,00 0,00 0,00 0,00 0,00 0,00 31/12/2020
488 429700 ANDERSON MELO DE SOUZA ASSESSOR/OFICIAL BELO HORIZONTE - COMARCA; DIRET DE ESTAGIOS E CONVENIOS ACADEMICOS 1.100,00 0,00 450,00 0,00 0,00 0,00 0,00 0,00 0,00 31/12/2020
489 545600 ANDERSON MENDES PROCOPIO FERREIRA ANALISTA DO MP BELO HORIZONTE - COMARCA; BH-12PJ JUIZO CRIMINAL-GAB 089PJ 1.100,00 0,00 450,00 0,00 0,00 0,00 0,00 0,00 0,00 31/12/2020
490 519900 ANDERSON MOREIRA DOEHLER ANALISTA DO MP TEÓFILO OTONI - COMARCA; COORD REG SAUDE MACRORREGIAO SANIT NORDESTE 1.100,00 0,00 450,00 0,00 0,00 0,00 0,00 0,00 0,00 31/12/2020
491 103000 ANDERSON TADEU DE DEUS ASSESSOR BELO HORIZONTE - COMARCA; BH-26 CRIME CONT CRIAN ADOL-SECRETARIA 1.100,00 0,00 450,00 0,00 0,00 0,00 0,00 0,00 0,00 31/12/2020
492 652500 ANDERSON TADEU LOPES INVESTIGADOR DE POLICIA 2 CONTAGEM - COMARCA; COORD REG DEF ORDEM ECON TRIB CONTAGEM 1.100,00 0,00 0,00 0,00 0,00 0,00 0,00 0,00 1.295,70 31/12/2020
493 309200 ANDITYAS SOARES DE MOURA COSTA MATOS ANALISTA DO MP BELO HORIZONTE - COMARCA; GABINETE DE PROCURADOR DE JUSTIÇA - SALA 304 1.100,00 0,00 450,00 0,00 0,00 0,00 0,00 0,00 0,00 31/12/2020
494 1080700 ANDRE ARAUJO GABRIEL REIS ESTAGIARIO BARBACENA; BARBACENA-PJ-05PJ
495 519200 ANDRE BORJA LANA ANALISTA DO MP BELO HORIZONTE - COMARCA; DIR CONTEUDO JORNALISTICO 1.100,00 0,00 450,00 0,00 0,00 0,00 0,00 0,00 4.936,13 31/12/2020
496 486000 ANDRE CARDOSO CAVALCANTI PROMOTOR 2A ENTRANCIA ITAJUBA - COMARCA; ITAJUBA-PJ-02PJ 1.100,00 0,00 1.952,40 0,00 5.334,11 0,00 0,00 0,00 0,00 31/12/2020
497 224900 ANDRE CHIO MAXIMO PROMOT.ENTRANC.ESPECIAL VESPASIANO - COMARCA; VESPASIANO-PJ-02PJ 1.100,00 0,00 3.266,04 0,00 0,00 0,00 0,00 0,00 0,00 31/12/2020
498 102400 ANDRE DE OLIVEIRA ANDRADE PROMOT.ENTRANC.ESPECIAL BELO HORIZONTE - COMARCA; BH-02PJ FAMILIA-GAB 030PJ 1.100,00 0,00 2.345,20 0,00 11.229,70 0,00 0,00 0,00 514,69 31/12/2020
499 656000 ANDRE DE OLIVEIRA SOUSA INVESTIGADOR DE POLICIA 2 BELO HORIZONTE - COMARCA; GAECO - SETOR POLICIAL CIVIL 1.100,00 0,00 0,00 0,00 0,00 0,00 0,00 0,00 1.775,90 31/12/2020
500 974800 ANDRE DELL ORTO BERCAN ESTAGIARIO RESPLENDOR; RESPLENDOR-PJ-UNPJ 0,00 0,00 0,00 108,00 0,00 0,00 0,00 0,00 0,00 31/12/2020
501 79200 ANDRE ESTEVAO UBALDINO PEREIRA PROCURADOR DE JUSTICA BELO HORIZONTE - COMARCA; GABINETE DE PROCURADOR DE JUSTIÇA - SALA 502 1.100,00 0,00 3.539,12 0,00 11.820,74 0,00 0,00 0,00 541,78 31/12/2020
502 1103000 ANDRE FELIPE ROSA DA SILVA ESTAGIARIO BARBACENA; BARBACENA-PJ-SECRETARIA 0,00 0,00 0,00 72,00 0,00 0,00 0,00 0,00 80,33 31/12/2020
503 637200 ANDRE FERNANDES DA CUNHA OFICIAL DO MP MORADA NOVA DE MINAS - COMARCA; MORADA NOVA DE MINAS-PJ-UNPJ 1.100,00 0,00 450,00 0,00 0,00 0,00 0,00 0,00 0,00 31/12/2020
504 162800 ANDRE FERNANDO COLUCCO PROMOTOR 2A ENTRANCIA CASSIA - COMARCA; CASSIA-PJ-02PJ 1.100,00 0,00 2.728,96 0,00 3.200,47 0,00 0,00 0,00 293,38 31/12/2020
505 1131900 ANDRE FERREIRA ESTAGIARIO POCOS DE CALDAS; POCOS DE CALDAS-PJ-04PJ 0,00 0,00 0,00 135,00 0,00 0,00 0,00 0,00 120,67 31/12/2020
506 651500 ANDRE GONCALVES MARANHAO OFICIAL DO MP JACINTO - COMARCA; JACINTO-PJ-SECRETARIA 1.100,00 0,00 450,00 0,00 0,00 0,00 0,00 0,00 0,00 31/12/2020
507 439200 ANDRE LEITE DE ALMEIDA PROMOT.ENTRANC.ESPECIAL VESPASIANO - COMARCA; VESPASIANO-PJ-03PJ 1.100,00 0,00 1.321,84 0,00 5.614,85 0,00 0,00 0,00 0,00 31/12/2020
508 166900 ANDRE LUIS ALVES DE MELO PROMOTOR 2A ENTRANCIA ARAGUARI - COMARCA; ARAGUARI-PJ-01PJ 1.100,00 0,00 3.200,47 0,00 0,00 0,00 0,00 0,00 0,00 31/12/2020
509 1154900 ANDRE LUIS CUNITA LOURENCO ESTAGIARIO FRUTAL; FRUTAL-PJ-04PJ 0,00 0,00 0,00 162,00 0,00 0,00 0,00 0,00 0,00 31/12/2020
510 85000 ANDRE LUIS GARCIA DE PINHO PROMOT.ENTRANC.ESPECIAL DISPONIBILIDADE COMPULSORIA-COMARCA; DISPONIBILIDADE COMPULSORIA - UNIDADE 0,00 0,00 2.945,65 0,00 0,00 0,00 0,00 0,00 0,00 31/12/2020
511 521900 ANDRE LUIS GOMES SILVA ANALISTA DO MP FORMIGA - COMARCA; FORMIGA-PJ-02PJ 1.100,00 769,39 450,00 0,00 0,00 0,00 0,00 0,00 0,00 31/12/2020
512 340800 ANDRE LUIS MACHADO ARANTES PROMOTOR 2A ENTRANCIA PARÁ DE MINAS - COMARCA; PARA DE MINAS-PJ-05PJ 1.100,00 0,00 2.558,40 0,00 5.614,85 0,00 0,00 0,00 1.684,46 31/12/2020
513 1196600 ANDRE LUIS SILVEIRA BEZERRA ESTAGIARIO BELO HORIZONTE; PROC. JUSTICA DIR. DIFUSOS E COLETIVOS 0,00 0,00 0,00 45,00 0,00 0,00 0,00 0,00 0,00 31/12/2020
514 304300 ANDRE LUIZ AVELAR ANALISTA DO MP BELO HORIZONTE - COMARCA; DIRETORIA DE REDES E BANCOS DE DADOS 1.100,00 0,00 450,00 0,00 0,00 0,00 0,00 0,00 0,00 31/12/2020
515 666100 ANDRE LUIZ FERREIRA VALADARES PROMOTOR 2A ENTRANCIA VARZEA DA PALMA - COMARCA; VARZEA DA PALMA-PJ-02PJ 1.100,00 0,00 703,56 0,00 5.334,11 0,00 0,00 0,00 0,00 31/12/2020
516 530200 ANDRE LUIZ NOLLI MERRIGHI PROMOT.ENTRANC.ESPECIAL SETE LAGOAS - COMARCA; SETE LAGOAS-PJ-03PJ 1.100,00 0,00 3.310,25 0,00 5.614,85 0,00 0,00 0,00 0,00 31/12/2020
517 397400 ANDRE PATARO MYRRHA DE PAULA E SILVA ANALISTA DO MP BELO HORIZONTE - COMARCA; ASSESSORIA JURIDICO-ADMINISTRATIVA 1.100,00 769,39 450,00 0,00 0,00 0,00 0,00 0,00 0,00 31/12/2020
518 533200 ANDRE PEREIRA MAFIA PROMOTOR 2A ENTRANCIA ALÉM PARAÍBA - COMARCA; ALEM PARAIBA-PJ-01PJ 1.100,00 0,00 746,20 0,00 5.334,11 0,00 0,00 0,00 0,00 31/12/2020
519 441200 ANDRE SALLES DIAS PINTO PROMOTOR 2A ENTRANCIA IGARAPÉ - COMARCA; IGARAPE-PJ-01PJ 1.100,00 0,00 2.435,40 0,00 6.400,93 0,00 0,00 0,00 0,00 31/12/2020
520 237800 ANDRE SILVARES VASCONCELOS PROMOTOR 2A ENTRANCIA PIUMHI - COMARCA; PIUMHI-PJ-02PJ 1.100,00 0,00 2.451,80 0,00 5.334,11 0,00 0,00 0,00 0,00 31/12/2020
521 231800 ANDRE SPERLING PRADO PROMOT.ENTRANC.ESPECIAL BELO HORIZONTE - COMARCA; COORD DE INCLUSAO E MOBILIZACAO SOCIAIS 1.100,00 0,00 2.579,72 0,00 7.860,79 0,00 0,00 0,00 205,88 31/12/2020
522 666300 ANDRE TANURE DOMINGUES FIGUEIREDO PROMOTOR SUBSTITUTO MONTES CLAROS - COMARCA; MONTES CLAROS-PJ-01PJ 1.100,00 0,00 703,56 0,00 0,00 0,00 0,00 0,00 0,00 31/12/2020
523 650100 ANDRE THOME VARGAS OFICIAL DO MP LEOPOLDINA - COMARCA; LEOPOLDINA-PJ-04PJ 1.100,00 0,00 450,00 0,00 0,00 0,00 0,00 0,00 0,00 31/12/2020
524 231600 ANDRE TUMA DELBIM FERREIRA PROMOT.ENTRANC.ESPECIAL UBERABA - COMARCA; COORD REG PJ DEF EDUC DIR CRIANCA ADOL TRIANG 1.100,00 0,00 1.599,00 0,00 5.614,85 0,00 0,00 0,00 0,00 31/12/2020
525 671500 ANDRE VALDERRAMAS FRANCO PROMOTOR SUBSTITUTO NOVA SERRANA - COMARCA; NOVA SERRANA-PJ-SECRETARIA 1.100,00 0,00 596,96 0,00 10.134,80 0,00 0,00 0,00 0,00 31/12/2020
526 548500 ANDRE VINICIUS CARVALHO MEIRA ANALISTA DO MP JUIZ DE FORA - COMARCA; JUIZ DE FORA-PJ-24PJ 1.100,00 0,00 450,00 0,00 0,00 0,00 0,00 0,00 0,00 31/12/2020
527 297200 ANDRE WILLE ROSARIO ANALISTA DO MP BELO HORIZONTE - COMARCA; ASSESSORIA ESPECIAL DO PGJ 1.100,00 0,00 450,00 0,00 0,00 0,00 0,00 0,00 0,00 31/12/2020
528 224500 ANDREA BASILIO GONCALVES GOLLOP PROMOT.ENTRANC.ESPECIAL BELO HORIZONTE - COMARCA; BH-18PJ VIOLENCIA DOMESTICA-GAB 186PJ 1.100,00 0,00 3.070,08 0,00 0,00 0,00 0,00 0,00 0,00 31/12/2020
529 666400 ANDREA CLEMENTE BARBOSA DE SOUZA PROMOTOR SUBSTITUTO MATOZINHOS - COMARCA; MATOZINHOS-PJ-01PJ 1.100,00 0,00 1.748,24 0,00 5.067,40 0,00 0,00 0,00 0,00 31/12/2020
530 423600 ANDREA COSTA GUALBERTO ALVES ANALISTA DO MP GOVERNADOR VALADARES - COMARCA; COORD REG PJ DEF EDU DIR CRIANCA ADOL RIODOCE 1.100,00 0,00 450,00 0,00 0,00 0,00 0,00 0,00 0,00 31/12/2020
531 198600 ANDREA CRISTINA ANDRADE COSTA E SOUZA OFICIAL DO MP MONTES CLAROS - COMARCA; MONTES CLAROS-PJ-15PJ 1.100,00 0,00 450,00 0,00 0,00 0,00 0,00 0,00 0,00 31/12/2020
532 230600 ANDREA CRISTINA CALDAS SANTIAGO PROMOT.ENTRANC.ESPECIAL CONSELHEIRO LAFAIETE - COMARCA; CONSELHEIRO LAFAIETE-PJ-07PJ 1.100,00 0,00 1.407,12 0,00 11.229,70 0,00 0,00 0,00 514,69 31/12/2020
533 467300 ANDREA DE CASSIA PENNA ALVERNAZ ANALISTA DO MP PONTE NOVA - COMARCA; PONTE NOVA-PJ-01PJ 1.100,00 0,00 450,00 0,00 0,00 0,00 0,00 0,00 0,00 31/12/2020
534 308000 ANDREA DE CASSIA SANTOS OLIVEIRA ANALISTA DO MP BELO HORIZONTE - COMARCA; COORD DE GABINETE DO PGJ 1.100,00 0,00 450,00 0,00 0,00 0,00 0,00 0,00 0,00 31/12/2020
535 106300 ANDREA DE FIGUEIREDO SOARES PROCURADOR DE JUSTICA BELO HORIZONTE - COMARCA; GABINETE DE PROCURADOR DE JUSTIÇA - SALA 709 1.100,00 0,00 3.006,12 0,00 5.910,37 0,00 0,00 0,00 0,00 31/12/2020
536 349500 ANDREA DE OLIVEIRA LOIOLA REGIS OFICIAL DO MP IGUATAMA - COMARCA; IGUATAMA-PJ-UNPJ 1.100,00 0,00 450,00 0,00 0,00 0,00 0,00 0,00 0,00 31/12/2020
537 287900 ANDREA FERNANDES PENA MARTINS OFICIAL DO MP MONTES CLAROS - COMARCA; MONTES CLAROS-PJ-09PJ 1.100,00 0,00 450,00 0,00 0,00 0,00 0,00 0,00 0,00 31/12/2020
538 300800 ANDREA FERREIRA ANALISTA DO MP LAVRAS - COMARCA; LAVRAS-PJ-04PJ 1.100,00 0,00 450,00 0,00 0,00 0,00 0,00 0,00 0,00 31/12/2020
539 316700 ANDREA FRANCISCA DIAS DE SOUZA ASSESSOR BELO HORIZONTE - COMARCA; ASSESSORIA JURIDICA DO PROCON-MG 1.100,00 769,39 450,00 0,00 0,00 0,00 0,00 0,00 0,00 31/12/2020
540 395100 ANDREA LANNA MENDES NOVAIS ANALISTA DO MP BELO HORIZONTE - COMARCA; PROMOT ESTADUAL DE DEF PATRI CULT E TUR DE MG 1.100,00 0,00 450,00 0,00 0,00 0,00 0,00 0,00 0,00 31/12/2020
541 67300 ANDREA LEAO MAGALHAES ROQUE ASSESSOR BELO HORIZONTE - COMARCA; COORD ESTADUAL COMBATE CRIMES CIBERNETICOS 1.100,00 0,00 450,00 0,00 0,00 0,00 0,00 0,00 0,00 31/12/2020
542 335700 ANDREA LOPES PEREIRA ANALISTA DO MP GOVERNADOR VALADARES - COMARCA; COORD REG DO MA DA BACIA DO RIO DOCE 1.100,00 0,00 450,00 0,00 0,00 0,00 0,00 0,00 0,00 31/12/2020
543 224700 ANDREA MARIA NESSRALLA BAHURY PROMOT.ENTRANC.ESPECIAL BELO HORIZONTE - COMARCA; BH-12PJ JUIZO CRIMINAL-GAB 089PJ 1.100,00 0,00 2.345,20 0,00 8.983,76 0,00 0,00 0,00 308,82 31/12/2020
544 167000 ANDREA MISMOTTO CARELLI PROMOT.ENTRANC.ESPECIAL BELO HORIZONTE - COMARCA; BH-26 CRIME CONT CRIAN ADOL-GAB 048PJ 1.100,00 0,00 895,44 0,00 8.983,76 0,00 0,00 0,00 308,82 31/12/2020
545 389200 ANDREA TUPINI DOS SANTOS TRISTAO DA ROCHA COORDENADOR/OFICIAL BELO HORIZONTE - COMARCA; BH-13ª PJ JUÍZO DE TÓXICOS-SECRETARIA 1.100,00 0,00 450,00 0,00 0,00 0,00 0,00 0,00 0,00 31/12/2020
546 1071200 ANDREI LUCAS BASILIO SANTANA ESTAGIARIO JANUARIA; JANUARIA-PJ-01PJ 0,00 0,00 0,00 162,00 0,00 0,00 0,00 0,00 0,00 31/12/2020
547 419000 ANDREIA BARBOSA DE ALMEIDA ANALISTA DO MP BELO HORIZONTE - COMARCA; GABINETE DE PROCURADOR DE JUSTIÇA - SALA 705 1.100,00 0,00 450,00 0,00 0,00 0,00 0,00 0,00 0,00 31/12/2020
548 281501 ANDREIA CARLA COSTA ANALISTA DO MP UBÁ - COMARCA; UBA-PJ-02PJ 1.100,00 0,00 450,00 0,00 0,00 0,00 0,00 0,00 0,00 31/12/2020
549 477100 ANDREIA DE ALMEIDA RIBEIRO MELO OFICIAL DO MP CONTAGEM - COMARCA; CONTAGEM-PJ-SECRETARIA 1.100,00 0,00 450,00 0,00 0,00 0,00 0,00 0,00 0,00 31/12/2020
550 1170600 ANDREIA DE PAULA CAMPOS NUNES ESTAGIARIO ANDRELANDIA; ANDRELANDIA-PJ-UNPJ 0,00 0,00 0,00 144,00 0,00 0,00 0,00 0,00 0,00 31/12/2020
551 619000 ANDREIA FERREIRA NORONHA COORDENADOR/OFICIAL BELO HORIZONTE - COMARCA; DIRETORIA DE SERVICO CRIMINAL 1.100,00 0,00 450,00 0,00 0,00 0,00 0,00 0,00 -246,60 31/12/2020
552 424000 ANDREIA LUCIA COUTO ANALISTA DO MP BELO HORIZONTE - COMARCA; BH-18PJ DIREITOS HUMANOS-SECRETARIA 1.100,00 0,00 450,00 0,00 0,00 0,00 0,00 0,00 0,00 31/12/2020
553 1138400 ANDREIA MARIA FIRMO ESTAGIARIO BELO HORIZONTE; PROC. JUSTICA DIR. DIFUSOS E COLETIVOS 0,00 0,00 0,00 54,00 0,00 0,00 0,00 0,00 0,00 31/12/2020
554 370100 ANDREIA MARIA SILVA PINTO OFICIAL DO MP CORONEL FABRICIANO - COMARCA; CORONEL FABRICIANO-PJ-01PJ 1.100,00 769,39 450,00 0,00 0,00 0,00 0,00 0,00 0,00 31/12/2020
555 382100 ANDREIA NATALI PEREIRA DE OLIVEIRA OFICIAL DO MP PRADOS - COMARCA; PRADOS-PJ-UNPJ 1.100,00 0,00 450,00 0,00 0,00 0,00 0,00 0,00 0,00 31/12/2020
556 198701 ANDREIA NUNES DURAES PROMOTOR 2A ENTRANCIA BOCAIÚVA - COMARCA; BOCAIUVA-PJ-02PJ 1.100,00 0,00 0,00 0,00 5.334,11 0,00 0,00 0,00 0,00 31/12/2020
557 275200 ANDREIA RIBEIRO FREITAS OFICIAL DO MP VIÇOSA - COMARCA; VICOSA-PJ-04PJ 1.100,00 0,00 450,00 0,00 0,00 0,00 0,00 0,00 0,00 31/12/2020
558 1162900 ANDREIA RODRIGUES DE SOUZA ESTAGIARIO 0,00 0,00 0,00 144,00 0,00 0,00 0,00 0,00 0,00 31/12/2020
559 352200 ANDREIA XAVIER PEREIRA OFICIAL DO MP CLÁUDIO - COMARCA; CLAUDIO-PJ-UNPJ 1.100,00 0,00 450,00 0,00 0,00 0,00 0,00 0,00 0,00 31/12/2020
560 638500 ANDRESA ALVES FEITOSA CASAGRANDE ANALISTA DO MP LAVRAS - COMARCA; COORD REG DO MA DA BACIA DO RIO GRANDE 1.100,00 0,00 450,00 0,00 0,00 0,00 0,00 0,00 0,00 31/12/2020
561 1072000 ANDRESA MENDES ASSIS ESTAGIARIO BELO HORIZONTE; PROC JUST ESP ACOES COMP ORIG CRIMINAL-GAB 0,00 0,00 0,00 9,00 0,00 0,00 0,00 0,00 0,00 31/12/2020
562 1103300 ANDRESSA BARBOSA PARANHOS ESTAGIARIO PATOS DE MINAS; PATOS DE MINAS-PJ-01PJ 0,00 0,00 0,00 117,00 0,00 0,00 0,00 0,00 0,00 31/12/2020
563 932800 ANDRESSA CARINA DOS SANTOS ESTAGIARIO BELO HORIZONTE; DIV FISCAL ADM CONT TERCEIRIZACAO 0,00 0,00 0,00 45,00 0,00 0,00 0,00 0,00 0,00 31/12/2020
564 952200 ANDRESSA CAVALCANTI FELIPPE ESTAGIARIO PONTE NOVA; PONTE NOVA-PJ-02PJ 0,00 0,00 0,00 9,00 0,00 0,00 0,00 0,00 0,00 31/12/2020
565 210000 ANDRESSA DE OLIVEIRA LANCHOTTI PROMOT.ENTRANC.ESPECIAL BELO HORIZONTE - COMARCA; CAO-MEIO AMBIENTE 1.100,00 0,00 2.920,84 0,00 7.860,79 0,00 0,00 0,00 205,88 31/12/2020
566 1203800 ANDRESSA DORNELAS BORGES ESTAGIARIO PATOS DE MINAS; PATOS DE MINAS-PJ-SECRETARIA 0,00 0,00 0,00 162,00 0,00 0,00 0,00 0,00 0,00 31/12/2020
567 383700 ANDRESSA EDUARDO SOUZA ANALISTA DO MP OURO BRANCO - COMARCA; OURO BRANCO-PJ-SECRETARIA 1.100,00 769,39 450,00 0,00 0,00 0,00 0,00 0,00 0,00 31/12/2020
568 959900 ANDRESSA FRANCO PARADELLAS ESTAGIARIO EUGENOPOLIS; EUGENOPOLIS-PJ-UNPJ 0,00 0,00 0,00 90,00 0,00 0,00 0,00 0,00 0,00 31/12/2020
569 485500 ANDRESSA ISABELLE FERREIRA BARRETO PROMOTOR 2A ENTRANCIA CONCEICAO DAS ALAGOAS - COMARCA; CONCEICAO DAS ALAGOAS-PJ-02PJ 1.100,00 0,00 2.409,16 0,00 5.334,11 0,00 0,00 0,00 0,00 31/12/2020
570 678400 ANDRESSA LUIZA SILVA LOPES ASSESSOR PROMOTOR JUSTICA CARMO DO PARANAÍBA - COMARCA; CARMO DO PARANAIBA-PJ-02PJ 1.100,00 0,00 450,00 0,00 0,00 0,00 0,00 0,00 0,00 31/12/2020
571 1005700 ANDRESSA MARIA ROCHA BARBOSA ESTAGIARIO SANTA MARIA DO SUACUI; SANTA MARIA DO SUACUI-PJ-UNPJ
572 426200 ANDRESSA MENDES CASAL OFICIAL DO MP BELO HORIZONTE - COMARCA; DIR ESTRUTURA E PROCESSOS ORGANIZACIONAIS 1.100,00 0,00 450,00 0,00 0,00 0,00 0,00 0,00 0,00 31/12/2020
573 932900 ANDRESSA OLIVEIRA LUBE COSTA ESTAGIARIO BELO HORIZONTE; GRUPO ESP PROM JUST DEF PROB ADM PAT PUB
574 390100 ANDRESSA RIBEIRO PUCCI OFICIAL DO MP UBERABA - COMARCA; UBERABA-PJ-14PJ 1.100,00 0,00 450,00 0,00 0,00 0,00 0,00 0,00 0,00 31/12/2020
575 462500 ANDREZA APARECIDA COSTA E SILVA ANALISTA DO MP CONSELHEIRO LAFAIETE - COMARCA; CONSELHEIRO LAFAIETE-PJ-02PJ 1.100,00 0,00 450,00 0,00 0,00 0,00 0,00 0,00 0,00 31/12/2020
576 677700 ANDREZA DE LOURDES FERREIRA DE PAIVA ASSESSOR PROMOTOR JUSTICA ABRE CAMPO - COMARCA; ABRE CAMPO-PJ-01PJ 1.100,00 0,00 450,00 0,00 0,00 0,00 0,00 0,00 0,00 31/12/2020
577 965700 ANDREZA DE OLIVEIRA SANTOS PRESTES ESTAGIARIO BELO HORIZONTE; BH-12PJ JUIZO CRIMINAL-GAB 099PJ 0,00 0,00 0,00 90,00 0,00 0,00 0,00 0,00 0,00 31/12/2020
578 1083000 ANDREZA SACRAMENTO FAGUNDES ESTAGIARIO BELO HORIZONTE; SUPERINTENDÊNCIA DE ENGENHARIA E ARQUITETURA
579 537800 ANDREZZA LUZIA DE OLIVEIRA ALVES ANALISTA DO MP PATOS DE MINAS - COMARCA; COORD REG PJ DEF EDU DIR CRI ADO AL PAR NOROE 1.100,00 0,00 450,00 0,00 0,00 0,00 0,00 0,00 0,00 31/12/2020
580 1074700 ANDRINE HOLLERBACH DOS SANTOS ESTAGIARIO TEOFILO OTONI; TEOFILO OTONI-PJ-06PJ 0,00 0,00 0,00 162,00 0,00 0,00 0,00 0,00 0,00 31/12/2020
581 491600 ANE PATRICIA RIBEIRO ANALISTA DO MP SETE LAGOAS - COMARCA; SETE LAGOAS-PJ-11PJ 1.100,00 0,00 450,00 0,00 0,00 0,00 0,00 0,00 0,00 31/12/2020
582 361900 ANELISA CARDOSO RIBEIRO PROMOTOR 2A ENTRANCIA CAETÉ - COMARCA; CAETE-PJ-02PJ 1.100,00 0,00 1.705,60 0,00 8.534,58 0,00 0,00 0,00 488,96 31/12/2020
583 465800 ANELISE GAMA ASSESSOR BELO HORIZONTE - COMARCA; BH-18PJ VIOLENCIA DOMESTICA-SECRETARIA 1.100,00 0,00 450,00 0,00 0,00 0,00 0,00 0,00 0,00 31/12/2020
584 535200 ANELIZE FERNANDA ALVES VILARINHO OFICIAL DO MP CAPINÓPOLIS - COMARCA; CAPINOPOLIS-PJ-UNPJ 1.100,00 769,39 450,00 0,00 0,00 0,00 0,00 0,00 0,00 31/12/2020
585 197200 ANGELA COELHO SALDANHA OFICIAL DO MP PARÁ DE MINAS - COMARCA; PARA DE MINAS-PJ-03PJ 1.100,00 0,00 450,00 0,00 0,00 0,00 0,00 0,00 0,00 31/12/2020
586 307400 ANGELA CRISTINA GONCALVES MUNIZ ANALISTA DO MP UBERLÂNDIA - COMARCA; UBERLANDIA-PJ-SEC FAMILIA 1.100,00 769,39 450,00 0,00 0,00 0,00 0,00 0,00 0,00 31/12/2020
587 157100 ANGELA FABERO PROMOT.ENTRANC.ESPECIAL BELO HORIZONTE - COMARCA; BH-23PJ INFRACIONAL-GAB 145PJ 1.100,00 0,00 3.198,00 0,00 5.614,85 0,00 0,00 0,00 0,00 31/12/2020
588 191800 ANGELA MARIA DE OLIVEIRA OFICIAL DO MP GUARANÉSIA - COMARCA; GUARANESIA-PJ-SECRETARIA 1.100,00 0,00 450,00 0,00 0,00 0,00 0,00 0,00 0,00 31/12/2020
589 497400 ANGELA MARIA HENRIQUES ANALISTA DO MP BELO HORIZONTE - COMARCA; COORD REG BACIAS RIO VELHAS E PARAOPEBA 1.100,00 0,00 450,00 0,00 0,00 0,00 0,00 0,00 0,00 31/12/2020
590 54600 ANGELA MARIA PEREIRA GRAVINA PROMOT.ENTRANC.ESPECIAL JUIZ DE FORA - COMARCA; JUIZ DE FORA-PJ-11PJ 1.100,00 0,00 1.279,20 0,00 5.614,85 0,00 0,00 0,00 0,00 31/12/2020
591 1141200 ANGELA NUNES CARDOSO ESTAGIARIO CORACAO DE JESUS; CORACAO DE JESUS-PJ-UNPJ 0,00 0,00 0,00 153,00 0,00 0,00 0,00 0,00 0,00 31/12/2020
592 260700 ANGELICA CRISTINA AZEVEDO MOREIRA MOUCO OFICIAL DO MP UBÁ - COMARCA; UBA-PJ-05PJ 1.100,00 0,00 450,00 0,00 0,00 0,00 0,00 0,00 0,00 31/12/2020
593 1196700 ANGELICA DE MELO ANDRADE ESTAGIARIO CONTAGEM; CONTAGEM-PJ-10PJ 0,00 0,00 0,00 126,00 0,00 0,00 0,00 0,00 0,00 31/12/2020
594 1005300 ANGELICA JULIA ARAUJO BASTOS ESTAGIARIO SETE LAGOAS; SETE LAGOAS-PJ-07PJ 0,00 0,00 0,00 162,00 0,00 0,00 0,00 0,00 0,00 31/12/2020
595 334600 ANGELICA PANISSA DE FREITAS GALLATI OFICIAL DO MP GUAXUPÉ - COMARCA; GUAXUPE-PJ-02PJ 1.100,00 769,39 450,00 0,00 0,00 0,00 0,00 0,00 0,00 31/12/2020
596 660400 ANGELICA POLLYANA QUEIROZ DE MEDEIROS PROMOTOR 2A ENTRANCIA FRUTAL - COMARCA; FRUTAL-PJ-05PJ 1.100,00 0,00 703,56 0,00 0,00 0,00 0,00 0,00 0,00 31/12/2020
597 521100 ANGELICA SALES MOREIRA OFICIAL DO MP BELO HORIZONTE - COMARCA; BH-02PJ FAMILIA-SECRETARIA 1.100,00 0,00 450,00 0,00 0,00 0,00 0,00 0,00 0,00 31/12/2020
598 1153300 ANGELICA SILVA COUTO ESTAGIARIO ITAUNA; ITAUNA-PJ-04PJ 0,00 0,00 0,00 99,00 0,00 0,00 0,00 0,00 0,00 31/12/2020
599 466500 ANGELLO MARQUES AGRELLI ANALISTA DO MP MAR DE ESPANHA - COMARCA; MAR DE ESPANHA-PJ-UNPJ 1.100,00 0,00 450,00 0,00 0,00 0,00 0,00 0,00 0,00 31/12/2020
600 222700 ANGELO ALEXANDRE MARZANO PROMOT.ENTRANC.ESPECIAL BELO HORIZONTE - COMARCA; PROC JUST RECURSOS ESP E EXTRAORD CRIMINAIS 1.100,00 0,00 2.451,80 0,00 3.368,91 0,00 0,00 0,00 308,82 31/12/2020
601 167100 ANGELO ANSANELLI JUNIOR PROMOTOR 2A ENTRANCIA FORMIGA - COMARCA; FORMIGA-PJ-02PJ 1.100,00 0,00 2.643,68 0,00 5.334,11 0,00 0,00 0,00 0,00 31/12/2020
602 1172500 ANGELO ANTONIO LOPES MOURA ESTAGIARIO IPATINGA; IPATINGA-PJ-11PJ 0,00 0,00 0,00 144,00 0,00 0,00 0,00 0,00 0,00 31/12/2020
603 363300 ANGELO VERDOLIN HENRIQUES ANALISTA DO MP SETE LAGOAS - COMARCA; SETE LAGOAS-PJ-04PJ 1.100,00 769,39 450,00 0,00 0,00 0,00 0,00 0,00 0,00 31/12/2020
604 267600 ANIBAL TAMAOKI PROMOT.ENTRANC.ESPECIAL BELO HORIZONTE - COMARCA; BH-18PJ VIOLENCIA DOMESTICA-GAB 053PJ 1.100,00 0,00 895,44 0,00 5.614,85 0,00 0,00 0,00 0,00 31/12/2020
605 250900 ANISIO APARECIDO SANTOS OFICIAL DO MP MARIANA - COMARCA; MARIANA-PJ-02PJ 1.100,00 0,00 450,00 0,00 0,00 0,00 0,00 0,00 0,00 31/12/2020
606 651200 ANITA MARIA SANT ANA DE MATTOS FONTES OFICIAL DO MP ERVÁLIA - COMARCA; ERVALIA-PJ-UNPJ 1.100,00 0,00 450,00 0,00 0,00 0,00 0,00 0,00 0,00 31/12/2020
607 1012300 ANNA BEATRIZ ABREU OTONI ESTAGIARIO BELO HORIZONTE; COORD ESTADUAL DE DEFESA DOS ANIMAIS 0,00 0,00 0,00 27,00 0,00 0,00 0,00 0,00 0,00 31/12/2020
608 1183400 ANNA CAROLINA DE SENNA BARCANTE ESTAGIARIO FORMIGA; FORMIGA-PJ-04PJ 0,00 0,00 0,00 162,00 0,00 0,00 0,00 0,00 0,00 31/12/2020
609 1071400 ANNA CAROLINA POLICARIO BERTOLIN ESTAGIARIO BELO HORIZONTE; PROC. JUSTICA DIR. DIFUSOS E COLETIVOS 0,00 0,00 0,00 0,00 723,00 0,00 0,00 0,00 0,00 31/12/2020
610 698100 ANNA CAROLINA POLICARIO BERTOLIN ASSESSOR PROCURADOR JUSTICA BELO HORIZONTE - COMARCA; PROCURADORIA-GERAL DE JUSTICA 1.000,00 0,00 450,00 0,00 0,00 0,00 0,00 0,00 0,00 31/12/2020
611 909900 ANNA CAROLINA TAVARES ASSUNCAO ESTAGIARIO UBERLANDIA; UBERLANDIA-PJ-24PJ 0,00 0,00 0,00 117,00 80,33 0,00 0,00 0,00 0,00 31/12/2020
612 253400 ANNA FLAVIA LEHMAN BATTAGLIA ANALISTA DO MP BELO HORIZONTE - COMARCA; CAO-PATRIMONIO PUBLICO 1.100,00 0,00 450,00 0,00 0,00 0,00 0,00 0,00 0,00 31/12/2020
613 1043200 ANNA FRANCIELE DA SILVA ESTAGIARIO BELO HORIZONTE; CAO-FUNDACOES 0,00 0,00 0,00 54,00 0,00 0,00 0,00 0,00 0,00 31/12/2020
614 1153400 ANNA GABRIELA SILVA SOUZA ESTAGIARIO UBERLANDIA; UBERLANDIA-PJ-02PJ 0,00 0,00 0,00 153,00 0,00 0,00 0,00 0,00 0,00 31/12/2020
615 1078100 ANNA LUISA BRAZ RODRIGUES ESTAGIARIO LAVRAS; LAVRAS-PJ-02PJ 0,00 0,00 0,00 135,00 0,00 0,00 0,00 0,00 0,00 31/12/2020
616 1190300 ANNA LUISA MARTINS NOGUEIRA ESTAGIARIO LAGOA SANTA; LAGOA SANTA - 03ª PJ 0,00 0,00 0,00 36,00 0,00 0,00 0,00 0,00 0,00 31/12/2020
617 688800 ANNA LUIZA MATTOS DUARTE ASSESSOR PROCURADOR JUSTICA BELO HORIZONTE - COMARCA; GABINETE DE PROCURADOR DE JUSTIÇA - SALA 305 1.100,00 0,00 450,00 0,00 0,00 0,00 0,00 0,00 0,00 31/12/2020
618 939900 ANNA LUIZA VIRTUOSO ESTAGIARIO IPATINGA; IPATINGA-PJ-04PJ 0,00 0,00 0,00 36,00 874,83 0,00 0,00 0,00 0,00 31/12/2020
619 1017900 ANNE VIEIRA TEODORAK PEGO ESTAGIARIO BELO HORIZONTE; BH-23PJ INFRACIONAL-GAB 142PJ 0,00 0,00 0,00 27,00 0,00 0,00 0,00 0,00 0,00 31/12/2020
620 447600 ANNGELUCE ALCANTARA DE CAMPOS OFICIAL DO MP DIVINÓPOLIS - COMARCA; DIVINOPOLIS-PJ-SECRETARIA 1.100,00 0,00 450,00 0,00 0,00 0,00 0,00 0,00 0,00 31/12/2020
621 119600 ANSELMO BORGES PARREIRAS OFICIAL DO MP BONFIM - COMARCA; BONFIM-PJ-UNPJ 1.100,00 0,00 450,00 0,00 0,00 0,00 0,00 0,00 0,00 31/12/2020
622 630300 ANTONIA GOMES RAMALHO OFICIAL DO MP NOVO CRUZEIRO - COMARCA; NOVO CRUZEIRO-PJ-UNPJ 1.100,00 1.538,78 450,00 0,00 0,00 0,00 0,00 0,00 0,00 31/12/2020
623 332400 ANTONIA MARIA MAMEDE OFICIAL DO MP UBERLÂNDIA - COMARCA; COORD REG PP TRIANGULO MINEIRO UBERLANDIA 1.100,00 0,00 450,00 0,00 0,00 0,00 0,00 0,00 0,00 31/12/2020
624 1010200 ANTONIO AFFONSO FERREIRA GUEDES ESTAGIARIO BELO HORIZONTE; CAO-ORDEM ECONOMICA E TRIBUTARIA-SECRETARIA 0,00 0,00 0,00 45,00 0,00 0,00 0,00 0,00 0,00 31/12/2020
625 73100 ANTONIO AURELIO SANTOS PROCURADOR DE JUSTICA BELO HORIZONTE - COMARCA; CAO-CONFLITOS AGRARIOS 1.100,00 0,00 2.558,40 0,00 11.820,74 0,00 0,00 0,00 541,78 31/12/2020
626 157300 ANTONIO BORGES DA SILVA PROMOTOR 2A ENTRANCIA SÃO LOURENÇO - COMARCA; SAO LOURENCO-PJ-02PJ 1.100,00 0,00 3.070,08 0,00 10.668,22 0,00 0,00 0,00 488,96 31/12/2020
627 401600 ANTONIO CARLOS GUEDES AROUCA ANALISTA DO MP BELO HORIZONTE - COMARCA; EXTINTA-COORD EST DEF DIR FAM PES DEFIC IDOSO 1.100,00 0,00 450,00 0,00 0,00 0,00 0,00 0,00 0,00 31/12/2020
628 76600 ANTONIO DE PADOVA MARCHI JUNIOR PROCURADOR DE JUSTICA BELO HORIZONTE - COMARCA; GABINETE DE PROCURADOR DE JUSTIÇA - SALA 1006 1.100,00 0,00 2.579,72 0,00 11.820,74 0,00 0,00 0,00 541,78 31/12/2020
629 101900 ANTONIO DIAS MAIA PROCURADOR DE JUSTICA BELO HORIZONTE - COMARCA; GABINETE DE PROCURADOR DE JUSTIÇA - SALA 808 1.100,00 0,00 2.558,40 0,00 5.910,37 0,00 0,00 0,00 0,00 31/12/2020
630 84600 ANTONIO DIOGO DA ROCHA PROMOTOR 1A ENTRANCIA BOTELHOS - COMARCA; BOTELHOS-PJ-UNPJ 1.100,00 0,00 2.558,40 0,00 10.134,80 0,00 0,00 0,00 464,51 31/12/2020
631 333900 ANTONIO GONCALVES DE SOUZA FILHO OFICIAL DO MP BELO HORIZONTE - COMARCA; DIRETORIA DE CONTABILIDADE 1.100,00 0,00 450,00 0,00 0,00 0,00 0,00 0,00 0,00 31/12/2020
632 340600 ANTONIO HENRIQUE FRANCO LOPES PROMOT.ENTRANC.ESPECIAL RIBEIRÃO DAS NEVES - COMARCA; RIBEIRAO DAS NEVES-PJ-07PJ 1.100,00 0,00 1.705,60 0,00 5.614,85 0,00 0,00 0,00 0,00 31/12/2020
633 67600 ANTONIO JOAQUIM SCHELLENBERGER FERNANDES PROCURADOR DE JUSTICA BELO HORIZONTE - COMARCA; PROC JUSTICA DIR DIFUSOS E COLETIVOS-GAB004 1.100,00 0,00 2.856,88 0,00 5.910,37 0,00 0,00 0,00 0,00 31/12/2020
634 77300 ANTONIO JOSE CHINELATO PROCURADOR DE JUSTICA BELO HORIZONTE - COMARCA; GABINETE DE PROCURADOR DE JUSTIÇA - SALA 1008 1.100,00 0,00 0,00 0,00 5.910,37 0,00 0,00 0,00 0,00 31/12/2020
635 211800 ANTONIO JOSE DE OLIVEIRA PROMOTOR 2A ENTRANCIA PASSOS - COMARCA; PASSOS-PJ-06PJ 1.100,00 0,00 3.006,12 0,00 5.334,11 0,00 0,00 0,00 0,00 31/12/2020
636 1003300 ANTONIO JOSE ZINATO DE CARVALHO ESTAGIARIO BELO HORIZONTE; PROC. JUSTICA CIVEL
637 176100 ANTONIO MARCELO CAMPOS CAMPANELLA OFICIAL DO MP BELO HORIZONTE - COMARCA; COORD DE GABINETE DO PGJ 1.100,00 0,00 450,00 0,00 0,00 0,00 0,00 0,00 0,00 31/12/2020
638 1093700 ANTONIO MARZOLA PEREIRA JUNIOR ESTAGIARIO MACHADO; MACHADO-PJ-02PJ 0,00 0,00 0,00 144,00 392,17 0,00 0,00 0,00 0,00 31/12/2020
639 321001 ANTONIO OLINTO VIEIRA MACHADO ANALISTA DO MP BELO HORIZONTE - COMARCA; CENTRAL DE APOIO TECN-SETOR DE MEIO AMBIENTE 1.100,00 0,00 450,00 0,00 0,00 0,00 0,00 0,00 0,00 31/12/2020
640 356200 ANTONIO PAULA DA SILVA OFICIAL DO MP JUIZ DE FORA - COMARCA; JUIZ DE FORA-PJ-20PJ 1.100,00 0,00 450,00 0,00 0,00 0,00 0,00 0,00 0,00 31/12/2020
641 63400 ANTONIO PEDRO DA SILVA MELO PROMOT.ENTRANC.ESPECIAL SÃO JOÃO DEL REI - COMARCA; SAO JOAO DEL REI-PJ-01PJ 1.100,00 0,00 2.558,40 0,00 11.229,70 0,00 0,00 0,00 514,69 31/12/2020
642 119900 ANTONIO RODRIGUES DE PINHO OFICIAL DO MP GUANHÃES - COMARCA; GUANHAES-PJ-01PJ 1.100,00 769,39 450,00 0,00 0,00 0,00 0,00 0,00 0,00 31/12/2020
643 373300 ANTONIO SERGIO ANANIAS OFICIAL DO MP AIURUOCA - COMARCA; AIURUOCA-PJ-UNPJ 1.100,00 0,00 450,00 0,00 0,00 0,00 0,00 0,00 0,00 31/12/2020
644 93500 ANTONIO SERGIO ROCHA DE PAULA PROCURADOR DE JUSTICA BELO HORIZONTE - COMARCA; PROC JUSTICA DIR DIFUSOS E COLETIVOS-GAB003 1.100,00 0,00 3.283,28 0,00 5.910,37 0,00 0,00 0,00 -398,42 31/12/2020
645 68700 ANTONIO SERGIO TONET PROCURADOR DE JUSTICA BELO HORIZONTE - COMARCA; PROCURADOR-GERAL DE JUSTICA- GABINETE 1.100,00 0,00 1.684,28 0,00 5.910,37 0,00 0,00 0,00 0,00 31/12/2020
646 608100 ANTONIO SIDINEY VIEIRA LEMOS ANALISTA DO MP PIRAPORA - COMARCA; PIRAPORA-PJ-01PJ 1.100,00 0,00 450,00 0,00 0,00 0,00 0,00 0,00 0,00 31/12/2020
647 374700 ANTONIO SILVA NETO OFICIAL DO MP BELO HORIZONTE - COMARCA; GAECO - SECRETARIA 1.100,00 0,00 450,00 0,00 0,00 0,00 0,00 0,00 0,00 31/12/2020
648 636700 ANTONIUS VITORIANO FERNANDES OFICIAL DO MP BELO HORIZONTE - COMARCA; ASSESSORIA JURIDICA DO PROCON-MG 1.100,00 0,00 450,00 0,00 0,00 0,00 0,00 0,00 0,00 31/12/2020
649 1188100 ANY KARLA DE SOUZA GOMES SANTOS ESTAGIARIO MEDINA; MEDINA-PJ-UNPJ 0,00 0,00 0,00 162,00 0,00 0,00 0,00 0,00 0,00 31/12/2020
650 413200 ANY PEREIRA SILVA ANALISTA DO MP TRÊS PONTAS - COMARCA; TRES PONTAS-PJ-01PJ 1.100,00 0,00 450,00 0,00 0,00 0,00 0,00 0,00 0,00 31/12/2020
651 151401 APARECIDA DE FATIMA MENDES DE ALMEIDA ASSESSOR JUIZ DE FORA - COMARCA; JUIZ DE FORA-PJ-SECRETARIA 1.100,00 0,00 450,00 0,00 0,00 0,00 0,00 0,00 0,00 31/12/2020
652 329300 APARECIDA MARIA MELO DE ASSIS OFICIAL DO MP BELO HORIZONTE - COMARCA; BH-18PJ DIREITOS HUMANOS-SECRETARIA 1.100,00 0,00 450,00 0,00 0,00 0,00 0,00 0,00 0,00 31/12/2020
653 475300 APARECIDA MARLENE FREIRE ROSA ANALISTA DO MP BELO HORIZONTE - COMARCA; BH-02PJ FAMILIA-SECRETARIA 1.100,00 0,00 450,00 0,00 0,00 0,00 0,00 0,00 0,00 31/12/2020
654 653000 APARECIDA ROSA DE LIMA ASSESSOR BELO HORIZONTE - COMARCA; SECRETARIA PROCESSOS DISCIPES ADMINISTRATIVOS 1.100,00 0,00 450,00 0,00 0,00 0,00 0,00 0,00 0,00 31/12/2020
655 354500 APARECIDA VIEIRA DE CARVALHO OFICIAL DO MP BELO HORIZONTE - COMARCA; DIVISÃO DE EDUCAÇÃO PARA O CONSUMO 1.100,00 0,00 450,00 0,00 0,00 0,00 0,00 0,00 0,00 31/12/2020
656 551000 ARACELES BICALHO FELIX ANALISTA DO MP MANHUAÇU - COMARCA; MANHUACU-PJ-02PJ 1.100,00 769,39 450,00 0,00 0,00 0,00 0,00 0,00 0,00 31/12/2020
657 286200 ARACELI MEDRADO DOS SANTOS LIMA OFICIAL DO MP PARACATU - COMARCA; PARACATU-PJ-03PJ 1.100,00 0,00 450,00 0,00 0,00 0,00 0,00 0,00 0,00 31/12/2020
658 112200 ARAQUEM AUGUSTO DE MATOS AGENTE DO MP BELO HORIZONTE - COMARCA; BH-23PJ CIVEL-SEC EXP CIVEIS 1.100,00 0,00 450,00 0,00 0,00 0,00 0,00 0,00 0,00 31/12/2020
659 280600 ARDUINO FRATTEZI ANALISTA DO MP BELO HORIZONTE - COMARCA; CENTRAL DE APOIO TECNICO-SETOR CONTABIL 1.100,00 0,00 450,00 0,00 0,00 0,00 0,00 0,00 0,00 31/12/2020
660 67700 ARESLAN EUSTAQUIO MARTINS PROMOTOR 1A ENTRANCIA CARMO DA MATA - COMARCA; CARMO DA MATA-PJ-UNPJ 1.100,00 0,00 2.963,48 0,00 10.134,80 0,00 0,00 0,00 464,51 31/12/2020
661 1090300 ARIADNE ALENCAR SOUZA ESTAGIARIO GOVERNADOR VALADARES; GOVERNADOR VALADARES-PJ-15PJ 0,00 0,00 0,00 162,00 0,00 0,00 0,00 0,00 0,00 31/12/2020
662 1178300 ARIANA DA SILVA MIRANDA ESTAGIARIO DIVINOPOLIS; DIVINOPOLIS-PJ-12PJ 0,00 0,00 0,00 99,00 0,00 0,00 0,00 0,00 0,00 31/12/2020
663 520201 ARIANE DE FATIMA CARVALHO ALMEIDA RODRIGUES ANALISTA DO MP VESPASIANO - COMARCA; VESPASIANO-PJ-04PJ 1.100,00 769,39 450,00 0,00 0,00 0,00 0,00 0,00 0,00 31/12/2020
664 1079800 ARICIA FERNANDES DRUMOND SOARES ESTAGIARIO BETIM; BETIM-PJ-04PJ 0,00 0,00 0,00 72,00 0,00 0,00 0,00 0,00 0,00 31/12/2020
665 1116700 ARIEL DE OLIVEIRA SANTOS ESTAGIARIO DIVINOPOLIS; DIVINOPOLIS-PJ-09PJ 0,00 0,00 0,00 36,00 0,00 0,00 0,00 0,00 0,00 31/12/2020
666 537600 ARIELA FREIRE MONTIJO ANALISTA DO MP ARCOS - COMARCA; ARCOS-PJ-01PJ 1.100,00 769,39 450,00 0,00 0,00 0,00 0,00 0,00 0,00 31/12/2020
667 182000 ARILSON ALEXANDRE MARTINS MAGALHAES OFICIAL DO MP JOÃO MONLEVADE - COMARCA; JOAO MONLEVADE-PJ-01PJ 1.100,00 1.538,78 450,00 0,00 0,00 0,00 0,00 0,00 0,00 31/12/2020
668 511000 ARISLANE CAROLINA DA SILVA ANALISTA DO MP CAMPINA VERDE - COMARCA; CAMPINA VERDE-PJ-UNPJ 1.100,00 1.538,78 450,00 0,00 0,00 0,00 0,00 0,00 0,00 31/12/2020
669 212000 ARLEN DE OLIVEIRA FERNANDES PROMOT.ENTRANC.ESPECIAL BELO HORIZONTE - COMARCA; BH-12PJ JUIZO CRIMINAL-GAB 098PJ 1.100,00 0,00 2.387,84 0,00 5.614,85 0,00 0,00 0,00 0,00 31/12/2020
670 170000 ARLEY BRITES DA SILVA ASSESSOR BELO HORIZONTE - COMARCA; BH-14PJ DEFESA CONSUMIDOR-SECRETARIA 1.100,00 0,00 450,00 0,00 0,00 0,00 0,00 0,00 0,00 31/12/2020
671 120400 ARLINDO CASSIO DA CRUZ OFICIAL DO MP SÃO GONÇALO DO SAPUCAÍ - COMARCA; SAO GONCALO DO SAPUCAI-PJ-01PJ 1.100,00 0,00 450,00 0,00 0,00 0,00 0,00 0,00 0,00 31/12/2020
672 243700 ARLINDO MARCIO LACERDA OFICIAL DO MP CONTAGEM - COMARCA; CONTAGEM-PJ-SECRETARIA 1.100,00 0,00 450,00 0,00 0,00 0,00 1.445,27 0,00 0,00 31/12/2020
673 111900 ARNALDO ALVES SOARES PROCURADOR DE JUSTICA BELO HORIZONTE - COMARCA; GABINETE DE PROCURADOR DE JUSTIÇA - SALA 306 1.100,00 0,00 2.302,56 0,00 5.910,37 0,00 0,00 0,00 0,00 31/12/2020
674 392100 ARNALDO DE ANDRADE OFICIAL DO MP DIVINÓPOLIS - COMARCA; DIVINOPOLIS-PJ-02PJ 1.100,00 769,39 450,00 0,00 0,00 0,00 1.445,27 0,00 0,00 31/12/2020
675 75900 ARNALDO GOMES RIBEIRO PROCURADOR DE JUSTICA BELO HORIZONTE - COMARCA; GABINETE DE PROCURADOR DE JUSTIÇA - SALA 602 1.100,00 0,00 0,00 0,00 11.820,74 0,00 0,00 0,00 541,78 31/12/2020
676 642400 ARTANE INARDE DE SIQUEIRA DAMASCENO ANALISTA DO MP BELO HORIZONTE - COMARCA; PROC JUST RECURSOS ESP E EXTRAORD CRIMINAIS 1.100,00 769,39 450,00 0,00 0,00 0,00 0,00 0,00 0,00 31/12/2020
677 1145900 ARTEMIS RIBEIRO DE NORONHA ESTAGIARIO SAO LOURENCO; SAO LOURENCO-PJ-02PJ 0,00 0,00 0,00 63,00 0,00 0,00 0,00 0,00 0,00 31/12/2020
678 1006500 ARTHUR BRANDAO ALBUQUERQUE ESTAGIARIO BELO HORIZONTE; DIV FISCAL ADM CONT TERCEIRIZACAO 0,00 0,00 0,00 9,00 0,00 0,00 0,00 0,00 0,00 31/12/2020
679 991200 ARTHUR DE SOUZA MENEZES ESTAGIARIO CASSIA; CASSIA-PJ-02PJ 0,00 0,00 0,00 45,00 633,50 0,00 0,00 0,00 0,00 31/12/2020
680 1070400 ARTHUR ESPINDULA VILAS ESTAGIARIO RESPLENDOR; RESPLENDOR-PJ-UNPJ 0,00 0,00 0,00 90,00 0,00 0,00 0,00 0,00 0,00 31/12/2020
681 1146000 ARTHUR FELIX VELAME ESTAGIARIO GOVERNADOR VALADARES; GOVERNADOR VALADARES-PJ-16PJ 0,00 0,00 0,00 99,00 0,00 0,00 0,00 0,00 0,00 31/12/2020
682 1085200 ARTHUR JOSE RODRIGUES CARVALHO ESTAGIARIO BELO HORIZONTE; DSMT-LABORATORIO DE MANUTENCAO 0,00 0,00 0,00 63,00 0,00 0,00 0,00 0,00 0,00 31/12/2020
683 1125200 ARTHUR JOSE VIEIRA GOMES SALES ESTAGIARIO BELO HORIZONTE; GABINETE DE PROCURADOR DE JUSTIÇA - SALA 713 0,00 0,00 0,00 90,00 0,00 0,00 0,00 0,00 0,00 31/12/2020
684 1119700 ARTHUR POZAM GARRIDO ESTAGIARIO 0,00 0,00 0,00 117,00 0,00 0,00 0,00 0,00 0,00 31/12/2020
685 1168200 ARTHUR RICART DA COSTA NETO ESTAGIARIO SAO JOAO DEL REI; SAO JOAO DEL REI-PJ-05PJ 0,00 0,00 0,00 72,00 0,00 0,00 0,00 0,00 0,00 31/12/2020
686 1181100 ARTUR FONTE BOA TEOFILO ESTAGIARIO BELO HORIZONTE; DIRET DE ESTAGIOS E CONVENIOS ACADEMICOS 0,00 0,00 0,00 135,00 0,00 0,00 0,00 0,00 0,00 31/12/2020
687 221400 ARTUR FORSTER GIOVANNINI PROMOTOR 2A ENTRANCIA TRÊS PONTAS - COMARCA; TRES PONTAS-PJ-01PJ 1.100,00 0,00 2.174,64 0,00 5.334,11 0,00 0,00 0,00 0,00 31/12/2020
688 1096900 ARTUR FRANCISCO DURAES BATISTA ESTAGIARIO
689 1205000 ARTUR ROCHA RIBEIRO ESTAGIARIO BELO HORIZONTE; BH-13PJ JUIZO DE TOXICOS-GAB 164PJ 0,00 0,00 0,00 117,00 0,00 0,00 0,00 0,00 0,00 31/12/2020
690 1167800 ARTUR TAVARES PEREIRA SOARES ESTAGIARIO BELO HORIZONTE; BH-09PJ AUDITORIA MILITAR-GAB 161PJ
691 313500 ARY PEDROSA BITTENCOURT PROMOT.ENTRANC.ESPECIAL SANTA LUZIA - COMARCA; SANTA LUZIA-PJ-05PJ 1.100,00 0,00 1.599,00 0,00 5.614,85 0,00 0,00 0,00 0,00 31/12/2020
692 1104000 ASTROGILDO JUNIOR KRUL MACIEL ESTAGIARIO GOVERNADOR VALADARES; COOR REG APOIO COM INC MOB VALE DO RIO DOCE
693 1067900 ATENAS CRISTINI DE LACERDA E RODRIGUES ESTAGIARIO VICOSA; VICOSA-PJ-02PJ 0,00 0,00 0,00 153,00 0,00 0,00 0,00 0,00 0,00 31/12/2020
694 315700 ATHAIDE FRANCISCO PERES OLIVEIRA PROMOTOR 2A ENTRANCIA PATOS DE MINAS - COMARCA; COORD REG BACIAS PARACATU,URUCUIA E ABAETE 1.100,00 0,00 2.878,20 0,00 0,00 0,00 0,00 0,00 0,00 31/12/2020
695 1181000 AUGUSTO CARMACIO ESTAGIARIO VARGINHA; COORD REG PJ DEF EDUC DIR CRIANCA ADOL SUL 0,00 0,00 0,00 126,00 0,00 0,00 0,00 0,00 0,00 31/12/2020
696 666600 AUGUSTO REIS BALLARDIM PROMOTOR 1A ENTRANCIA ITAMARANDIBA - COMARCA; ITAMARANDIBA-PJ-UNPJ 1.100,00 0,00 1.407,12 0,00 5.067,40 0,00 0,00 0,00 0,00 31/12/2020
697 302100 AUGUSTO ROUSSEAU DE CASTRO ANALISTA DO MP CATAGUASES - COMARCA; CATAGUASES-PJ-02PJ 1.100,00 0,00 450,00 0,00 0,00 0,00 0,00 0,00 0,00 31/12/2020
698 540200 AUREA AVELAR BITTENCOURT OFICIAL DO MP BELO HORIZONTE - COMARCA; GRUPO ESP PROM JUST DEF PROB ADM PAT PUB 1.100,00 0,00 450,00 0,00 0,00 0,00 0,00 0,00 0,00 31/12/2020
699 183200 AURELIANO MAGELA DE REZENDE COORDENADOR/OFICIAL BELO HORIZONTE - COMARCA; COORD DE GABINETE DO PGJ 1.100,00 0,00 450,00 0,00 0,00 0,00 0,00 0,00 0,00 31/12/2020
700 106500 AVAIDE MARCOS MARIANO PROMOT.ENTRANC.ESPECIAL UBERLÂNDIA - COMARCA; UBERLANDIA-PJ-13PJ 1.100,00 0,00 1.279,20 0,00 8.983,76 0,00 0,00 0,00 308,82 31/12/2020
701 629400 AYESKA DA COSTA VAL MOURA DABIEN OFICIAL DO MP BELO HORIZONTE - COMARCA; SUPERINTENDENCIA GESTÃO DE PESSOAS 1.100,00 0,00 450,00 0,00 0,00 0,00 0,00 0,00 0,00 31/12/2020
702 151800 AYLOR LUIZ MEIRELLES JUNIOR PROMOTOR 2A ENTRANCIA SÃO DOMINGOS DO PRATA - COMARCA; SAO DOMINGOS DO PRATA-PJ-UNPJ 1.100,00 0,00 2.153,32 0,00 10.668,22 0,00 0,00 0,00 488,96 31/12/2020
703 1122200 AYMEE JOHANSSENN TYNEE CORREIA ALVES ESTAGIARIO NOVA LIMA; NOVA LIMA-PJ-01PJ 0,00 0,00 0,00 72,00 0,00 0,00 0,00 0,00 0,00 31/12/2020
704 1152400 AYUME PINTO OLIVEIRA ESTAGIARIO AGUAS FORMOSAS; AGUAS FORMOSAS-PJ-UNPJ 0,00 0,00 0,00 153,00 0,00 0,00 0,00 0,00 0,00 31/12/2020
705 1130600 BARBARA APARECIDA RODRIGUES DE CASTRO ESTAGIARIO MARTINHO CAMPOS; MARTINHO CAMPOS-PJ-UNPJ 0,00 0,00 0,00 144,00 241,33 0,00 0,00 0,00 0,00 31/12/2020
706 1204100 BARBARA BRITO DE SOUZA ESTAGIARIO NANUQUE; NANUQUE-PJ-02PJ 0,00 0,00 0,00 117,00 0,00 0,00 0,00 0,00 0,00 31/12/2020
707 1036600 BARBARA CANELLA CORREA ESTAGIARIO VARGINHA; VARGINHA-PJ-06PJ 0,00 0,00 0,00 162,00 0,00 0,00 0,00 0,00 0,00 31/12/2020
708 1051900 BARBARA CHAVES OLIVEIRA ESTAGIARIO BELO HORIZONTE; PROC. JUSTICA DIR. DIFUSOS E COLETIVOS
709 1087100 BARBARA CLAUDINO GUIMARAES DIAS ESTAGIARIO BELO HORIZONTE; BH-09PJ AUDITORIA MILITAR-GAB 002PJ
710 1150900 BARBARA COSTA ALVES ESTAGIARIO MONTES CLAROS; MONTES CLAROS-PJ-SECRETARIA 0,00 0,00 0,00 90,00 0,00 0,00 0,00 0,00 0,00 31/12/2020
711 691900 BARBARA COUTINHO REIS ASSESSOR PROCURADOR JUSTICA BELO HORIZONTE - COMARCA; GABINETE DE PROCURADOR DE JUSTIÇA - SALA 912 1.100,00 0,00 450,00 0,00 0,00 0,00 0,00 0,00 0,00 31/12/2020
712 692200 BARBARA CRISTINA MENDES BANDEIRA DE MELO ASSESSOR PROCURADOR JUSTICA BELO HORIZONTE - COMARCA; GABINETE DE PROCURADOR DE JUSTIÇA - SALA 1009 1.100,00 0,00 450,00 0,00 0,00 0,00 0,00 0,00 0,00 31/12/2020
713 1163600 BARBARA CRISTINA SOUZA E SOUSA ESTAGIARIO BELO HORIZONTE; BH-23PJ INFRACIONAL 0,00 0,00 0,00 72,00 0,00 0,00 0,00 0,00 0,00 31/12/2020
714 1030400 BARBARA CRISTINA TAVARES CARNEIRO ESTAGIARIO BELO HORIZONTE; PROC. JUSTICA CRIMINAL 0,00 0,00 0,00 72,00 0,00 0,00 0,00 0,00 0,00 31/12/2020
715 1134200 BARBARA DANIELA ELIAS JAQUES ESTAGIARIO PRADOS; PRADOS-PJ-UNPJ 0,00 0,00 0,00 162,00 0,00 0,00 0,00 0,00 0,00 31/12/2020
716 1118700 BARBARA DE MELO CARNEIRO ESTAGIARIO 0,00 0,00 0,00 99,00 0,00 0,00 0,00 0,00 0,00 31/12/2020
717 1168500 BARBARA DE OLIVEIRA ALVES ESTAGIARIO MANTENA; MANTENA-PJ-03PJ 0,00 0,00 0,00 162,00 0,00 0,00 0,00 0,00 0,00 31/12/2020
718 1168400 BARBARA DE SOUSA LIMA MELO ESTAGIARIO BELO HORIZONTE; PROMOT ESTADUAL DE DEF PATRI CULT E TUR DE MG 0,00 0,00 0,00 36,00 0,00 0,00 0,00 0,00 0,00 31/12/2020
719 1166500 BARBARA FERNANDES AMARAL ESTAGIARIO GOVERNADOR VALADARES; GOVERNADOR VALADARES-PJ-04PJ 0,00 0,00 0,00 144,00 0,00 0,00 0,00 0,00 0,00 31/12/2020
720 314700 BARBARA FRANCINE PRETTE NUNES PROMOTOR 1A ENTRANCIA PERDIZES - COMARCA; PERDIZES-PJ-UNPJ 1.100,00 0,00 2.217,28 0,00 8.107,84 0,00 0,00 0,00 278,71 31/12/2020
721 652800 BARBARA JULIANNE MOREIRA CASTRO ASSESSOR BELO HORIZONTE - COMARCA; ASSESS TECNICO-JUR JUNTO AS PROC. DE JUST 1.100,00 0,00 450,00 0,00 0,00 0,00 0,00 0,00 0,00 31/12/2020
722 1089900 BARBARA LOURENCO LIMA ESTAGIARIO JANAUBA; JANAUBA-PJ-02PJ 0,00 0,00 0,00 126,00 392,17 0,00 0,00 0,00 0,00 31/12/2020
723 1140000 BARBARA MAIA DE MEDEIROS ESTAGIARIO JUIZ DE FORA; JUIZ DE FORA-PJ-03PJ 0,00 0,00 0,00 90,00 0,00 0,00 0,00 0,00 0,00 31/12/2020
724 1078500 BARBARA MARIA COSTA PEREIRA ESTAGIARIO MONTES CLAROS; MONTES CLAROS-PJ-12PJ 0,00 0,00 0,00 117,00 0,00 0,00 0,00 0,00 0,00 31/12/2020
725 1074400 BARBARA MARKIAZI LIMA GALVAO ESTAGIARIO DIVINOPOLIS; DIVINOPOLIS-PJ-13PJ 0,00 0,00 0,00 108,00 0,00 0,00 0,00 0,00 0,00 31/12/2020
726 666500 BARBARA MARTINS DE SOUZA PROMOTOR 2A ENTRANCIA MANTENA - COMARCA; MANTENA-PJ-02PJ 1.100,00 0,00 703,56 0,00 5.334,11 0,00 0,00 0,00 0,00 31/12/2020
727 1168100 BARBARA MIRANDA MEDRADO DE SOUZA ESTAGIARIO BELO HORIZONTE; ASSESSORIA ESPECIAL DO PGJ 0,00 0,00 0,00 27,00 0,00 0,00 0,00 0,00 0,00 31/12/2020
728 1206200 BARBARA PORTES BRAGA ESTAGIARIO BELO HORIZONTE; PROC. JUSTICA CIVEL 0,00 0,00 0,00 108,00 0,00 0,00 0,00 0,00 0,00 31/12/2020
729 944000 BARBARA QUEIROZ FONSECA ESTAGIARIO PATOS DE MINAS; PATOS DE MINAS-PJ-02PJ 0,00 0,00 0,00 90,00 0,00 0,00 0,00 0,00 0,00 31/12/2020
730 663600 BARBARA REGINA PEREIRA DE PINHO MAGALHAES ASSESSOR BELO HORIZONTE - COMARCA; CAO-DH CONT EXT ATIV POLIC E AP COMUNIT-REC 1.100,00 0,00 450,00 0,00 0,00 0,00 0,00 0,00 0,00 31/12/2020
731 685500 BARBARA RODRIGUES DE PAULA PROMOTOR SUBSTITUTO VIRGINÓPOLIS - COMARCA; VIRGINOPOLIS-PJ-UNPJ 1.100,00 0,00 596,96 0,00 0,00 0,00 0,00 0,00 0,00 31/12/2020
732 1003200 BARBARA SANTOS SILVA ESTAGIARIO PAINS; ALFENAS-PJ-03PJ
733 692400 BARBARA SOUZA OLIVEIRA ASSESSOR PROMOTOR JUSTICA DIVINO - COMARCA; DIVINO-PJ-UNPJ 1.100,00 0,00 450,00 0,00 0,00 0,00 0,00 0,00 0,00 31/12/2020
734 546500 BARBARA ZACARONI GOULART OFICIAL DO MP BETIM - COMARCA; BETIM-PJ-08PJ 1.100,00 0,00 450,00 0,00 0,00 0,00 0,00 0,00 0,00 31/12/2020
735 316500 BEATRIZ ABILVIA DA SILVA ANALISTA DO MP GOVERNADOR VALADARES - COMARCA; GOVERNADOR VALADARES-PJ-07PJ 1.100,00 0,00 450,00 0,00 0,00 0,00 0,00 0,00 0,00 31/12/2020
736 311800 BEATRIZ APARECIDA SOARES GANEM OFICIAL DO MP ITAMBACURI - COMARCA; ITAMBACURI-PJ-02PJ 1.100,00 0,00 450,00 0,00 0,00 0,00 0,00 0,00 0,00 31/12/2020
737 266800 BEATRIZ AUGUSTA VILACA GOMES DE HUBER OFICIAL DO MP BELO HORIZONTE - COMARCA; BH-05PJ-JUÍZO SUCESSÕES-SEC 1.100,00 0,00 450,00 0,00 0,00 0,00 0,00 0,00 0,00 31/12/2020
738 1122400 BEATRIZ BIANCO HELENA ESTAGIARIO POCOS DE CALDAS; POCOS DE CALDAS-PJ-05PJ 0,00 0,00 0,00 153,00 0,00 0,00 0,00 0,00 0,00 31/12/2020
739 235200 BEATRIZ BOTELHO BATISTA OFICIAL DO MP BELO HORIZONTE - COMARCA; BH-21PJ TUTELA FUNDACOES-SECRETARIA 1.100,00 0,00 450,00 0,00 0,00 0,00 0,00 0,00 0,00 31/12/2020
740 1109800 BEATRIZ OLIVEIRA SILVA ESTAGIARIO NOVA LIMA; NOVA LIMA-PJ-01PJ 0,00 0,00 0,00 144,00 0,00 0,00 0,00 0,00 0,00 31/12/2020
741 182300 BEATRIZ PAULA SOUSA RAMOS OFICIAL DO MP MARIANA - COMARCA; MARIANA-PJ-01PJ 1.100,00 0,00 450,00 0,00 0,00 0,00 0,00 0,00 0,00 31/12/2020
742 1018600 BEATRIZ PERES FURLANI ESTAGIARIO UBA; COORD REG BACIA DO RIO PARAIBA DO SUL
743 906300 BEATRIZ REIS ABREU ESTAGIARIO MONTES CLAROS; MONTES CLAROS-PJ-01PJ 0,00 0,00 0,00 63,00 0,00 0,00 0,00 0,00 0,00 31/12/2020
744 1063700 BEATRIZ ROMEIRO DO CARMO ESTAGIARIO MANHUMIRIM; MANHUMIRIM-PJ-01PJ 0,00 0,00 0,00 153,00 0,00 0,00 0,00 0,00 0,00 31/12/2020
745 964400 BEATRIZ SIMAS TELES ROMANO ESTAGIARIO BELO HORIZONTE; PROC. JUSTICA DE HABEAS CORPUS
746 1184300 BEATRIZ SOUSA LACERDA ESTAGIARIO 0,00 0,00 0,00 63,00 0,00 0,00 0,00 0,00 0,00 31/12/2020
747 1079900 BEATRIZ VIEIRA COSTA ESTAGIARIO BELO HORIZONTE; BH-12PJ JUIZO CRIMINAL-GAB 083PJ 0,00 0,00 0,00 135,00 0,00 0,00 0,00 0,00 30,17 31/12/2020
748 507000 BELCHIOR FRANKLIN AMARAL LEITE ANALISTA DO MP BELO HORIZONTE - COMARCA; CENTRAL DE APOIO TECNICO 1.100,00 769,39 450,00 0,00 0,00 0,00 0,00 0,00 0,00 31/12/2020
749 345100 BENITO ELIAS RODRIGUES ANALISTA DO MP BARBACENA - COMARCA; BARBACENA - SECRETARIA DAS PJS CRIMINAIS 1.100,00 0,00 450,00 0,00 0,00 0,00 0,00 0,00 0,00 31/12/2020
750 207300 BENITO VIEIRA DOS SANTOS ANALISTA DO MP BELO HORIZONTE - COMARCA; PROC JUST ESP ACOES COMP ORIG CRIMINAL-ASSESS 1.100,00 0,00 450,00 0,00 0,00 0,00 0,00 0,00 0,00 31/12/2020
751 84700 BERGSON CARDOSO GUIMARAES PROMOTOR 2A ENTRANCIA CAXAMBU - COMARCA; CAXAMBU-PJ-UNPJ 1.100,00 0,00 3.200,47 0,00 0,00 0,00 0,00 0,00 0,00 31/12/2020
752 480200 BERNADETE NUNES DOS SANTOS ANALISTA DO MP GUANHÃES - COMARCA; GUANHAES-PJ-02PJ 1.100,00 0,00 450,00 0,00 0,00 0,00 0,00 0,00 0,00 31/12/2020
753 969400 BERNARDO ALVES GOMES ESTAGIARIO BELO HORIZONTE; BH-15PJ M AMB PAT HIST CULT-GAB 116PJ 0,00 0,00 0,00 54,00 0,00 0,00 0,00 0,00 0,00 31/12/2020
754 1006600 BERNARDO DE ALMEIDA VIEIRA ESTAGIARIO SAO JOAO DEL REI; SAO JOAO DEL REI-PJ-03PJ 0,00 0,00 0,00 9,00 0,00 0,00 0,00 0,00 0,00 31/12/2020
755 456700 BERNARDO DE MOURA LIMA PAIVA JEHA PROMOTOR 2A ENTRANCIA CARMO DO PARANAÍBA - COMARCA; CARMO DO PARANAIBA-PJ-01PJ 1.100,00 0,00 2.451,80 0,00 5.334,11 0,00 0,00 0,00 0,00 31/12/2020
756 666800 BERNARDO DUMONT PIRES PROMOT.ENTRANC.ESPECIAL TEÓFILO OTONI - COMARCA; TEOFILO OTONI-PJ-02PJ 1.100,00 0,00 703,56 0,00 11.229,70 0,00 0,00 0,00 0,00 31/12/2020
757 995400 BERNARDO MARTINS FERREIRA DE MELLO ESTAGIARIO BELO HORIZONTE; BH-07PJ 01 TRIBUNAL DO JURI-GAB 065PJ 0,00 0,00 0,00 90,00 0,00 0,00 0,00 0,00 0,00 31/12/2020
758 1099400 BERNARDO PIFANO DE CASTRO ESTAGIARIO JUIZ DE FORA; JUIZ DE FORA-PJ-10PJ 0,00 0,00 0,00 90,00 0,00 0,00 0,00 0,00 0,00 31/12/2020
759 74300 BERTOLDO MATEUS DE OLIVEIRA FILHO PROCURADOR DE JUSTICA BELO HORIZONTE - COMARCA; GABINETE DE PROCURADOR DE JUSTIÇA - SALA 903 1.100,00 0,00 2.451,80 0,00 11.820,74 0,00 0,00 0,00 541,78 31/12/2020
760 162900 BETANIA CABRAL DE PINA LARCHER PROMOT.ENTRANC.ESPECIAL CONTAGEM - COMARCA; CONTAGEM-PJ-18PJ 1.100,00 0,00 980,72 0,00 5.614,85 0,00 0,00 0,00 0,00 31/12/2020
761 378400 BETANIA FARNESI DE SOUZA E SILVA OFICIAL DO MP SETE LAGOAS - COMARCA; SETE LAGOAS-PJ-SEC CRIMINAIS 1.100,00 0,00 450,00 0,00 0,00 0,00 0,00 0,00 0,00 31/12/2020
762 387400 BETANIA MENDONCA DE ASSIS CARVALHO ANALISTA DO MP JUIZ DE FORA - COMARCA; JUIZ DE FORA-PJ-03PJ 1.100,00 769,39 450,00 0,00 0,00 0,00 0,00 0,00 0,00 31/12/2020
763 1147500 BETHANIA MORENA RODRIGUES GOMES ESTAGIARIO RIBEIRAO DAS NEVES; RIBEIRAO DAS NEVES-PJ-10PJ 0,00 0,00 0,00 63,00 0,00 0,00 0,00 0,00 0,00 31/12/2020
764 926600 BIANCA ARRUDA MOREIRA ESTAGIARIO MUTUM; MUTUM-PJ-UNPJ 0,00 0,00 0,00 45,00 60,33 0,00 0,00 0,00 0,00 31/12/2020
765 1192800 BIANCA CRISTINA PORTES ESTAGIARIO BARBACENA; BARBACENA - SECRETARIA DAS PJS CRIMINAIS 0,00 0,00 0,00 162,00 0,00 0,00 0,00 0,00 0,00 31/12/2020
766 1033900 BIANCA CRISTINA SOUZA ESTAGIARIO PATOS DE MINAS; PATOS DE MINAS-PJ-04PJ 0,00 0,00 0,00 54,00 0,00 0,00 0,00 0,00 0,00 31/12/2020
767 1108000 BIANCA DE CASTRO RAMOS ESTAGIARIO CONTAGEM; CONTAGEM-PJ-20PJ 0,00 0,00 0,00 63,00 0,00 0,00 0,00 0,00 0,00 31/12/2020
768 1025000 BIANCA DE OLIVEIRA BORGES ESTAGIARIO ITUIUTABA; ITUIUTABA-PJ-03PJ 0,00 0,00 0,00 162,00 0,00 0,00 0,00 0,00 0,00 31/12/2020
769 1115600 BIANCA EDUARDA RIBEIRO COSTA ESTAGIARIO UBERABA; UBERABA-PJ-05PJ 0,00 0,00 0,00 72,00 0,00 0,00 0,00 0,00 0,00 31/12/2020
770 450300 BIANCA OLIVEIRA DE ALBUQUERQUE ANALISTA DO MP BELO HORIZONTE - COMARCA; BH-10PJ EXECUÇÃO PENAL-SECRETARIA 1.100,00 0,00 450,00 0,00 0,00 0,00 0,00 0,00 0,00 31/12/2020
771 1136100 BIANCA RIBEIRO BORGES ESTAGIARIO BELO HORIZONTE; BH-12PJ JUIZO CRIMINAL-GAB 086PJ 0,00 0,00 0,00 162,00 0,00 0,00 0,00 0,00 0,00 31/12/2020
772 535400 BIANCA SALOTO ROSSI ANALISTA DO MP SANTOS DUMONT - COMARCA; SANTOS DUMONT-PJ-01PJ 1.100,00 871,98 450,00 0,00 0,00 0,00 0,00 0,00 0,00 31/12/2020
773 120800 BRAS MARQUES DE SOUZA ANALISTA DO MP BELO HORIZONTE - COMARCA; SUPERINTENDENCIA DE GESTAO ADMINISTRATIVA 1.100,00 0,00 450,00 0,00 0,00 0,00 0,00 0,00 0,00 31/12/2020
774 1179500 BRENDA ALCANTARA RAMALHO ESTAGIARIO BETIM; BETIM-PJ-03PJ 0,00 0,00 0,00 162,00 0,00 0,00 0,00 0,00 0,00 31/12/2020
775 1084600 BRENDA ALEIXA DIAS DA SILVA ESTAGIARIO ITABIRA; ITABIRA-PJ-01PJ
776 1159100 BRENDA CUSTODIO DE ABREU ESTAGIARIO CONCEICAO DAS ALAGOAS; CONCEICAO DAS ALAGOAS-PJ-01PJ 0,00 0,00 0,00 90,00 0,00 0,00 0,00 0,00 0,00 31/12/2020
777 1204400 BRENDA GABRIELA ROCHA CRUZ ESTAGIARIO MANGA; MANGA-PJ-02PJ 0,00 0,00 0,00 117,00 0,00 0,00 0,00 0,00 0,00 31/12/2020
778 1127000 BRENDA LORENA DE ALMEIDA ESTAGIARIO CONTAGEM; CONTAGEM-PJ-09PJ 0,00 0,00 0,00 90,00 0,00 0,00 0,00 0,00 0,00 31/12/2020
779 1189700 BRENDA LORRANA FRANCO ESTAGIARIO UBERLANDIA; UBERLANDIA-PJ-20PJ 0,00 0,00 0,00 162,00 0,00 0,00 0,00 0,00 0,00 31/12/2020
780 1034500 BRENDA LUIZA SILVA FERREIRA ESTAGIARIO BELO HORIZONTE; PROC. JUSTICA DIR. DIFUSOS E COLETIVOS
781 1179600 BRENDA SILVA ROCHA ESTAGIARIO BELO HORIZONTE; PROC. JUSTICA DE HABEAS CORPUS
782 937600 BRENNO VINICIUS MAGESTE ROSA ESTAGIARIO MANHUACU; MANHUACU-PJ-02PJ 0,00 0,00 0,00 54,00 0,00 0,00 0,00 0,00 0,00 31/12/2020
783 372400 BRENO COSTA DA SILVA COELHO PROMOTOR 2A ENTRANCIA VISCONDE DO RIO BRANCO - COMARCA; GAECO REGIONAL ZONA MATA-VISCONDE RIO BRANCO 1.100,00 0,00 2.025,40 0,00 5.334,11 0,00 0,00 0,00 0,00 31/12/2020
784 460900 BRENO CRISTIANO DE SOUZA REZENDE ANALISTA DO MP ITAÚNA - COMARCA; ITAUNA-PJ-02PJ 1.100,00 0,00 450,00 0,00 0,00 0,00 0,00 0,00 0,00 31/12/2020
785 969300 BRENO DIAS ROCHA ESTAGIARIO BELO HORIZONTE; SUPERINTENDENCIA DOS ORGAOS COLEGIADOS
786 96700 BRENO LINHARES LINTZ PROMOT.ENTRANC.ESPECIAL UBERLÂNDIA - COMARCA; UBERLANDIA-PJ-10PJ 1.100,00 0,00 0,00 0,00 5.614,85 0,00 0,00 0,00 514,69 31/12/2020
787 439500 BRENO MAX DE JESUS SILVEIRA PROMOTOR 2A ENTRANCIA CARANGOLA - COMARCA; CARANGOLA-PJ-02PJ 1.100,00 0,00 895,44 0,00 5.334,11 0,00 0,00 0,00 0,00 31/12/2020
788 439300 BRENO NASCIMENTO PACHECO PROMOTOR 2A ENTRANCIA PATROCÍNIO - COMARCA; PATROCINIO-PJ-01PJ 1.100,00 0,00 2.878,20 0,00 5.334,11 0,00 0,00 0,00 0,00 31/12/2020
789 239000 BRENO VENANCIO ROMANINI OFICIAL DO MP BELO HORIZONTE - COMARCA; BH-20PJ ORD ECON TRIBUTARIA-SECRETARIA 1.100,00 0,00 450,00 0,00 0,00 0,00 0,00 0,00 0,00 31/12/2020
790 1106200 BRIAN ATHER MARTINS ESTAGIARIO BARBACENA; BARBACENA-PJ-09PJ 0,00 0,00 0,00 72,00 0,00 0,00 0,00 0,00 0,00 31/12/2020
791 202201 BRIGITTE AMARALINA DE CALDAS LIMA OFICIAL DO MP NANUQUE - COMARCA; NANUQUE-PJ-03PJ 1.100,00 0,00 450,00 0,00 0,00 0,00 0,00 0,00 0,00 31/12/2020
792 1092100 BRUNA ALMEIDA LOPES ESTAGIARIO JUIZ DE FORA; JUIZ DE FORA-PJ-07PJ 0,00 0,00 0,00 81,00 0,00 0,00 0,00 0,00 0,00 31/12/2020
793 1030300 BRUNA ARRUDA PRATES ESTAGIARIO BELO HORIZONTE; PROC. JUSTICA CRIMINAL 0,00 0,00 0,00 36,00 0,00 0,00 0,00 0,00 0,00 31/12/2020
794 659300 BRUNA BODONI FACCIOLI PROMOTOR 2A ENTRANCIA NANUQUE - COMARCA; NANUQUE-PJ-01PJ 1.100,00 0,00 1.407,12 0,00 10.668,22 0,00 0,00 0,00 488,96 31/12/2020
795 1085600 BRUNA CARLA ALVES ESTAGIARIO SAO JOAO DEL REI; SAO JOAO DEL REI-PJ-04PJ 0,00 0,00 0,00 153,00 0,00 0,00 0,00 0,00 0,00 31/12/2020
796 962800 BRUNA CAROLINE LIMA ESTAGIARIO BELO HORIZONTE; BH-18PJ VIOLENCIA DOMESTICA-GAB 186PJ 0,00 0,00 0,00 81,00 0,00 0,00 0,00 0,00 0,00 31/12/2020
797 1010700 BRUNA CAROLINE VIANA DE LIMA ESTAGIARIO POUSO ALEGRE; POUSO ALEGRE-PJ-04PJ 0,00 0,00 0,00 117,00 0,00 0,00 0,00 0,00 0,00 31/12/2020
798 1153500 BRUNA DA CUNHA SILVA ESTAGIARIO BARBACENA; BARBACENA-PJ-04PJ 0,00 0,00 0,00 153,00 0,00 0,00 0,00 0,00 0,00 31/12/2020
799 1082600 BRUNA DE CASTRO VIEIRA ESTAGIARIO GOVERNADOR VALADARES; GOVERNADOR VALADARES-PJ-07PJ 0,00 0,00 0,00 81,00 0,00 0,00 0,00 0,00 0,00 31/12/2020
800 1160000 BRUNA DEMETRIO PEREIRA ESTAGIARIO BELO HORIZONTE; BH-18PJ VIOLENCIA DOMESTICA 0,00 0,00 0,00 36,00 0,00 0,00 0,00 0,00 0,00 31/12/2020
801 1155000 BRUNA EVANGELISTA FERREIRA ESTAGIARIO AGUAS FORMOSAS; AGUAS FORMOSAS-PJ-UNPJ 0,00 0,00 0,00 153,00 0,00 0,00 0,00 0,00 0,00 31/12/2020
802 969700 BRUNA FABRINI OTHECHAR ESTAGIARIO BELO HORIZONTE; BH-12PJ JUIZO CRIMINAL-GAB 097PJ 0,00 0,00 0,00 63,00 0,00 0,00 0,00 0,00 0,00 31/12/2020
803 642300 BRUNA IZABELITA DE FATIMA OLIVEIRA COSTA OFICIAL DO MP BELO HORIZONTE - COMARCA; BH-02PJ FAMILIA-SECRETARIA 1.100,00 0,00 450,00 0,00 0,00 0,00 0,00 0,00 0,00 31/12/2020
804 513600 BRUNA KARLA MARTINS CARVALHO ANALISTA DO MP GOVERNADOR VALADARES - COMARCA; GOVERNADOR VALADARES-PJ-14PJ 1.100,00 0,00 450,00 0,00 0,00 0,00 0,00 0,00 0,00 31/12/2020
805 1008400 BRUNA LEAL SILVEIRA ESTAGIARIO ITUIUTABA; ITUIUTABA-PJ-03PJ 0,00 0,00 0,00 72,00 0,00 0,00 0,00 0,00 0,00 31/12/2020
806 415100 BRUNA MARIA SOARES OLIVEIRA COSTA RAMOS ANALISTA DO MP UBÁ - COMARCA; COORD REG BACIA DO RIO PARAIBA DO SUL 1.100,00 0,00 450,00 0,00 0,00 0,00 0,00 0,00 0,00 31/12/2020
807 692900 BRUNA MENDES COELHO ASSESSOR PROCURADOR JUSTICA BELO HORIZONTE - COMARCA; GABINETE DE PROCURADOR DE JUSTIÇA - SALA 801 1.100,00 0,00 450,00 0,00 0,00 0,00 0,00 0,00 0,00 31/12/2020
808 470000 BRUNA MORAES ANALISTA DO MP TOMBOS - COMARCA; TOMBOS-PJ-UNPJ 1.100,00 0,00 450,00 0,00 0,00 0,00 0,00 0,00 0,00 31/12/2020
809 1199500 BRUNA NATHANY OLIVEIRA MELO ESTAGIARIO UNAI; UNAI-PJ-01PJ 0,00 0,00 0,00 162,00 0,00 0,00 0,00 0,00 0,00 31/12/2020
810 614700 BRUNA NATTANY DE LIMA OFICIAL DO MP MANTENA - COMARCA; MANTENA-PJ-01PJ 1.100,00 0,00 450,00 0,00 0,00 0,00 0,00 0,00 0,00 31/12/2020
811 1084400 BRUNA PAULA AMARAL CEOLIN ESTAGIARIO BELO HORIZONTE; BH-12PJ JUIZO CRIMINAL-GAB 100PJ 0,00 0,00 0,00 90,00 0,00 0,00 0,00 0,00 0,00 31/12/2020
812 1150200 BRUNA PAULA RODRIGUES VASCONCELOS ESTAGIARIO UBERLANDIA; COORD REG PP TRIANGULO MINEIRO UBERLANDIA 0,00 0,00 0,00 162,00 0,00 0,00 0,00 0,00 0,00 31/12/2020
813 1134300 BRUNA QUEIROZ THOMAZ ESTAGIARIO TEOFILO OTONI; TEOFILO OTONI-PJ-09PJ 0,00 0,00 0,00 36,00 0,00 0,00 0,00 0,00 0,00 31/12/2020
814 693300 BRUNA RAMONY ROCHA DA CRUZ ASSESSOR PROMOTOR JUSTICA JAIBA - COMARCA; JAIBA-PJ-UNPJ 1.100,00 0,00 450,00 0,00 0,00 0,00 0,00 0,00 0,00 31/12/2020
815 631800 BRUNA RAPOSO JORGE OFICIAL DO MP JUIZ DE FORA - COMARCA; JUIZ DE FORA-PJ-06PJ 1.100,00 0,00 450,00 0,00 0,00 0,00 0,00 0,00 0,00 31/12/2020
816 1083600 BRUNA RIOS CELESTINO ESTAGIARIO CONSELHEIRO LAFAIETE; CONSELHEIRO LAFAIETE-PJ-07PJ
817 1180300 BRUNA RODRIGUES COBO ESTAGIARIO RIBEIRAO DAS NEVES; RIBEIRAO DAS NEVES-PJ-12PJ 0,00 0,00 0,00 54,00 0,00 0,00 0,00 0,00 0,00 31/12/2020
818 1146700 BRUNA SALES VIEIRA ESTAGIARIO FRUTAL; FRUTAL-PJ-02PJ 0,00 0,00 0,00 153,00 0,00 0,00 0,00 0,00 0,00 31/12/2020
819 697400 BRUNA SILVA SANTOS ASSESSOR PROMOTOR JUSTICA TIMÓTEO - COMARCA; TIMOTEO-PJ-04PJ 1.000,00 0,00 450,00 0,00 0,00 0,00 0,00 0,00 0,00 31/12/2020
820 1174400 BRUNA STEHLING SCHIRMER ESTAGIARIO BELO HORIZONTE; PROC. JUSTICA DE HABEAS CORPUS 0,00 0,00 0,00 108,00 0,00 0,00 0,00 0,00 0,00 31/12/2020
821 1191900 BRUNA STUHLER PINHEIRO ESTAGIARIO UBERLANDIA; COORD REG DEF ORDEM ECON TRIB UBERLANDIA 0,00 0,00 0,00 162,00 0,00 0,00 0,00 0,00 0,00 31/12/2020
822 699300 BRUNA URSINE TIMO ASSESSOR PROCURADOR JUSTICA BELO HORIZONTE - COMARCA; PROC JUST ESP ACOES COMP ORIG CRIMINAL-ASSESS 1.000,00 0,00 450,00 0,00 0,00 0,00 0,00 0,00 0,00 31/12/2020
823 956400 BRUNA URSINE TIMO ESTAGIARIO BELO HORIZONTE; PROC JUST ESP ACOES COMP ORIG CRIMINAL-SEC 0,00 0,00 0,00 27,00 80,33 0,00 0,00 0,00 0,00 31/12/2020
824 1023300 BRUNIELY FERNANDES DA LUZ ESTAGIARIO BELO HORIZONTE; DIVISAO DE SERVICOS 0,00 0,00 0,00 27,00 0,00 0,00 0,00 0,00 0,00 31/12/2020
825 225100 BRUNO ALEXANDER VIEIRA SOARES PROMOT.ENTRANC.ESPECIAL BELO HORIZONTE - COMARCA; BH-17PJ PATRIMONIO PUBLICO-GAB 004PJ 1.100,00 0,00 2.174,64 0,00 5.614,85 0,00 0,00 0,00 0,00 31/12/2020
826 463800 BRUNO ALVES TEIXEIRA ANALISTA DO MP UBERLÂNDIA - COMARCA; UBERLANDIA-PJ-04PJ 1.100,00 0,00 450,00 0,00 0,00 0,00 0,00 0,00 0,00 31/12/2020
827 1097900 BRUNO ANDRADE ALVARENGA ESTAGIARIO OURO BRANCO; OURO BRANCO-PJ-UNPJ 0,00 0,00 0,00 90,00 0,00 0,00 0,00 0,00 0,00 31/12/2020
828 538500 BRUNO AUGUSTO DA SILVA OFICIAL DO MP SANTA LUZIA - COMARCA; SANTA LUZIA-PJ-03PJ 1.100,00 0,00 450,00 0,00 0,00 0,00 0,00 0,00 0,00 31/12/2020
829 318200 BRUNO BARROS DE SOUZA OFICIAL DO MP UBÁ - COMARCA; UBA-PJ-04PJ 1.100,00 0,00 450,00 0,00 0,00 0,00 0,00 0,00 0,00 31/12/2020
830 459600 BRUNO CASTELAR LUGAO MENDES OFICIAL DO MP GOVERNADOR VALADARES - COMARCA; GOVERNADOR VALADARES-PJ-01PJ 1.100,00 0,00 450,00 0,00 0,00 0,00 0,00 0,00 0,00 31/12/2020
831 361300 BRUNO CESAR MEDEIROS GIARDINI PROMOT.ENTRANC.ESPECIAL IPATINGA - COMARCA; IPATINGA-PJ-06PJ 1.100,00 0,00 2.409,16 0,00 5.614,85 0,00 0,00 0,00 0,00 31/12/2020
832 427400 BRUNO CESAR RIBEIRO DE PAIVA ANALISTA DO MP BELO HORIZONTE - COMARCA; ASSESS JUR DO CONS SUPERIOR DO MINISTERIO PUB 1.100,00 0,00 450,00 0,00 0,00 0,00 0,00 0,00 0,00 31/12/2020
833 380900 BRUNO CIRILO ANTUNES OFICIAL DO MP VARGINHA - COMARCA; VARGINHA-PJ-05PJ 1.100,00 0,00 450,00 0,00 0,00 0,00 0,00 0,00 0,00 31/12/2020
834 666700 BRUNO DE CARVALHO VASCONCELOS PROMOTOR SUBSTITUTO CORINTO - COMARCA; CORINTO-PJ-UNPJ 1.100,00 0,00 703,56 0,00 10.134,80 0,00 0,00 0,00 0,00 31/12/2020
835 329000 BRUNO DE MELO REIS ANALISTA DO MP PATROCÍNIO - COMARCA; PATROCINIO-PJ-02PJ 1.100,00 1.538,78 450,00 0,00 0,00 0,00 0,00 0,00 0,00 31/12/2020
836 1197800 BRUNO DURAES DE FARIAS ESTAGIARIO MONTES CLAROS; MONTES CLAROS-PJ-07PJ 0,00 0,00 0,00 162,00 0,00 0,00 0,00 0,00 0,00 31/12/2020
837 339700 BRUNO FERNANDO TORRES LANA PROMOT.ENTRANC.ESPECIAL UBÁ - COMARCA; UBA-PJ-05PJ 1.100,00 0,00 852,80 0,00 5.614,85 0,00 0,00 0,00 0,00 31/12/2020
838 1151500 BRUNO FERREIRA BRAS OLIVEIRA ESTAGIARIO UBERLANDIA; UBERLANDIA-PJ-08PJ 0,00 0,00 0,00 162,00 0,00 0,00 0,00 0,00 0,00 31/12/2020
839 697800 BRUNO GAZZOLA BEZERRA FALCAO ASSESSOR PROCURADOR JUSTICA BELO HORIZONTE - COMARCA; GABINETE DE PROCURADOR DE JUSTIÇA - SALA 908 1.000,00 0,00 450,00 0,00 0,00 0,00 0,00 0,00 0,00 31/12/2020
840 360300 BRUNO GUERRA DE OLIVEIRA PROMOT.ENTRANC.ESPECIAL UBÁ - COMARCA; UBA-PJ-06PJ 1.100,00 0,00 1.279,20 0,00 5.614,85 0,00 0,00 0,00 0,00 31/12/2020
841 1066300 BRUNO HENRIQUE ALVES DE LIMA ESTAGIARIO SETE LAGOAS; SETE LAGOAS-PJ-03PJ 0,00 0,00 0,00 117,00 0,00 0,00 0,00 0,00 0,00 31/12/2020
842 378300 BRUNO HERDY LOPES DE OLIVEIRA ANALISTA DO MP GOVERNADOR VALADARES - COMARCA; GOVERNADOR VALADARES-PJ-03PJ 1.100,00 0,00 450,00 0,00 0,00 0,00 0,00 0,00 0,00 31/12/2020
843 529700 BRUNO JOSE BUENO DIAS OFICIAL DO MP SÃO SEBASTIÃO DO PARAÍSO - COMARCA; SAO SEBASTIAO DO PARAISO-PJ-02PJ 1.100,00 0,00 450,00 0,00 0,00 0,00 0,00 0,00 0,00 31/12/2020
844 691600 BRUNO JOSE RIBEIRO ASSESSOR PROMOTOR JUSTICA CLÁUDIO - COMARCA; CLAUDIO-PJ-UNPJ 1.100,00 0,00 450,00 0,00 0,00 0,00 0,00 0,00 0,00 31/12/2020
845 967300 BRUNO LANNA DE OLIVEIRA FERRARI ESTAGIARIO JUIZ DE FORA; JUIZ DE FORA-PJ-14PJ 0,00 0,00 0,00 27,00 784,33 0,00 0,00 0,00 0,00 31/12/2020
846 350100 BRUNO LAUD SERRANO DOS REIS OFICIAL DO MP UBÁ - COMARCA; UBA-PJ-02PJ 1.100,00 0,00 450,00 0,00 0,00 0,00 0,00 0,00 0,00 31/12/2020
847 1125100 BRUNO MARQUES DA SILVA ESTAGIARIO BELO HORIZONTE; BH-23PJ CIVEL 0,00 0,00 0,00 9,00 923,83 0,00 0,00 0,00 0,00 31/12/2020
848 530600 BRUNO MARQUES DE ALMEIDA ROSSI PROMOTOR 1A ENTRANCIA PRESIDENTE OLEGÁRIO - COMARCA; PRESIDENTE OLEGARIO-PJ-UNPJ 1.100,00 0,00 2.409,16 0,00 0,00 0,00 0,00 0,00 0,00 31/12/2020
849 1028900 BRUNO MARQUES JIMENEZ ABAD ESTAGIARIO VARGINHA; VARGINHA-PJ-03PJ 0,00 0,00 0,00 108,00 0,00 0,00 0,00 0,00 0,00 31/12/2020
850 373800 BRUNO MARTINO DE ALBUQUERQUE ANALISTA DO MP PONTE NOVA - COMARCA; PONTE NOVA-PJ-03PJ 1.100,00 0,00 450,00 0,00 0,00 0,00 0,00 0,00 0,00 31/12/2020
851 1163200 BRUNO MORAIS MARQUES ESTAGIARIO CARMO DO PARANAIBA; CARMO DO PARANAIBA-PJ-01PJ 0,00 0,00 0,00 72,00 0,00 0,00 0,00 0,00 0,00 31/12/2020
852 470400 BRUNO NOVAIS CABRAL ANALISTA DO MP MUTUM - COMARCA; MUTUM-PJ-UNPJ 1.100,00 769,39 450,00 0,00 0,00 0,00 0,00 0,00 0,00 31/12/2020
853 457300 BRUNO OLIVEIRA MULLER PROMOT.ENTRANC.ESPECIAL ITABIRA - COMARCA; ITABIRA-PJ-04PJ 1.100,00 0,00 2.395,40 0,00 5.614,85 0,00 0,00 0,00 0,00 31/12/2020
854 648600 BRUNO RIBEIRO E MELO ASSESSOR BELO HORIZONTE - COMARCA; DIR RELACOES INSTITUCIONAIS 1.100,00 0,00 450,00 0,00 0,00 0,00 0,00 0,00 0,00 31/12/2020
855 369200 BRUNO ROBERTO DIAS DE OLIVEIRA OFICIAL DO MP BELO HORIZONTE - COMARCA; BH-22PJ PES COM DEF E IDOSOS-SECRETARIA 1.100,00 0,00 450,00 0,00 0,00 0,00 0,00 0,00 0,00 31/12/2020
856 547700 BRUNO ROBERTO SOUZA GONCALVES ANALISTA DO MP PARACATU - COMARCA; PARACATU-PJ-03PJ 1.100,00 1.538,78 450,00 0,00 0,00 0,00 0,00 0,00 0,00 31/12/2020
857 546100 BRUNO SA VIEIRA ANALISTA DO MP CORONEL FABRICIANO - COMARCA; CORONEL FABRICIANO-PJ-03PJ 1.100,00 0,00 450,00 0,00 0,00 0,00 0,00 0,00 0,00 31/12/2020
858 438200 BRUNO SALES PEREIRA ANALISTA DO MP BELO HORIZONTE - COMARCA; CENTRAL DE APOIO TECNICO-SETOR CONTABIL 1.100,00 769,39 450,00 0,00 0,00 0,00 0,00 0,00 0,00 31/12/2020
859 537400 BRUNO SANT'ANA CESAR ANALISTA DO MP CONTAGEM - COMARCA; CONTAGEM-PJ-21PJ 1.100,00 0,00 450,00 0,00 0,00 0,00 0,00 0,00 0,00 31/12/2020
860 343500 BRUNO SCHIAVO CRUZ PROMOT.ENTRANC.ESPECIAL IPATINGA - COMARCA; GAECO REGIONAL DE IPATINGA 1.100,00 0,00 2.878,20 0,00 5.614,85 0,00 0,00 0,00 0,00 31/12/2020
861 937500 BRUNO SEABRA DUMONT ESTAGIARIO BONFIM; BONFIM-PJ-UNPJ 0,00 0,00 0,00 144,00 1.847,67 0,00 0,00 0,00 0,00 31/12/2020
862 1155100 BRUNO SOARES FONSECA ESTAGIARIO TAIOBEIRAS; TAIOBEIRAS-PJ-UNPJ 0,00 0,00 0,00 162,00 0,00 0,00 0,00 0,00 0,00 31/12/2020
863 684000 BRUNO TORRANO AMORIM DE ALMEIDA PROMOTOR SUBSTITUTO CONTAGEM - COMARCA; CONTAGEM-PJ-14PJ 1.100,00 0,00 1.449,76 0,00 0,00 0,00 0,00 0,00 0,00 31/12/2020
864 679000 BRUNO WILLIANS PAULINO DE MELLO ASSESSOR PROCURADOR JUSTICA BELO HORIZONTE - COMARCA; GABINETE DE PROCURADOR DE JUSTIÇA - SALA 1006 1.100,00 0,00 450,00 0,00 0,00 0,00 0,00 0,00 0,00 31/12/2020
865 655800 CAEL KALINOWSKI SOUZA MATTA INVESTIGADOR DE POLICIA 2 BELO HORIZONTE - COMARCA; NUCLEO DE INFORMACOES E INTELIGENCIA 1.100,00 0,00 0,00 0,00 0,00 0,00 0,00 0,00 1.763,00 31/12/2020
866 1047600 CAIO ALESSI FERREIRA DE CARVALHO ESTAGIARIO BELO HORIZONTE; BH-18PJ VIOLENCIA DOMESTICA-SECRETARIA 0,00 0,00 0,00 54,00 0,00 0,00 0,00 0,00 0,00 31/12/2020
867 1135500 CAIO ANTONIO DO AMARAL BRAGA ALVES ESTAGIARIO ESPERA FELIZ; ESPERA FELIZ-PJ-UNPJ 0,00 0,00 0,00 144,00 0,00 0,00 0,00 0,00 0,00 31/12/2020
868 1051200 CAIO BASSOLI ESTAGIARIO JUIZ DE FORA; JUIZ DE FORA-PJ-20PJ 0,00 0,00 0,00 72,00 0,00 0,00 0,00 0,00 0,00 31/12/2020
869 666900 CAIO CESAR ESPIRITO SANTO DO NASCIMENTO PROMOTOR 2A ENTRANCIA SALINAS - COMARCA; SALINAS-PJ-01PJ 1.100,00 0,00 1.300,52 0,00 5.334,11 0,00 0,00 0,00 0,00 31/12/2020
870 685600 CAIO CESAR FERREIRA PROMOTOR SUBSTITUTO NOVO CRUZEIRO - COMARCA; NOVO CRUZEIRO-PJ-UNPJ 1.100,00 0,00 0,00 0,00 0,00 0,00 0,00 0,00 0,00 31/12/2020
871 405800 CAIO FERNANDO RODRIGUES DE OLIVEIRA ANALISTA DO MP BELO HORIZONTE - COMARCA; GABINETE DE PROCURADOR DE JUSTIÇA - SALA 805 1.100,00 0,00 450,00 0,00 0,00 0,00 0,00 0,00 0,00 31/12/2020
872 530000 CAIO GUEDES DE OLIVEIRA ANALISTA DO MP DIAMANTINA - COMARCA; DIAMANTINA-PJ-02PJ 1.100,00 769,39 450,00 0,00 0,00 0,00 0,00 0,00 0,00 31/12/2020
873 1118400 CAIO HENRIQUE DE FREITAS MELO ESTAGIARIO UBERABA; UBERABA-PJ-02PJ 0,00 0,00 0,00 72,00 0,00 0,00 0,00 0,00 0,00 31/12/2020
874 971000 CAIO LEMOS SILVA ESTAGIARIO PASSOS; PASSOS-PJ-02PJ 0,00 0,00 0,00 162,00 0,00 0,00 0,00 0,00 0,00 31/12/2020
875 1026300 CAIO MAGNO GONCALVES DOS SANTOS ESTAGIARIO BONFINOPOLIS DE MINAS; BONFINOPOLIS DE MINAS-PJ-UNPJ 0,00 0,00 0,00 27,00 0,00 0,00 0,00 0,00 0,00 31/12/2020
876 1166800 CAIO MARINI LIMA COSTA ESTAGIARIO BELO HORIZONTE; BH-08PJ JUIZADO ESPECIAL-GAB 168PJ 0,00 0,00 0,00 90,00 0,00 0,00 0,00 0,00 0,00 31/12/2020
877 491400 CAIO MIRANDA JUNQUEIRA ANALISTA DO MP BUENO BRANDAO - COMARCA; BUENO BRANDAO-PJ-UNPJ 1.100,00 769,39 450,00 0,00 0,00 0,00 0,00 0,00 0,00 31/12/2020
878 1145800 CAIO NAVARRO NEVES ESTAGIARIO ARAGUARI; ARAGUARI-PJ-02PJ 0,00 0,00 0,00 9,00 522,17 0,00 0,00 0,00 0,00 31/12/2020
879 668300 CAIO PALLU COSTA PROMOTOR 2A ENTRANCIA MANTENA - COMARCA; MANTENA-PJ-03PJ 1.100,00 0,00 1.407,12 0,00 8.534,58 0,00 0,00 0,00 293,38 31/12/2020
880 671600 CAIO ROTHSAHL BOTELHO PROMOTOR SUBSTITUTO LEOPOLDINA - COMARCA; LEOPOLDINA-PJ-04PJ 1.100,00 0,00 1.449,76 0,00 5.067,40 0,00 0,00 0,00 0,00 31/12/2020
881 171000 CAIUS VINICIUS GONZAGA GOULART PROMOT.ENTRANC.ESPECIAL BELO HORIZONTE - COMARCA; BH-12PJ JUIZO CRIMINAL-GAB 106PJ 1.100,00 0,00 0,00 0,00 5.614,85 0,00 0,00 0,00 0,00 31/12/2020
882 82300 CALIXTO OLIVEIRA SOUZA PROMOT.ENTRANC.ESPECIAL DIVINÓPOLIS - COMARCA; DIVINOPOLIS-PJ-01PJ 1.100,00 0,00 2.345,20 0,00 11.229,70 0,00 0,00 0,00 514,69 31/12/2020
883 415800 CAMILA ALVES DA SILVA ANALISTA DO MP CAETÉ - COMARCA; CAETE-PJ-01PJ 1.100,00 0,00 450,00 0,00 0,00 0,00 0,00 0,00 0,00 31/12/2020
884 684900 CAMILA APARECIDA PIRES PROMOTOR SUBSTITUTO FORMIGA - COMARCA; FORMIGA-PJ-SECRETARIA 1.100,00 0,00 703,56 0,00 0,00 0,00 0,00 0,00 0,00 31/12/2020
885 1069600 CAMILA BRITO NERY ESTAGIARIO UBERLANDIA; UBERLANDIA-PJ-05PJ 0,00 0,00 0,00 162,00 0,00 0,00 0,00 0,00 0,00 31/12/2020
886 1055500 CAMILA CAFIERO BICALHO ESTAGIARIO BELO HORIZONTE; BH-17PJ PATRIMONIO PUBLICO-GAB 120PJ 0,00 0,00 0,00 36,00 0,00 0,00 0,00 0,00 0,00 31/12/2020
887 1199600 CAMILA CAROLINE DOS SANTOS FARIA DUARTE ESTAGIARIO UNAI; UNAI-PJ-03PJ 0,00 0,00 0,00 162,00 0,00 0,00 0,00 0,00 0,00 31/12/2020
888 555800 CAMILA CAROLINE ROCHA CHAVES OFICIAL DO MP SALINAS - COMARCA; SALINAS-PJ-01PJ 1.100,00 0,00 450,00 0,00 0,00 0,00 0,00 0,00 0,00 31/12/2020
889 1056400 CAMILA CARVALHO FREITAS ESTAGIARIO BELO HORIZONTE; PROC JUST ESP ACOES COMP ORIG CRIMINAL-GAB
890 445200 CAMILA CONDE ROCHA ANALISTA DO MP CONTAGEM - COMARCA; CONTAGEM-PJ-08PJ 1.100,00 769,39 450,00 0,00 0,00 0,00 0,00 0,00 0,00 31/12/2020
891 419900 CAMILA CUNNINGHAM PIMENTA DE PADUA ANALISTA DO MP BELO HORIZONTE - COMARCA; ASSESSORIA PSICOSSOCIAL 1.100,00 0,00 450,00 0,00 0,00 0,00 0,00 0,00 0,00 31/12/2020
892 998800 CAMILA DE CASTRO COELHO ESTAGIARIO ERVALIA; ERVALIA-PJ-UNPJ 0,00 0,00 0,00 99,00 0,00 0,00 0,00 0,00 0,00 31/12/2020
893 1107600 CAMILA DE SOUSA CUNHA ESTAGIARIO BARROSO; BARROSO-PJ-01PJ 0,00 0,00 0,00 153,00 0,00 0,00 0,00 0,00 0,00 31/12/2020
894 1210500 CAMILA DUARTE MARTINS ESTAGIARIO CORONEL FABRICIANO; CORONEL FABRICIANO-PJ-02PJ 0,00 0,00 0,00 72,00 0,00 0,00 0,00 0,00 0,00 31/12/2020
895 507700 CAMILA ELIZABETH RODRIGUES ANALISTA DO MP BELO HORIZONTE - COMARCA; BH-02PJ FAMILIA-SECRETARIA 1.100,00 0,00 450,00 0,00 0,00 0,00 0,00 0,00 0,00 31/12/2020
896 1182700 CAMILA FERREIRA DA SILVA PEREIRA ESTAGIARIO SETE LAGOAS; SETE LAGOAS-PJ-07PJ 0,00 0,00 0,00 153,00 0,00 0,00 0,00 0,00 0,00 31/12/2020
897 372700 CAMILA FONSECA LIMONGE ANALISTA DO MP BETIM - COMARCA; BETIM-PJ-01PJ 1.100,00 769,39 450,00 0,00 0,00 0,00 0,00 0,00 0,00 31/12/2020
898 1014700 CAMILA FORTINI DOS SANTOS ESTAGIARIO VESPASIANO; VESPASIANO-PJ-04PJ 0,00 0,00 0,00 9,00 0,00 0,00 0,00 0,00 0,00 31/12/2020
899 1205100 CAMILA FRANCIELLI JUSTINO DUARTE ESTAGIARIO BARBACENA; BARBACENA-PJ-07PJ 0,00 0,00 0,00 117,00 0,00 0,00 0,00 0,00 0,00 31/12/2020
900 947100 CAMILA GENDORF GOMES ESTAGIARIO BELO HORIZONTE; BH-02PJ FAMILIA-SECRETARIA
901 621300 CAMILA GOLFETO DE SOUSA VALENTE OFICIAL DO MP ESPERA FELIZ - COMARCA; ESPERA FELIZ-PJ-UNPJ 1.100,00 1.153,54 450,00 0,00 0,00 0,00 0,00 0,00 0,00 31/12/2020
902 409800 CAMILA GONCALVES COSTA RIBEIRO ANALISTA DO MP INHAPIM - COMARCA; INHAPIM-PJ-02PJ 1.100,00 769,39 450,00 0,00 0,00 0,00 0,00 0,00 0,00 31/12/2020
903 335000 CAMILA GONTIJO DE PAIVA ANALISTA DO MP BELO HORIZONTE - COMARCA; COORD DE CONTROLE CONSTITUCIONALIDADE 1.100,00 0,00 450,00 0,00 0,00 0,00 0,00 0,00 0,00 31/12/2020
904 693400 CAMILA HECKSHER MONTEIRO ASSESSOR PROCURADOR JUSTICA BELO HORIZONTE - COMARCA; GABINETE DE PROCURADOR DE JUSTIÇA - SALA 613 1.100,00 0,00 450,00 0,00 0,00 0,00 0,00 0,00 0,00 31/12/2020
905 1107200 CAMILA IMACULADA OLIVEIRA ESTAGIARIO BELO HORIZONTE; GABINETE DE PROCURADOR DE JUSTIÇA - SALA 804 0,00 0,00 0,00 36,00 1.124,67 0,00 0,00 0,00 0,00 31/12/2020
906 696000 CAMILA IMACULADA OLIVEIRA ASSESSOR PROCURADOR JUSTICA BELO HORIZONTE - COMARCA; GABINETE DE PROCURADOR DE JUSTIÇA - SALA 804 1.000,00 0,00 450,00 0,00 0,00 0,00 0,00 0,00 0,00 31/12/2020
907 940500 CAMILA MARIZ MACEDO ESTAGIARIO BELO HORIZONTE; BH-12PJ JUIZO CRIMINAL-GAB 083PJ
908 547800 CAMILA MATTARELLI DE ABREU E SILVA ANALISTA DO MP BELO HORIZONTE - COMARCA; CAO-VIOLENCIA DOMESTICA E FAMILIAR 1.100,00 0,00 450,00 0,00 0,00 0,00 0,00 0,00 0,00 31/12/2020
909 1183500 CAMILA MORAIS FERREIRA ESTAGIARIO BELO HORIZONTE; BH-02PJ FAMILIA
910 1180400 CAMILA NICACIO PEDROSA ALMEIDA ESTAGIARIO BELO HORIZONTE; PROC. JUSTICA CRIMINAL 0,00 0,00 0,00 90,00 0,00 0,00 0,00 0,00 0,00 31/12/2020
911 1141300 CAMILA OLIVEIRA GIACOMETO ESTAGIARIO UBERABA; UBERABA-PJ-08PJ
912 1076300 CAMILA RODRIGUES ANDRADE ESTAGIARIO BELO HORIZONTE; BH-23PJ CIVEL 0,00 0,00 0,00 45,00 0,00 0,00 0,00 0,00 0,00 31/12/2020
913 1025700 CAMILA RODRIGUES JARDIM ESTAGIARIO BELO HORIZONTE; DIR RELACOES INSTITUCIONAIS 0,00 0,00 0,00 81,00 0,00 0,00 0,00 0,00 0,00 31/12/2020
914 1093800 CAMILA SILVA COSTA LOPES REZENDE ESTAGIARIO PIUMHI; PIUMHI-PJ-01PJ 0,00 0,00 0,00 108,00 90,50 0,00 0,00 0,00 0,00 31/12/2020
915 1072900 CAMILA TEIXEIRA CORDEIRO ESTAGIARIO BELO HORIZONTE; PROC. JUSTICA CRIMINAL 0,00 0,00 0,00 36,00 0,00 0,00 0,00 0,00 0,00 31/12/2020
916 1156500 CAMILA VALERIO DE BARCELOS ESTAGIARIO BELO HORIZONTE; EXTINTA-COORD EST DEF DIR FAM PES DEFIC IDOSO 0,00 0,00 0,00 81,00 0,00 0,00 0,00 0,00 0,00 31/12/2020
917 1170200 CAMILA VENANCIO DIAS ESTAGIARIO BELO HORIZONTE; PROC. JUSTICA DIR. DIFUSOS E COLETIVOS
918 1194500 CAMILE LORRANY FLAVIO ALVES ESTAGIARIO MONTES CLAROS; MONTES CLAROS-PJ-01PJ 0,00 0,00 0,00 117,00 0,00 0,00 0,00 0,00 0,00 31/12/2020
919 1013500 CAMILLA CRISTINA PACHECO DE MELO ESTAGIARIO BELO HORIZONTE; BH-12PJ JUIZO CRIMINAL-GAB 088PJ 0,00 0,00 0,00 153,00 0,00 0,00 0,00 0,00 0,00 31/12/2020
920 1068400 CAMILLA MARIA GUIMARAES PERTENCE ESTAGIARIO BELO HORIZONTE; PROC. JUSTICA CRIMINAL 0,00 0,00 0,00 162,00 0,00 0,00 0,00 0,00 0,00 31/12/2020
921 898300 CAMILLA MARTINS MAZZONI E MARTINS ESTAGIARIO ITANHOMI; ITANHOMI-PJ-UNPJ 0,00 0,00 0,00 63,00 0,00 0,00 0,00 0,00 0,00 31/12/2020
922 1097800 CAMILLA VERGINIO COSTA ESTAGIARIO 0,00 0,00 0,00 126,00 0,00 0,00 0,00 0,00 0,00 31/12/2020
923 1039100 CAMILO PRATES ESTAGIARIO BELO HORIZONTE; PROC. JUSTICA DE HABEAS CORPUS 0,00 0,00 0,00 0,00 0,00 0,00 0,00 0,00 40,17 31/12/2020
924 430000 CANDIDA MARINA COSTA ANALISTA DO MP BELO HORIZONTE - COMARCA; DIVISAO DE DOCUMENTACAO JURIDICA 1.100,00 0,00 450,00 0,00 0,00 0,00 0,00 0,00 0,00 31/12/2020
925 614300 CARINA CORTIELHA OFICIAL DO MP BELO HORIZONTE - COMARCA; BH-23PJ CIVEL-SEC EXP CIVEIS 1.100,00 0,00 450,00 0,00 0,00 0,00 0,00 0,00 0,00 31/12/2020
926 380400 CARINA DIAS FACANHA DE SOUZA ANALISTA DO MP SANTA RITA DO SAPUCAÍ - COMARCA; SANTA RITA DO SAPUCAI-PJ-SECRETARIA 1.100,00 0,00 450,00 0,00 0,00 0,00 0,00 0,00 0,00 31/12/2020
927 698300 CARINA ESTEPHANY FAVATO FERREIRA JUSTE ASSESSOR PROCURADOR JUSTICA BELO HORIZONTE - COMARCA; PROCURADORIA-GERAL DE JUSTICA 1.000,00 0,00 450,00 0,00 0,00 0,00 0,00 0,00 0,00 31/12/2020
928 255000 CARLA ADRIANA DE MENEZES OFICIAL DO MP BELO HORIZONTE - COMARCA; CENT DE APOIO TEC-SETOR DEF,IDOSO E INFANC 1.100,00 0,00 450,00 0,00 0,00 0,00 0,00 0,00 0,00 31/12/2020
929 425100 CARLA ADRIANA DINIZ AMARAL OFICIAL DO MP CONTAGEM - COMARCA; CONTAGEM-PJ-SECRETARIA 1.100,00 0,00 450,00 0,00 0,00 0,00 0,00 0,00 0,00 31/12/2020
930 508100 CARLA ALESSANDRA FONSECA ANALISTA DO MP BELO HORIZONTE - COMARCA; CAO-ORDEM ECONOMICA E TRIBUTARIA-SECRETARIA 1.100,00 0,00 450,00 0,00 0,00 0,00 0,00 0,00 0,00 31/12/2020
931 607100 CARLA ANGELICA DIAS MIRANDA OFICIAL DO MP JABOTICATUBAS - COMARCA; JABOTICATUBAS-PJ-UNPJ 1.100,00 0,00 450,00 0,00 0,00 0,00 0,00 0,00 0,00 31/12/2020
932 351500 CARLA APARECIDA MENDES RAMIRIO OFICIAL DO MP PASSOS - COMARCA; PASSOS-PJ-01PJ 1.100,00 0,00 450,00 0,00 0,00 0,00 0,00 0,00 0,00 31/12/2020
933 1067500 CARLA CRISTINA LOPES OLIVEIRA ESTAGIARIO ITAMARANDIBA; ITAMARANDIBA-PJ-UNPJ
934 1081900 CARLA DOS SANTOS SOUZA ESTAGIARIO ESPERA FELIZ; ESPERA FELIZ-PJ-UNPJ 0,00 0,00 0,00 162,00 0,00 0,00 0,00 0,00 0,00 31/12/2020
935 442800 CARLA GONCALVES COSTA SOALHEIRO ANALISTA DO MP GOVERNADOR VALADARES - COMARCA; GOVERNADOR VALADARES-PJ-11PJ 1.100,00 769,39 450,00 0,00 0,00 0,00 0,00 0,00 0,00 31/12/2020
936 321500 CARLA GONCALVES MASSOTE OFICIAL DO MP CAMPO BELO - COMARCA; CAMPO BELO-PJ-01PJ 1.100,00 0,00 450,00 0,00 0,00 0,00 0,00 0,00 0,00 31/12/2020
937 429200 CARLA HAUTEQUESTT BECHARA COORDENADOR/ANALISTA BELO HORIZONTE - COMARCA; DIRET DE INFORMACAO E CONHECIMENTO-DINC/CEAF 1.100,00 0,00 450,00 0,00 0,00 0,00 0,00 0,00 0,00 31/12/2020
938 1061300 CARLA LOPES MIRANDA ESTAGIARIO GOVERNADOR VALADARES; GOVERNADOR VALADARES-PJ-07PJ 0,00 0,00 0,00 81,00 0,00 0,00 0,00 0,00 0,00 31/12/2020
939 157400 CARLA MARIA ALESSI LAFETA DE CARVALHO PROMOT.ENTRANC.ESPECIAL BELO HORIZONTE - COMARCA; BH-25PJ DEFESA DA EDUCACAO-GAB 050PJ 1.100,00 0,00 3.368,56 0,00 5.614,85 0,00 0,00 0,00 0,00 31/12/2020
940 1100400 CARLA MARTINELLI ESTAGIARIO ANDRADAS; ANDRADAS-PJ-01PJ 0,00 0,00 0,00 162,00 0,00 0,00 0,00 0,00 0,00 31/12/2020
941 247500 CARLA MATILDE GUIMARAES DE OLIVEIRA OFICIAL DO MP ITAJUBA - COMARCA; ITAJUBA-PJ-SECRETARIA 1.100,00 0,00 450,00 0,00 0,00 0,00 0,00 0,00 0,00 31/12/2020
942 226100 CARLA MERLI DA CONCEICAO ANALISTA DO MP BELO HORIZONTE - COMARCA; CENTRAL DE APOIO TECNICO-SETOR CONTABIL 1.100,00 0,00 450,00 0,00 0,00 0,00 0,00 0,00 0,00 31/12/2020
943 685700 CARLA PRISCILLA PEREIRA VIANA PROMOTOR SUBSTITUTO GOVERNADOR VALADARES - COMARCA; GOVERNADOR VALADARES-PJ-16PJ 1.100,00 0,00 1.300,52 0,00 0,00 0,00 0,00 0,00 0,00 31/12/2020
944 343100 CARLA REGINA GOULART SALARO DUVANEL PROMOT.ENTRANC.ESPECIAL GOVERNADOR VALADARES - COMARCA; GOVERNADOR VALADARES-PJ-06PJ 1.100,00 0,00 2.171,16 0,00 5.614,85 0,00 0,00 0,00 0,00 31/12/2020
945 532600 CARLA RODRIGUES FAZUOLI PROMOTOR 2A ENTRANCIA SACRAMENTO - COMARCA; SACRAMENTO-PJ-02PJ 1.100,00 0,00 746,20 0,00 0,00 0,00 0,00 0,00 0,00 31/12/2020
946 1102000 CARLIANE MARTINS GOMES ESTAGIARIO SACRAMENTO; SACRAMENTO-PJ-01PJ 0,00 0,00 0,00 162,00 0,00 0,00 0,00 0,00 0,00 31/12/2020
947 181401 CARLO MICHEL GAUDENSI COELHO ANALISTA DO MP BELO HORIZONTE - COMARCA; BH-08PJ JUIZADO ESPECIAL-SECRETARIA 1.100,00 0,00 450,00 0,00 0,00 0,00 0,00 0,00 0,00 31/12/2020
948 634000 CARLOS ALBERTO AMORMINO TRIGUEIRO ANALISTA DO MP BELO HORIZONTE - COMARCA; DIRET DE APOIO AS PROCURADORIAS DE JUSTICA 1.100,00 769,39 450,00 0,00 0,00 0,00 0,00 0,00 0,00 31/12/2020
949 232300 CARLOS ALBERTO DA SILVEIRA ISOLDI FILHO PROMOT.ENTRANC.ESPECIAL BELO HORIZONTE - COMARCA; BH-19PJ SAUDE-GAB 150PJ 1.100,00 0,00 3.368,91 0,00 7.860,79 0,00 0,00 0,00 205,88 31/12/2020
950 637900 CARLOS ALBERTO DE MOURA OFICIAL DO MP SETE LAGOAS - COMARCA; SETE LAGOAS-PJ-07PJ 1.100,00 0,00 450,00 0,00 0,00 0,00 0,00 0,00 0,00 31/12/2020
951 638700 CARLOS ALBERTO FERREIRA BRAGA ANALISTA DO MP MATOZINHOS - COMARCA; MATOZINHOS-PJ-01PJ 1.100,00 0,00 450,00 0,00 0,00 0,00 0,00 0,00 0,00 31/12/2020
952 54400 CARLOS ALBERTO RIBEIRO MOREIRA PROMOTOR 2A ENTRANCIA LAVRAS - COMARCA; LAVRAS-PJ-02PJ 1.100,00 0,00 2.558,40 0,00 10.668,22 0,00 0,00 0,00 488,96 31/12/2020
953 375801 CARLOS ALBERTO ROCHA ANALISTA DO MP VARGINHA - COMARCA; GAECO REGIONAL DE VARGINHA 1.100,00 0,00 450,00 0,00 0,00 0,00 0,00 0,00 0,00 31/12/2020
954 110700 CARLOS ALBERTO VALERA PROMOT.ENTRANC.ESPECIAL UBERABA - COMARCA; COORD REG BACIAS PARANAIBA BAIXO RIO GRANDE 1.100,00 0,00 980,72 0,00 11.229,70 0,00 0,00 0,00 514,69 31/12/2020
955 94200 CARLOS ANDRE MARIANI BITTENCOURT PROCURADOR DE JUSTICA BELO HORIZONTE - COMARCA; GABINETE DE PROCURADOR DE JUSTIÇA - SALA 405 1.100,00 0,00 2.665,00 0,00 5.910,37 0,00 0,00 0,00 0,00 31/12/2020
956 462800 CARLOS ANDREI SOARES FAGUNDES ANALISTA DO MP MONTES CLAROS - COMARCA; MONTES CLAROS-PJ-09PJ 1.100,00 769,39 450,00 0,00 0,00 0,00 0,00 0,00 0,00 31/12/2020
957 1200400 CARLOS ANTONIO FAGUNDES DA SILVA ESTAGIARIO PRATA; PRATA-PJ-UNPJ 0,00 0,00 0,00 162,00 120,50 0,00 0,00 0,00 0,00 31/12/2020
958 370300 CARLOS AUGUSTO BUENO DIAS ASSESSOR BELO HORIZONTE - COMARCA; SUPERINTENDÊNCIA DE ENGENHARIA E ARQUITETURA 1.100,00 0,00 450,00 0,00 0,00 0,00 0,00 0,00 0,00 31/12/2020
959 66200 CARLOS AUGUSTO CANEDO GONCALVES DA SILVA PROCURADOR DE JUSTICA BELO HORIZONTE - COMARCA; GABINETE DE PROCURADOR DE JUSTIÇA - SALA 911 1.100,00 0,00 3.539,12 0,00 5.910,37 0,00 0,00 0,00 0,00 31/12/2020
960 83200 CARLOS AUGUSTO ESTEVES DE CARVALHO PROMOT.ENTRANC.ESPECIAL JUIZ DE FORA - COMARCA; JUIZ DE FORA-PJ-16PJ 1.100,00 0,00 1.172,60 0,00 11.229,70 0,00 0,00 0,00 514,69 31/12/2020
961 143500 CARLOS AUGUSTO GOMES BRAGA PROMOT.ENTRANC.ESPECIAL BELO HORIZONTE - COMARCA; BH-03PJ EMPRESARIAL-GAB 036PJ 1.100,00 0,00 2.558,44 0,00 11.229,70 0,00 0,00 0,00 514,69 31/12/2020
962 110800 CARLOS CESAR MARQUES LUZ PROMOTOR 1A ENTRANCIA JACUTINGA - COMARCA; JACUTINGA-PJ-UNPJ 1.100,00 0,00 0,00 0,00 5.067,40 0,00 0,00 0,00 0,00 31/12/2020
963 505100 CARLOS CEZAR CARVALHO ANALISTA DO MP RIBEIRÃO DAS NEVES - COMARCA; RIBEIRAO DAS NEVES-PJ-04PJ 1.100,00 0,00 450,00 0,00 0,00 0,00 0,00 0,00 0,00 31/12/2020
964 195900 CARLOS DE SOUZA FERREIRA OFICIAL DO MP COROMANDEL - COMARCA; COROMANDEL-PJ-01PJ 1.100,00 0,00 450,00 0,00 0,00 0,00 0,00 0,00 0,00 31/12/2020
965 344300 CARLOS EDUARDO AVANZI DE ALMEIDA PROMOTOR 2A ENTRANCIA CAMPO BELO - COMARCA; CAMPO BELO-PJ-03PJ 1.100,00 0,00 2.558,40 0,00 5.334,11 0,00 0,00 0,00 0,00 31/12/2020
966 196800 CARLOS EDUARDO DE OLIVEIRA MARINHO OFICIAL DO MP ALPINÓPOLIS - COMARCA; ALPINOPOLIS-PJ-UNPJ 1.100,00 0,00 450,00 0,00 0,00 0,00 0,00 0,00 0,00 31/12/2020
967 157500 CARLOS EDUARDO DUTRA PIRES PROMOT.ENTRANC.ESPECIAL SETE LAGOAS - COMARCA; SETE LAGOAS-PJ-02PJ 1.100,00 0,00 2.025,40 0,00 11.229,70 0,00 0,00 0,00 514,69 31/12/2020
968 483200 CARLOS EDUARDO FERNANDES NEVES RIBEIRO PROMOT.ENTRANC.ESPECIAL BARBACENA - COMARCA; BARBACENA-PJ-08PJ 1.100,00 0,00 3.368,91 0,00 5.614,85 0,00 0,00 0,00 0,00 31/12/2020
969 315400 CARLOS EDUARDO FERREIRA PINTO PROMOT.ENTRANC.ESPECIAL RIBEIRÃO DAS NEVES - COMARCA; RIBEIRAO DAS NEVES-PJ-01PJ 1.100,00 0,00 1.790,88 0,00 5.614,85 0,00 0,00 0,00 0,00 31/12/2020
970 55300 CARLOS EDUARDO MAFRA CAVALCANTI PROCURADOR DE JUSTICA BELO HORIZONTE - COMARCA; GABINETE DE PROCURADOR DE JUSTIÇA - SALA 503 1.100,00 0,00 2.558,40 0,00 5.910,37 0,00 0,00 0,00 0,00 31/12/2020
971 650800 CARLOS EDUARDO NIZA DA SILVA OFICIAL DO MP IGARAPÉ - COMARCA; IGARAPE-PJ-01PJ 1.100,00 0,00 450,00 0,00 0,00 0,00 0,00 0,00 0,00 31/12/2020
972 491800 CARLOS EDUARDO ROMAN OFICIAL DO MP BARBACENA - COMARCA; BARBACENA-PJ-09PJ 1.100,00 0,00 450,00 0,00 0,00 0,00 0,00 0,00 0,00 31/12/2020
973 157600 CARLOS EUGENIO SOUTO MAIOR FILIZOLA JUNIOR PROMOTOR 2A ENTRANCIA ENTRE-RIOS DE MINAS - COMARCA; ENTRE RIOS DE MINAS-PJ-UNPJ 1.100,00 0,00 0,00 0,00 5.334,11 0,00 0,00 0,00 0,00 31/12/2020
974 1122900 CARLOS GUILHERME COLLENGHI DIAS ESTAGIARIO UBERABA; UBERABA-PJ-04PJ 0,00 0,00 0,00 90,00 0,00 0,00 0,00 0,00 0,00 31/12/2020
975 1061800 CARLOS HENRIQUE ALVES MOURAO ESTAGIARIO MONTES CLAROS; COORD REG PATRI PUB ORD TRIB-NORTE MINAS 0,00 0,00 0,00 162,00 0,00 0,00 0,00 0,00 0,00 31/12/2020
976 299300 CARLOS HENRIQUE BICALHO ANALISTA DO MP BELO HORIZONTE - COMARCA; BH-17PJ PATRIMONIO PUBLICO-SECRETARIA 1.100,00 769,39 450,00 0,00 0,00 0,00 0,00 0,00 0,00 31/12/2020
977 205100 CARLOS HENRIQUE ESTEVES OFICIAL DO MP ITAMBACURI - COMARCA; ITAMBACURI-PJ-01PJ 1.100,00 0,00 450,00 0,00 0,00 0,00 0,00 0,00 0,00 31/12/2020
978 351600 CARLOS HENRIQUE FELICIO DA FONSECA OFICIAL DO MP JUIZ DE FORA - COMARCA; JUIZ DE FORA-PJ-21PJ 1.100,00 0,00 450,00 0,00 0,00 0,00 0,00 0,00 0,00 31/12/2020
979 657100 CARLOS HENRIQUE SOUSA DA SILVA MAJOR BELO HORIZONTE - COMARCA; NUCLEO DE COMBATE AOS CRIMES AMBIENTAIS 1.100,00 0,00 0,00 0,00 0,00 0,00 0,00 0,00 3.297,90 31/12/2020
980 210900 CARLOS HENRIQUE TORRES DE SOUZA PROMOT.ENTRANC.ESPECIAL BELO HORIZONTE - COMARCA; CHEFIA DE GABINETE 1.100,00 0,00 2.214,78 0,00 5.614,85 0,00 0,00 0,00 0,00 31/12/2020
981 104600 CARLOS JOSE E SILVA FORTES PROMOT.ENTRANC.ESPECIAL DIVINÓPOLIS - COMARCA; DIVINOPOLIS-PJ-06PJ 1.100,00 0,00 2.302,56 0,00 7.860,79 0,00 0,00 0,00 205,88 31/12/2020
982 656200 CARLOS JOSE GOMES ALVES 2O.TENENTE BELO HORIZONTE - COMARCA; NUCLEO DE OPERACOES DE SEGURANCA ORGANICA 1.100,00 0,00 0,00 0,00 0,00 0,00 0,00 0,00 2.715,85 31/12/2020
983 85400 CARLOS JOSE VIEIRA OFICIAL DO MP BELO HORIZONTE - COMARCA; DIRETORIA DO COLEGIO E DA CAMARA DE PJ 1.100,00 0,00 450,00 0,00 0,00 0,00 0,00 0,00 0,00 31/12/2020
984 685800 CARLOS LEONARDO MARTINS DA SILVA PROMOTOR SUBSTITUTO GRAO MOGOL - COMARCA; GRAO MOGOL-PJ-UNPJ 1.100,00 0,00 2.025,40 0,00 0,00 0,00 0,00 0,00 0,00 31/12/2020
985 1142200 CARLOS MARTINS DE OLIVEIRA JUNIOR ESTAGIARIO 0,00 0,00 0,00 45,00 0,00 0,00 0,00 0,00 0,00 31/12/2020
986 229100 CARLOS MERCES DE OLIVEIRA ANALISTA DO MP BELO HORIZONTE - COMARCA; CENTRAL DE APOIO TECN-SETOR DE MEIO AMBIENTE 1.100,00 0,00 450,00 0,00 0,00 0,00 0,00 0,00 0,00 31/12/2020
987 538300 CARLOS RANGEL SILVA DE MELO ANALISTA DO MP BELO HORIZONTE - COMARCA; DIVISAO DE CONTROLE IMOBILIARIO 1.100,00 769,39 450,00 0,00 0,00 0,00 0,00 0,00 0,00 31/12/2020
988 265100 CARLOS REIFF MIRANDA ANALISTA DO MP BELO HORIZONTE - COMARCA; BH-19PJ SAUDE-SECRETARIA 150PJ 1.100,00 0,00 450,00 0,00 0,00 0,00 0,00 0,00 0,00 31/12/2020
989 305400 CARLOS ROCHA DE SOUZA OFICIAL DO MP MONTALVÂNIA - COMARCA; MONTALVANIA-PJ-SECRETARIA 1.100,00 0,00 450,00 0,00 0,00 732,39 0,00 0,00 0,00 31/12/2020
990 371600 CARLOS SAMUEL BORGES CUNHA PROMOT.ENTRANC.ESPECIAL MANHUAÇU - COMARCA; MANHUACU-PJ-05PJ 1.100,00 0,00 1.599,00 0,00 5.614,85 0,00 0,00 0,00 0,00 31/12/2020
991 365100 CARLOS WAGNER SANDER MORAIS COORDENADOR/OFICIAL BELO HORIZONTE - COMARCA; DIRETORIA DE ADMINISTRACAO FINANCEIRA 1.100,00 0,00 450,00 0,00 0,00 0,00 0,00 0,00 -324,64 31/12/2020
992 293400 CARLOS WILDE RIBEIRO DE MELLO PROMOT.ENTRANC.ESPECIAL BARBACENA - COMARCA; BARBACENA-PJ-07PJ 1.100,00 0,00 2.558,40 0,00 5.614,85 0,00 0,00 0,00 0,00 31/12/2020
993 399900 CARMELITA EVANGELISTA DE SOUZA OFICIAL DO MP JOÃO PINHEIRO - COMARCA; JOAO PINHEIRO-PJ-01PJ 1.100,00 0,00 450,00 0,00 0,00 0,00 0,00 0,00 0,00 31/12/2020
994 202000 CARMEN LUCIA MARIZ DE MACEDO OFICIAL DO MP BELO HORIZONTE - COMARCA; DIRETORIA GESTAO COMPRAS LICITACOES 1.100,00 0,00 450,00 0,00 0,00 0,00 0,00 0,00 0,00 31/12/2020
995 987800 CAROLAINE GOMES DE SOUZA ESTAGIARIO PARACATU; COORD REG PP NOROESTE MINAS GERAIS PARACATU 0,00 0,00 0,00 72,00 0,00 0,00 0,00 0,00 0,00 31/12/2020
996 1094400 CAROLAINY APARECIDA SOUZA CASTRO ESTAGIARIO VICOSA; VICOSA-PJ-01PJ 0,00 0,00 0,00 99,00 0,00 0,00 0,00 0,00 0,00 31/12/2020
997 1181900 CAROLINA ALVES GOMES ESTAGIARIO UBERABA; COORD REG SAUDE MACROR SANIT TRIANGULO SUL 0,00 0,00 0,00 81,00 0,00 0,00 0,00 0,00 0,00 31/12/2020
998 359700 CAROLINA ANDRADE BORGES DE MATTOS PROMOTOR SUBSTITUTO BICAS - COMARCA; BICAS-PJ-UNPJ 1.100,00 0,00 2.174,64 0,00 5.067,40 0,00 0,00 0,00 0,00 31/12/2020
999 1149100 CAROLINA AUGUSTA MILO FERREIRA ESTAGIARIO UNAI; UNAI-PJ-03PJ 0,00 0,00 0,00 162,00 0,00 0,00 0,00 0,00 0,00 31/12/2020
1000 1103100 CAROLINA BONATO GONCALVES COSTA ESTAGIARIO BARBACENA; BARBACENA-PJ-08PJ 0,00 0,00 0,00 54,00 0,00 0,00 0,00 0,00 0,00 31/12/2020
1001 1164100 CAROLINA CARDOSO DE OLIVEIRA ESTAGIARIO IPATINGA; IPATINGA-PJ-06PJ 0,00 0,00 0,00 63,00 0,00 0,00 0,00 0,00 0,00 31/12/2020
1002 611000 CAROLINA CERIGATTO PROMOT.ENTRANC.ESPECIAL GOVERNADOR VALADARES - COMARCA; GOVERNADOR VALADARES-PJ-11PJ 1.100,00 0,00 0,00 0,00 0,00 0,00 0,00 0,00 0,00 31/12/2020
1003 1101000 CAROLINA CHARBEL LEITAO DE ALMEIDA ESTAGIARIO BELO HORIZONTE; BH-18PJ VIOLENCIA DOMESTICA-GAB 178PJ 0,00 0,00 0,00 99,00 0,00 0,00 0,00 0,00 0,00 31/12/2020
1004 228500 CAROLINA CHIARELLA DOS SANTOS RIBEIRO ASSESSOR/OFICIAL BELO HORIZONTE - COMARCA; PROCURADORIA-GERAL ADJUNTA INSTITUCIONAL 1.100,00 0,00 450,00 0,00 0,00 0,00 0,00 0,00 0,00 31/12/2020
1005 446500 CAROLINA COSTA VAL RODRIGUES ANALISTA DO MP CONTAGEM - COMARCA; CONTAGEM-PJ-05PJ 1.100,00 0,00 450,00 0,00 0,00 0,00 0,00 0,00 0,00 31/12/2020
1006 1198800 CAROLINA DINIZ MENDES ESTAGIARIO BELO HORIZONTE; BH-18PJ VIOLENCIA DOMESTICA-GAB 053PJ 0,00 0,00 0,00 108,00 0,00 0,00 0,00 0,00 0,00 31/12/2020
1007 603501 CAROLINA DOMINGOS BRANDAO RABELLO ANALISTA DO MP BARROSO - COMARCA; BARROSO-PJ-01PJ 1.100,00 0,00 450,00 0,00 0,00 0,00 0,00 0,00 0,00 31/12/2020
1008 404300 CAROLINA DOS SANTOS VIEIRA ANALISTA DO MP BELO HORIZONTE - COMARCA; BH-08PJ JUIZADO ESPECIAL-SECRETARIA 1.100,00 0,00 450,00 0,00 0,00 0,00 0,00 0,00 0,00 31/12/2020
1009 1039000 CAROLINA EVANGELISTA ALVES ESTAGIARIO BELO HORIZONTE; BH-18PJ VIOLENCIA DOMESTICA-GAB 185PJ 0,00 0,00 0,00 90,00 0,00 0,00 0,00 0,00 0,00 31/12/2020
1010 634600 CAROLINA FRARE LAMEIRINHA PROMOTOR 2A ENTRANCIA CARMO DO PARANAÍBA - COMARCA; CARMO DO PARANAIBA-PJ-02PJ 1.100,00 0,00 1.833,52 0,00 0,00 0,00 0,00 0,00 0,00 31/12/2020
1011 405401 CAROLINA GENTIL MEDEIROS MARQUEZ PROMOTOR SUBSTITUTO BETIM - COMARCA; BETIM-PJ-08PJ 1.100,00 0,00 2.345,20 0,00 0,00 0,00 0,00 0,00 0,00 31/12/2020
1012 551200 CAROLINA LOPES ARANTES MASCARENHAS ANALISTA DO MP BELO HORIZONTE - COMARCA; EXTINTA-COORD EST DEF DIR FAM PES DEFIC IDOSO 1.100,00 769,39 450,00 0,00 0,00 0,00 0,00 0,00 0,00 31/12/2020
1013 994100 CAROLINA LOPES DE AGUIAR ESTAGIARIO BELO HORIZONTE; BH-07PJ 01 TRIBUNAL DO JURI-GAB 060PJ 0,00 0,00 0,00 36,00 0,00 0,00 0,00 0,00 0,00 31/12/2020
1014 622600 CAROLINA LOREDO LOPES CATIZANI OFICIAL DO MP RIBEIRÃO DAS NEVES - COMARCA; RIBEIRAO DAS NEVES-PJ-12PJ 1.100,00 0,00 450,00 0,00 0,00 0,00 0,00 0,00 0,00 31/12/2020
1015 1139100 CAROLINA MARIA DE ANDRADE RAMOS ESTAGIARIO 0,00 0,00 0,00 162,00 90,50 0,00 0,00 0,00 0,00 31/12/2020
1016 362900 CAROLINA MARQUES ANDRADE PROMOTOR 2A ENTRANCIA FRUTAL - COMARCA; FRUTAL-PJ-01PJ 1.100,00 0,00 2.601,04 0,00 5.334,11 0,00 0,00 0,00 0,00 31/12/2020
1017 1192000 CAROLINA MARTINS AGUIAR ESTAGIARIO RIBEIRAO DAS NEVES; RIBEIRAO NEVES-SEC PJ EXECUCAO PENAL 0,00 0,00 0,00 162,00 0,00 0,00 0,00 0,00 0,00 31/12/2020
1018 457400 CAROLINA MELO CAMPOS PROMOTOR SUBSTITUTO CONTAGEM - COMARCA; CONTAGEM-PJ-21PJ 1.100,00 0,00 746,20 0,00 9.121,32 0,00 0,00 0,00 185,80 31/12/2020
1019 382200 CAROLINA MENDES CHAVES LIN ANALISTA DO MP BELO HORIZONTE - COMARCA; BH-12PJ JUIZO CRIMINAL-GAB 088PJ 1.100,00 769,39 450,00 0,00 0,00 0,00 0,00 0,00 0,00 31/12/2020
1020 313600 CAROLINA MENDONCA DE SIQUEIRA PROMOT.ENTRANC.ESPECIAL BELO HORIZONTE - COMARCA; ASSESSORIA ESPECIAL DO PGJ 1.100,00 0,00 1.279,20 0,00 3.368,91 0,00 0,00 0,00 308,82 31/12/2020
1021 461900 CAROLINA MURTA TEIXEIRA DIAS ASSESSOR/ANALISTA BELO HORIZONTE - COMARCA; PROCURADOR-GERAL DE JUSTIÇA 1.100,00 0,00 450,00 0,00 0,00 0,00 0,00 0,00 0,00 31/12/2020
1022 1193900 CAROLINA PEREIRA VIEIRA ESTAGIARIO BELO HORIZONTE; PROC. JUSTICA CRIMINAL 0,00 0,00 0,00 126,00 0,00 0,00 0,00 0,00 0,00 31/12/2020
1023 509600 CAROLINA PINTO DE OLIVEIRA SOUZA ANALISTA DO MP MURIAÉ - COMARCA; MURIAE-PJ-01PJ 1.100,00 769,39 450,00 0,00 0,00 0,00 0,00 0,00 0,00 31/12/2020
1024 526400 CAROLINA QUEIROZ DE CARVALHO PROMOT.ENTRANC.ESPECIAL CONSELHEIRO LAFAIETE - COMARCA; CONSELHEIRO LAFAIETE-PJ-02PJ 1.100,00 0,00 0,00 0,00 0,00 0,00 0,00 0,00 0,00 31/12/2020
1025 1200500 CAROLINA RIBEIRO DOS SANTOS ESTAGIARIO BELO HORIZONTE; BH-08PJ JUIZADO ESPECIAL-GAB 067PJ 0,00 0,00 0,00 81,00 0,00 0,00 0,00 0,00 0,00 31/12/2020
1026 667000 CAROLINA RITA TORRES GRUBER PROMOTOR 2A ENTRANCIA SÃO FRANCISCO - COMARCA; SAO FRANCISCO-PJ-01PJ 1.100,00 0,00 1.407,12 0,00 0,00 0,00 0,00 0,00 0,00 31/12/2020
1027 629100 CAROLINA RODRIGUES AMARAL ANALISTA DO MP BELO HORIZONTE - COMARCA; PROC. JUSTICA DIR. DIFUSOS E COLETIVOS-SEC 1.100,00 0,00 450,00 0,00 0,00 0,00 0,00 0,00 0,00 31/12/2020
1028 502600 CAROLINA RODRIGUES RUBEN ANALISTA DO MP BELO HORIZONTE - COMARCA; BH-18PJ VIOLENCIA DOMESTICA-SECRETARIA 1.100,00 1.538,78 450,00 0,00 0,00 0,00 0,00 0,00 0,00 31/12/2020
1029 1045600 CAROLINA SANTOS FERREIRA DE LEMOS ESTAGIARIO BELO HORIZONTE; BH-02PJ FAMILIA-SECRETARIA
1030 1176700 CAROLINA SOUZA ALVES ESTAGIARIO SABARA; SABARA-PJ-03PJ 0,00 0,00 0,00 162,00 0,00 0,00 0,00 0,00 0,00 31/12/2020
1031 1032800 CAROLINA STEFANE SILVA MOREIRA ESTAGIARIO VESPASIANO; VESPASIANO-PJ-06PJ 0,00 0,00 0,00 54,00 0,00 0,00 0,00 0,00 0,00 31/12/2020
1032 1144200 CAROLINA TEIXEIRA SILVA ESTAGIARIO ARINOS; ARINOS-PJ-UNPJ 0,00 0,00 0,00 117,00 0,00 0,00 0,00 0,00 0,00 31/12/2020
1033 529600 CAROLINA VAZ DE MELO MAMBRINI ANALISTA DO MP BELO HORIZONTE - COMARCA; DIVISAO DE MATERIAIS 1.100,00 0,00 450,00 0,00 0,00 0,00 0,00 0,00 293,94 31/12/2020
1034 619100 CAROLINA ZAKHIA NARDELLI RODRIGUES ANALISTA DO MP NEPOMUCENO - COMARCA; NEPOMUCENO-PJ-UNPJ 1.100,00 769,39 450,00 0,00 0,00 0,00 0,00 0,00 0,00 31/12/2020
1035 517600 CAROLINE ALVES DE OLIVEIRA MULLER ANALISTA DO MP VISCONDE DO RIO BRANCO - COMARCA; VISCONDE DO RIO BRANCO-PJ-01PJ 1.100,00 769,39 450,00 0,00 0,00 0,00 0,00 0,00 0,00 31/12/2020
1036 957800 CAROLINE ALVES GARCIA RODRIGUES ESTAGIARIO BELO HORIZONTE; ASSESSORIA ESPECIAL DO PGJ 0,00 0,00 0,00 63,00 0,00 0,00 0,00 0,00 0,00 31/12/2020
1037 373200 CAROLINE ANTUNES RIBEIRO OFICIAL DO MP JACUI - COMARCA; JACUI-PJ-UNPJ 1.100,00 0,00 450,00 0,00 0,00 0,00 0,00 0,00 0,00 31/12/2020
1038 1084100 CAROLINE APARECIDA MENDES ESTAGIARIO UBERLANDIA; UBERLANDIA-PJ-04PJ 0,00 0,00 0,00 162,00 0,00 0,00 0,00 0,00 0,00 31/12/2020
1039 1201600 CAROLINE APARECIDA SOARES FERREIRA ESTAGIARIO ITAJUBA; ITAJUBA-PJ-01PJ 0,00 0,00 0,00 162,00 0,00 0,00 0,00 0,00 0,00 31/12/2020
1040 556800 CAROLINE DE SOUZA CARDOSO DOMINGUES OFICIAL DO MP BRASÍLIA DE MINAS - COMARCA; BRASILIA DE MINAS-PJ-02PJ 1.100,00 0,00 450,00 0,00 0,00 0,00 0,00 0,00 0,00 31/12/2020
1041 1143700 CAROLINE ESTEVES DE CARVALHO ESTAGIARIO 0,00 0,00 0,00 162,00 0,00 0,00 0,00 0,00 0,00 31/12/2020
1042 1081300 CAROLINE FERREIRA DE ALMEIDA ESTAGIARIO BELO HORIZONTE; BH-02PJ FAMILIA-GAB 016PJ
1043 499400 CAROLINE MARQUES DE LOURDES MARZULLO OFICIAL DO MP JUIZ DE FORA - COMARCA; JUIZ DE FORA-PJ-08PJ 1.100,00 1.153,54 450,00 0,00 0,00 0,00 0,00 0,00 0,00 31/12/2020
1044 616800 CAROLINE MONTEIRO DE BARROS ANALISTA DO MP CONTAGEM - COMARCA; CONTAGEM-PJ-11PJ 1.100,00 0,00 450,00 0,00 0,00 0,00 0,00 0,00 0,00 31/12/2020
1045 342500 CAROLINE PESTANA GOMES PROMOT.ENTRANC.ESPECIAL VESPASIANO - COMARCA; VESPASIANO-PJ-06PJ 1.100,00 0,00 2.869,20 0,00 5.614,85 0,00 0,00 0,00 0,00 31/12/2020
1046 1079200 CAROLINE REVERT OLIVEIRA SOARES ESTAGIARIO JANUARIA; JANUARIA-PJ-02PJ 0,00 0,00 0,00 162,00 0,00 0,00 0,00 0,00 0,00 31/12/2020
1047 972000 CAROLINE SARMENTO RODRIGUES ESTAGIARIO SALINAS; SALINAS-PJ-02PJ
1048 1093400 CAROLINE SILVA ARAUJO ESTAGIARIO BELO HORIZONTE; DIVISAO DE MANUTENCAO PREDIAL 0,00 0,00 0,00 27,00 0,00 0,00 0,00 0,00 0,00 31/12/2020
1049 618100 CAROLINE VASCONCELOS COSTA LANZA ANALISTA DO MP PARAOPEBA - COMARCA; PARAOPEBA-PJ-UNPJ 1.100,00 3.077,56 450,00 0,00 0,00 0,00 0,00 0,00 0,00 31/12/2020
1050 699000 CAROLLINA RODRIGUES SOUTO AMARAL ASSESSOR PROCURADOR JUSTICA BELO HORIZONTE - COMARCA; GABINETE DE PROCURADOR DE JUSTIÇA - SALA 405 1.000,00 0,00 450,00 0,00 0,00 0,00 0,00 0,00 0,00 31/12/2020
1051 210600 CASSANDRA DA CONCEICAO DANTAS SERRAO PROMOT.ENTRANC.ESPECIAL BELO HORIZONTE - COMARCA; BH-02PJ FAMILIA-GAB 026PJ 1.100,00 0,00 1.748,24 0,00 5.614,85 0,00 0,00 0,00 0,00 31/12/2020
1052 604000 CASSIA APARECIDA DA SILVA OFICIAL DO MP PARACATU - COMARCA; PARACATU-PJ-01PJ 1.100,00 0,00 450,00 0,00 0,00 0,00 0,00 0,00 0,00 31/12/2020
1053 268800 CASSIA BEATRIZ TEIXEIRA OFICIAL DO MP BELO HORIZONTE - COMARCA; PROC JUST ESP ACOES COMP ORIG CRIMINAL-SEC 1.100,00 0,00 450,00 0,00 0,00 0,00 0,00 0,00 0,00 31/12/2020
1054 500000 CASSIA DE OLIVEIRA COSTA VIANA ANALISTA DO MP SETE LAGOAS - COMARCA; SETE LAGOAS-PJ-09PJ 1.100,00 0,00 450,00 0,00 0,00 0,00 0,00 0,00 0,00 31/12/2020
1055 1026900 CASSIA DOS REIS SILVA ESTAGIARIO NOVA LIMA; NOVA LIMA-PJ-02PJ 0,00 0,00 0,00 117,00 0,00 0,00 0,00 0,00 0,00 31/12/2020
1056 368800 CASSIA LUISA BATISTA MENDONCA WEBER OFICIAL DO MP BELO HORIZONTE - COMARCA; DIVISÃO DE EDUCAÇÃO PARA O CONSUMO 1.100,00 0,00 450,00 0,00 0,00 0,00 0,00 0,00 0,00 31/12/2020
1057 622200 CASSIA VAZ DE AZEVEDO LISBOA MARZANO ASSESSOR BELO HORIZONTE - COMARCA; CGMP-SECRETARIA DA CORREGEDORIA-GERAL DO MP 1.100,00 769,39 450,00 0,00 0,00 0,00 0,00 0,00 0,00 31/12/2020
1058 156100 CASSIA VIRGINIA SERRA TEIXEIRA GONTIJO PROCURADOR DE JUSTICA BELO HORIZONTE - COMARCA; GABINETE DE PROCURADOR DE JUSTIÇA - SALA 610 1.100,00 0,00 2.451,80 0,00 5.910,37 0,00 0,00 0,00 -320,41 31/12/2020
1059 971100 CASSIANO QUEIROZ AVELAR SILVEIRA ESTAGIARIO PASSOS; PASSOS-PJ-05PJ 0,00 0,00 0,00 162,00 0,00 0,00 0,00 0,00 0,00 31/12/2020
1060 121000 CASSIO HENRIQUE AFONSO DA SILVA OFICIAL DO MP BELO HORIZONTE - COMARCA; CGMP-ASSESSORIA JURIDICA 1.100,00 0,00 450,00 0,00 0,00 0,00 0,00 0,00 0,00 31/12/2020
1061 512001 CATARINA NATALINO CALIXTO COORDENADOR/ANALISTA BELO HORIZONTE - COMARCA; DIRETORIA GESTAO TRANSPORTES 1.100,00 0,00 450,00 0,00 0,00 0,00 0,00 0,00 -225,33 31/12/2020
1062 606200 CATARINE DE SIQUEIRA DE QUADROS ANALISTA DO MP RIBEIRÃO DAS NEVES - COMARCA; RIBEIRAO DAS NEVES-PJ-02PJ 1.100,00 0,00 450,00 0,00 0,00 0,00 0,00 0,00 0,00 31/12/2020
1063 622300 CECILIA APARECIDA PEREIRA ASSUNCAO OFICIAL DO MP TRÊS PONTAS - COMARCA; TRES PONTAS-PJ-SECRETARIA 1.100,00 1.538,78 450,00 0,00 0,00 0,00 0,00 0,00 0,00 31/12/2020
1064 538000 CECILIA FONTES DE MATOS PIMENTEL ANALISTA DO MP PALMA - COMARCA; PALMA-PJ-UNPJ 1.100,00 769,39 450,00 0,00 0,00 0,00 0,00 0,00 0,00 31/12/2020
1065 261300 CECILIO ANTONIO CAMPOS DOS REIS ANALISTA DO MP BELO HORIZONTE - COMARCA; AUDITORIA INTERNA 1.100,00 0,00 450,00 0,00 0,00 0,00 0,00 0,00 0,00 31/12/2020
1066 386400 CEFAS AMORELI DE FIGUEIREDO OFICIAL DO MP CABO VERDE - COMARCA; CABO VERDE-PJ-SECRETARIA 1.100,00 0,00 450,00 0,00 0,00 0,00 0,00 0,00 0,00 31/12/2020
1067 105600 CELIA BEATRIZ GOMES DOS SANTOS PROCURADOR DE JUSTICA BELO HORIZONTE - COMARCA; PROC JUSTICA DIR DIFUSOS E COLETIVOS-GAB006 1.100,00 0,00 1.599,00 0,00 11.820,74 0,00 0,00 0,00 541,78 31/12/2020
1068 149000 CELIA MAGALHAES CLAROS SOSSI OFICIAL DO MP GOVERNADOR VALADARES - COMARCA; GAECO REGIONAL DE GOVERNADOR VALADARES 1.100,00 0,00 450,00 0,00 0,00 0,00 0,00 0,00 0,00 31/12/2020
1069 421000 CELINA BENEDITA DE SOUZA ALMEIDA OFICIAL DO MP CAMBUÍ - COMARCA; CAMBUI-PJ-01PJ 1.100,00 0,00 450,00 0,00 0,00 0,00 0,00 0,00 0,00 31/12/2020
1070 252900 CELIO DE MELO CASTOR ANALISTA DO MP BELO HORIZONTE - COMARCA; BH-02PJ FAMILIA-SECRETARIA 1.100,00 0,00 450,00 0,00 0,00 0,00 0,00 0,00 0,00 31/12/2020
1071 486300 CELIO DIMAS ESTEVES RUAS PROMOT.ENTRANC.ESPECIAL CORONEL FABRICIANO - COMARCA; CORONEL FABRICIANO-PJ-02PJ 1.100,00 0,00 1.982,76 0,00 8.983,76 0,00 0,00 0,00 308,82 31/12/2020
1072 395700 CELIO FERREIRA LIMA OFICIAL DO MP CONTAGEM - COMARCA; CONTAGEM-PJ-SECRETARIA 1.100,00 769,39 450,00 0,00 0,00 0,00 0,00 0,00 0,00 31/12/2020
1073 281300 CELMA REGINA PEREIRA SANTOS ANALISTA DO MP BELO HORIZONTE - COMARCA; SUPERINTENDENCIA GESTÃO DE PESSOAS 1.100,00 0,00 450,00 0,00 0,00 0,00 0,00 0,00 0,00 31/12/2020
1074 535600 CELSO MEDEIROS DE PAIVA OFICIAL DO MP RIO PRETO - COMARCA; RIO PRETO-PJ-SECRETARIA 1.100,00 0,00 450,00 0,00 0,00 141,10 0,00 0,00 0,00 31/12/2020
1075 157700 CELSO PENNA FERNANDES JUNIOR PROMOT.ENTRANC.ESPECIAL BELO HORIZONTE - COMARCA; BH-23PJ CIVEL-GAB 162PJ 1.100,00 0,00 2.345,20 0,00 5.614,85 0,00 0,00 0,00 0,00 31/12/2020
1076 93700 CESAR ANTONIO COSSI PROCURADOR DE JUSTICA BELO HORIZONTE - COMARCA; GABINETE DE PROCURADOR DE JUSTIÇA - SALA 805 1.100,00 0,00 2.558,40 0,00 11.820,74 0,00 0,00 0,00 541,78 31/12/2020
1077 293100 CESAR ANTONIO DE LIMA PROMOT.ENTRANC.ESPECIAL VARGINHA - COMARCA; VARGINHA-PJ-04PJ 1.100,00 0,00 2.558,40 0,00 5.614,85 0,00 0,00 0,00 0,00 31/12/2020
1078 293800 CESAR AUGUSTO DOS SANTOS PROMOT.ENTRANC.ESPECIAL BELO HORIZONTE - COMARCA; BH-12PJ JUIZO CRIMINAL-GAB 091PJ 1.100,00 0,00 852,80 0,00 5.614,85 0,00 0,00 0,00 0,00 31/12/2020
1079 367000 CESAR NARVAES DE AVELAR COORDENADOR/OFICIAL BELO HORIZONTE - COMARCA; DIVISAO DE MEMORIA INSTITUCIONAL 1.100,00 0,00 450,00 0,00 0,00 0,00 0,00 0,00 -533,12 31/12/2020
1080 226500 CESAR SILVEIRA BARROUIN OFICIAL DO MP BELO HORIZONTE - COMARCA; DIRETORIA DE ADMINISTRACAO FINANCEIRA 1.100,00 0,00 450,00 0,00 0,00 0,00 0,00 0,00 0,00 31/12/2020
1081 293500 CESAR YOSHIKAWA PROMOT.ENTRANC.ESPECIAL BELO HORIZONTE - COMARCA; BH-12PJ JUIZO CRIMINAL-GAB 083PJ 1.100,00 0,00 2.302,56 0,00 5.614,85 0,00 0,00 0,00 0,00 31/12/2020
1082 1125600 CEZAR AUGUSTO RANGEL MARQUES ESTAGIARIO JUIZ DE FORA; JUIZ DE FORA-PJ-22PJ 0,00 0,00 0,00 153,00 0,00 0,00 0,00 0,00 0,00 31/12/2020
1083 121400 CEZAR MORENO CONCEICAO TAVARES OFICIAL DO MP BELO HORIZONTE - COMARCA; EXTINTA-COORD EST DEF DIR FAM PES DEFIC IDOSO 1.100,00 769,39 450,00 0,00 0,00 0,00 0,00 0,00 0,00 31/12/2020
1084 1175900 CHARLENE MARISE DA SILVA ESTAGIARIO ESMERALDAS; ESMERALDAS-PJ-02PJ 0,00 0,00 0,00 108,00 0,00 0,00 0,00 0,00 0,00 31/12/2020
1085 664100 CHARLES BARBOSA DA SILVA 3O.SARGENTO BELO HORIZONTE - COMARCA; NUCLEO DE OPERACOES DE SEGURANCA DE PESSOAL 1.100,00 0,00 0,00 0,00 0,00 0,00 0,00 0,00 1.422,90 31/12/2020
1086 210400 CHARLES DANIEL FRANCA SALOMAO PROMOT.ENTRANC.ESPECIAL PARÁ DE MINAS - COMARCA; PARA DE MINAS-PJ-02PJ 1.100,00 0,00 1.748,24 0,00 11.229,70 0,00 0,00 0,00 514,69 31/12/2020
1087 669200 CHARLES HENRIQUE SQUARCIO CABO BELO HORIZONTE - COMARCA; GAECO - SECRETARIA 1.100,00 0,00 0,00 0,00 0,00 0,00 0,00 0,00 1.233,25 31/12/2020
1088 243800 CHARLES MARTINS MUNIZ OFICIAL DO MP BELO HORIZONTE - COMARCA; LAB TECNOLOGIA CONTRA LAVAGEM DINHEIRO 1.100,00 0,00 0,00 0,00 0,00 0,00 0,00 0,00 0,00 31/12/2020
1089 193500 CHARLIN CESAR KOURLY OFICIAL DO MP ARAGUARI - COMARCA; ARAGUARI-PJ-07PJ 1.100,00 0,00 450,00 0,00 0,00 0,00 0,00 0,00 0,00 31/12/2020
1090 385500 CHILLEN PEIXOTO DE MOURA OFICIAL DO MP BELO HORIZONTE - COMARCA; DIVISÃO DE FISCALIZAÇÃO DAS RELAÇÕES DE CONSU 1.100,00 769,39 450,00 0,00 0,00 0,00 0,00 0,00 0,00 31/12/2020
1091 1094300 CHRISLAYNE DE FATIMA DA SILVA ESTAGIARIO VICOSA; VICOSA-PJ-01PJ 0,00 0,00 0,00 90,00 0,00 0,00 0,00 0,00 30,17 31/12/2020
1092 1003500 CHRISTIAN ALEXANDRE DA SILVA PEREIRA ESTAGIARIO SANTA LUZIA; SANTA LUZIA-PJ-03PJ 0,00 0,00 0,00 54,00 0,00 0,00 0,00 0,00 0,00 31/12/2020
1093 534500 CHRISTIAN DOUGLAS BRITO RUAS OFICIAL DO MP SÃO JOÃO DA PONTE - COMARCA; SAO JOAO DA PONTE-PJ-SECRETARIA 1.100,00 0,00 450,00 0,00 0,00 0,00 0,00 0,00 0,00 31/12/2020
1094 370600 CHRISTIAN KARINE FELIX PRATES ASSESSOR BELO HORIZONTE - COMARCA; SUPRIN DE PLANEJAMENTO E COORDENACAO 1.100,00 0,00 450,00 0,00 0,00 0,00 0,00 0,00 0,00 31/12/2020
1095 1073800 CHRISTIAN RODRIGUES FRAGA DA SILVA ESTAGIARIO BELO HORIZONTE; SUPERINTENDÊNCIA DE ENGENHARIA E ARQUITETURA 0,00 0,00 0,00 81,00 0,00 0,00 0,00 0,00 0,00 31/12/2020
1096 435800 CHRISTIANA BAHIA ANDRADE PINA ANALISTA DO MP BELO HORIZONTE - COMARCA; LABORATORIO TECNOLOGIA INTELIGENCIA 1.100,00 769,39 450,00 0,00 0,00 0,00 0,00 0,00 0,00 31/12/2020
1097 516800 CHRISTIANE FERREIRA DO NASCIMENTO ANALISTA DO MP POUSO ALEGRE - COMARCA; POUSO ALEGRE-PJ-08PJ 1.100,00 0,00 450,00 0,00 0,00 0,00 0,00 0,00 0,00 31/12/2020
1098 176000 CHRISTIANE JUNQUEIRA PULITI ANDRADE DE BARROS ASSESSOR BELO HORIZONTE - COMARCA; CAO-VIOLENCIA DOMESTICA E FAMILIAR 1.100,00 0,00 450,00 0,00 0,00 0,00 0,00 0,00 0,00 31/12/2020
1099 319200 CHRISTIANE MARIA DE ASSIS RUSSO OFICIAL DO MP BELO HORIZONTE - COMARCA; CAO-ORDEM ECONOMICA E TRIBUTARIA-SECRETARIA 1.100,00 769,39 450,00 0,00 0,00 0,00 0,00 0,00 0,00 31/12/2020
1100 510300 CHRISTIANE MARY DE CARVALHO FERREIRA ANALISTA DO MP BELO HORIZONTE - COMARCA; DIRETORIA DE SISTEMAS DE INFORMACAO 1.100,00 0,00 450,00 0,00 0,00 0,00 0,00 0,00 0,00 31/12/2020
1101 424900 CHRISTIANE PEREIRA TURNER DE ARAUJO OFICIAL DO MP BELO HORIZONTE - COMARCA; CAO-PATRIMONIO PUBLICO 1.100,00 769,39 450,00 0,00 0,00 0,00 0,00 0,00 0,00 31/12/2020
1102 513700 CHRISTIANE VIEIRA SOARES PEDERSOLI ASSESSOR/ANALISTA BELO HORIZONTE - COMARCA; ASSESSORIA JURIDICA DO PROCON-MG 1.100,00 769,39 450,00 0,00 0,00 0,00 0,00 0,00 0,00 31/12/2020
1103 163300 CHRISTIANNE COTRIM ASSAD BENSOUSSAN PROMOT.ENTRANC.ESPECIAL BELO HORIZONTE - COMARCA; COORD ESTADUAL COMBATE CRIMES CIBERNETICOS 1.100,00 0,00 2.643,68 0,00 5.614,85 0,00 0,00 0,00 0,00 31/12/2020
1104 371400 CHRISTIANO LEONARDO GONZAGA GOMES PROMOTOR 2A ENTRANCIA SABARÁ - COMARCA; SABARA-PJ-02PJ 1.100,00 0,00 1.279,20 0,00 5.334,11 0,00 0,00 0,00 664,63 31/12/2020
1105 412300 CHRYSTIAN MACHADO RIBEIRO ANALISTA DO MP VARGINHA - COMARCA; VARGINHA-PJ-04PJ 1.100,00 0,00 450,00 0,00 0,00 0,00 0,00 0,00 0,00 31/12/2020
1106 513800 CHRYSTIANE DO NASCIMENTO DE MAGALHAES OFICIAL DO MP UBERLÂNDIA - COMARCA; UBERLANDIA-PJ-10PJ 1.100,00 769,39 450,00 0,00 0,00 0,00 0,00 0,00 0,00 31/12/2020
1107 497900 CIBELE DE FREITAS SANCHES DIAS ANALISTA DO MP SABARÁ - COMARCA; SABARA-PJ-03PJ 1.100,00 0,00 450,00 0,00 0,00 0,00 0,00 0,00 0,00 31/12/2020
1108 500900 CIBELLE SILVA PRADO ALVARENGA ANALISTA DO MP ITANHANDU - COMARCA; ITANHANDU-PJ-UNPJ 1.100,00 1.538,78 450,00 0,00 0,00 0,00 0,00 0,00 0,00 31/12/2020
1109 1135700 CIBELLY OLIVEIRA SOARES ESTAGIARIO TEOFILO OTONI; TEOFILO OTONI-PJ-07PJ 0,00 0,00 0,00 108,00 0,00 0,00 0,00 0,00 0,00 31/12/2020
1110 1131800 CINDY KEILA VILELA ESTAGIARIO LAVRAS; LAVRAS-PJ-06PJ 0,00 0,00 0,00 153,00 0,00 0,00 0,00 0,00 0,00 31/12/2020
1111 1163000 CINTHIA GONCALVES CAVALINI ESTAGIARIO UBERABA; UBERABA-PJ-11PJ 0,00 0,00 0,00 162,00 0,00 0,00 0,00 0,00 0,00 31/12/2020
1112 296400 CINTIA APARECIDA MOREIRA NAVES E RODRIGUES ANALISTA DO MP CAMPO BELO - COMARCA; CAMPO BELO-PJ-02PJ 1.100,00 0,00 450,00 0,00 0,00 0,00 0,00 0,00 0,00 31/12/2020
1113 928900 CINTIA CRISTINA DE SOUZA GONCALVES ESTAGIARIO BELO HORIZONTE; PROC. JUSTICA CRIMINAL
1114 171200 CINTIA MARIA OLIVEIRA DE LUCENA PROMOT.ENTRANC.ESPECIAL BELO HORIZONTE - COMARCA; BH-23PJ INFRACIONAL-GAB 144PJ 1.100,00 0,00 1.833,52 0,00 6.737,82 0,00 0,00 0,00 102,94 31/12/2020
1115 1209800 CINTIA MOREIRA SILVA ESTAGIARIO BELO VALE; BELO VALE-PJ-UNPJ 0,00 0,00 0,00 63,00 0,00 0,00 0,00 0,00 0,00 31/12/2020
1116 407900 CINTIA NETO COMELLI ANALISTA DO MP BELO HORIZONTE - COMARCA; CENTRAL DE APOIO TECNICO-SETOR CONTABIL 1.100,00 769,39 450,00 0,00 5.620,98 0,00 0,00 0,00 515,26 31/12/2020
1117 304700 CINTIA QUEIROZ OFICIAL DO MP BELO HORIZONTE - COMARCA; OUVIDORIA DO MPMG 1.100,00 0,00 450,00 0,00 0,00 0,00 0,00 0,00 0,00 31/12/2020
1118 163000 CINTIA ROBERTA GOMES DE LIMA PROMOTOR 2A ENTRANCIA VARGINHA - COMARCA; COORD REG PJ DEF EDUC DIR CRIANCA ADOL SUL 1.100,00 0,00 1.748,24 0,00 5.334,11 0,00 0,00 0,00 0,00 31/12/2020
1119 286100 CIRO CANGUSSU CORDEIRO OFICIAL DO MP IPATINGA - COMARCA; IPATINGA-PJ-09PJ 1.100,00 769,39 450,00 0,00 0,00 0,00 0,00 0,00 0,00 31/12/2020
1120 689900 CISSA NOGUEIRA NUNES ASSESSOR PROCURADOR JUSTICA BELO HORIZONTE - COMARCA; GABINETE DE PROCURADOR DE JUSTIÇA - SALA 608 1.100,00 0,00 450,00 0,00 0,00 0,00 0,00 0,00 0,00 31/12/2020
1121 1086300 CLARA ALEXANDRINA DOS SANTOS ESTAGIARIO BETIM; BETIM-PJ-13PJ 0,00 0,00 0,00 153,00 0,00 0,00 0,00 0,00 0,00 31/12/2020
1122 1052200 CLARA CAETANO TROPIA ESTAGIARIO BELO HORIZONTE; DIR CONTEUDO JORNALISTICO
1123 1185600 CLARA DE SALES DUARTE ESTAGIARIO BELO HORIZONTE; PROC. JUSTICA CRIMINAL 0,00 0,00 0,00 72,00 0,00 0,00 0,00 0,00 30,17 31/12/2020
1124 681700 CLARA FERREIRA ALKIMIM ASSESSOR PROMOTOR JUSTICA ARAÇUAÍ - COMARCA; ARACUAI-PJ-01PJ 1.100,00 0,00 450,00 0,00 0,00 0,00 0,00 0,00 0,00 31/12/2020
1125 1163800 CLARA GABRIELA GOUVEIA MONTEIRO ESTAGIARIO BELO HORIZONTE; PROC. JUSTICA CRIMINAL 0,00 0,00 0,00 18,00 0,00 0,00 0,00 0,00 0,00 31/12/2020
1126 1157100 CLARA ISABELLE SOUSA FARIA ESTAGIARIO BELO HORIZONTE; PROC. JUSTICA DE HABEAS CORPUS
1127 1095900 CLARA LAENDER GAZZINELLI ESTAGIARIO BELO HORIZONTE; PROC. JUSTICA DE HABEAS CORPUS 0,00 0,00 0,00 108,00 0,00 0,00 0,00 0,00 0,00 31/12/2020
1128 996300 CLARA LIMA LIPOVETSKY ESTAGIARIO BELO HORIZONTE; CAO-FUNDACOES 0,00 0,00 0,00 108,00 0,00 0,00 0,00 0,00 0,00 31/12/2020
1129 484900 CLARA MARIA HOEHNE SEPULVEDA PROMOT.ENTRANC.ESPECIAL SETE LAGOAS - COMARCA; SETE LAGOAS-PJ-09PJ 1.100,00 0,00 2.771,60 0,00 5.783,30 0,00 0,00 0,00 71,59 31/12/2020
1130 1157800 CLARA MARIA RODRIGUES DA SILVA ESTAGIARIO BELO HORIZONTE; BH-08PJ JUIZADO ESPECIAL-GAB 071PJ 0,00 0,00 0,00 72,00 0,00 0,00 0,00 0,00 0,00 31/12/2020
1131 695500 CLARA RODRIGUES BLACH ASSESSOR PROCURADOR JUSTICA BELO HORIZONTE - COMARCA; PROCURADORIA-GERAL DE JUSTICA 1.000,00 0,00 450,00 0,00 0,00 0,00 0,00 0,00 0,00 31/12/2020
1132 894700 CLARA RODRIGUES BLACH ESTAGIARIO BELO HORIZONTE; BH-19PJ SAUDE-GAB 129PJ 0,00 0,00 0,00 0,00 401,67 0,00 0,00 0,00 0,00 31/12/2020
1133 1086700 CLARICE CARDOSO VALENTIM ESTAGIARIO BELO HORIZONTE; DIRET DE FORMACAO, APERFEIC. E POS-GRADUACAO
1134 412500 CLARICE GOMES MAROTTA ANALISTA DO MP BELO HORIZONTE - COMARCA; COORD ESTADUAL DE DEFESA DOS ANIMAIS 1.100,00 0,00 450,00 0,00 0,00 0,00 0,00 0,00 0,00 31/12/2020
1135 1005900 CLARICE GUIMARAES RABELLO ESTAGIARIO BELO HORIZONTE; DIVISAO DE MEMORIA INSTITUCIONAL
1136 1134500 CLARISSA ALVES DA SILVA ESTAGIARIO TEOFILO OTONI; TEOFILO OTONI-PJ-05PJ 0,00 0,00 0,00 162,00 0,00 0,00 0,00 0,00 0,00 31/12/2020
1137 605300 CLARISSA AZEVEDO ROCHA OFICIAL DO MP BELO HORIZONTE - COMARCA; DIRET DE DESENV DE RECURSOS HUMANOS-DDRH 1.100,00 0,00 450,00 0,00 0,00 0,00 0,00 0,00 0,00 31/12/2020
1138 1059700 CLARISSA BRANDAO FREITAS ESTAGIARIO BELO HORIZONTE; BH-07PJ 01 TRIBUNAL JURI-SECRETARIA 0,00 0,00 0,00 45,00 0,00 0,00 0,00 0,00 0,00 31/12/2020
1139 308100 CLARISSA DUARTE BELLONI DIRETOR/ANALISTA BELO HORIZONTE - COMARCA; DIRETORIA-GERAL 1.100,00 2.307,08 450,00 0,00 0,00 0,00 0,00 0,00 -853,38 31/12/2020
1140 402100 CLARISSA GOBBO DOS SANTOS PROMOT.ENTRANC.ESPECIAL RIBEIRÃO DAS NEVES - COMARCA; RIBEIRAO DAS NEVES-PJ-04PJ 1.100,00 0,00 2.601,04 0,00 5.614,85 0,00 0,00 0,00 0,00 31/12/2020
1141 1020500 CLARISSA MATEUS LAVARINI CALAZANS ESTAGIARIO SETE LAGOAS; SETE LAGOAS-PJ-01PJ 0,00 0,00 0,00 72,00 0,00 0,00 0,00 0,00 0,00 31/12/2020
1142 497100 CLARISSA ROCHA GUIDI ANALISTA DO MP BELO HORIZONTE - COMARCA; BH-02PJ FAMILIA-SECRETARIA 1.100,00 769,39 450,00 0,00 0,00 0,00 0,00 0,00 0,00 31/12/2020
1143 661600 CLARISSE PEREZ DO NASCIMENTO NASCIF MENDES PROMOTOR 1A ENTRANCIA BARÃO DE COCAIS - COMARCA; BARAO DE COCAIS-PJ-UNPJ 1.100,00 0,00 3.040,44 0,00 10.134,80 0,00 0,00 0,00 464,51 31/12/2020
1144 641800 CLARISSE TAVARES GONCALVES OFICIAL DO MP BELO HORIZONTE - COMARCA; BH-07PJ 01 TRIBUNAL JURI-SECRETARIA 1.100,00 0,00 450,00 0,00 0,00 0,00 0,00 0,00 0,00 31/12/2020
1145 463700 CLAUDIA ADRIANA FERRAO DIAS ANALISTA DO MP SETE LAGOAS - COMARCA; SETE LAGOAS-PJ-06PJ 1.100,00 0,00 450,00 0,00 0,00 0,00 0,00 0,00 0,00 31/12/2020
1146 415400 CLAUDIA ALMEIDA DE VASCONCELLOS BARROS ASSESSOR/OFICIAL BELO HORIZONTE - COMARCA; DIVISAO DE SERVICOS 1.100,00 0,00 450,00 0,00 0,00 0,00 0,00 0,00 -461,02 31/12/2020
1147 207000 CLAUDIA APARECIDA VILELA MACHADO ANALISTA DO MP BELO HORIZONTE - COMARCA; CENTRAL DE APOIO TECNICO-SETOR CONTABIL 1.100,00 0,00 450,00 0,00 0,00 0,00 0,00 0,00 0,00 31/12/2020
1148 314400 CLAUDIA AUGUSTA LOPES DE MENDONCA PROMOT.ENTRANC.ESPECIAL BELO HORIZONTE - COMARCA; BH-09PJ AUDITORIA MILITAR-GAB 074PJ 1.100,00 0,00 1.705,60 0,00 8.983,76 0,00 0,00 0,00 308,82 31/12/2020
1149 365700 CLAUDIA BREGUEZ CUNHA ANALISTA DO MP VARGINHA - COMARCA; VARGINHA-PJ-07PJ 1.100,00 0,00 450,00 0,00 0,00 0,00 0,00 0,00 0,00 31/12/2020
1150 430500 CLAUDIA CECILIA SANTANA VENCESLAU OFICIAL DO MP BELO HORIZONTE - COMARCA; DIR ANALISES TECNOLOGIA INTELIGENCIA 1.100,00 0,00 450,00 0,00 0,00 0,00 0,00 0,00 0,00 31/12/2020
1151 112400 CLAUDIA CRISTINA FIUZA DE AVELAR AGENTE DO MP BELO HORIZONTE - COMARCA; SERVICO MEDICO-DEPTO PERIC MEDICA SAUDE OCUP 1.100,00 0,00 450,00 0,00 0,00 0,00 0,00 0,00 0,00 31/12/2020
1152 98300 CLAUDIA DE OLIVEIRA IGNEZ PROMOTOR 2A ENTRANCIA NOVA LIMA - COMARCA; NOVA LIMA-PJ-01PJ 1.100,00 0,00 1.172,60 0,00 5.334,11 0,00 0,00 0,00 0,00 31/12/2020
1153 167300 CLAUDIA DO AMARAL XAVIER PROMOT.ENTRANC.ESPECIAL BELO HORIZONTE - COMARCA; BH-CENTRAL DE RECEPÇÃO DE FLAGRANTES 1.100,00 0,00 1.833,52 0,00 8.983,76 0,00 0,00 0,00 308,82 31/12/2020
1154 163100 CLAUDIA FERREIRA DE SOUZA PROMOT.ENTRANC.ESPECIAL BELO HORIZONTE - COMARCA; CORREGEDORIA-GERAL-ASSESSORIA 1.100,00 0,00 1.790,88 0,00 5.614,85 0,00 0,00 0,00 0,00 31/12/2020
1155 174500 CLAUDIA FERREIRA PACHECO DE FREITAS PROMOT.ENTRANC.ESPECIAL BELO HORIZONTE - COMARCA; BH-18PJ DIREITOS HUMANOS-GAB 125PJ 1.100,00 0,00 3.070,08 0,00 5.614,85 0,00 0,00 0,00 0,00 31/12/2020
1156 167200 CLAUDIA FREDDO MARQUES CARVALHO PROMOT.ENTRANC.ESPECIAL UBERABA - COMARCA; UBERABA-PJ-14PJ 1.100,00 0,00 2.851,84 0,00 0,00 0,00 0,00 0,00 0,00 31/12/2020
1157 480400 CLAUDIA GOULART DE SOUZA OFICIAL DO MP PASSOS - COMARCA; PASSOS-PJ-06PJ 1.100,00 0,00 450,00 0,00 0,00 0,00 0,00 0,00 0,00 31/12/2020
1158 519800 CLAUDIA HELENA CORREA DE ALMEIDA ANALISTA DO MP BELO HORIZONTE - COMARCA; BH-12PJ JUIZO CRIMINAL-GAB 096PJ 1.100,00 0,00 450,00 0,00 0,00 0,00 0,00 0,00 0,00 31/12/2020
1159 422100 CLAUDIA IACOMINI CABRAL ANALISTA DO MP BELO HORIZONTE - COMARCA; CENT DE APOIO TEC-SETOR DEF,IDOSO E INFANC 1.100,00 0,00 450,00 0,00 0,00 0,00 0,00 0,00 0,00 31/12/2020
1160 258200 CLAUDIA LAGE MICHALAROS ANALISTA DO MP BELO HORIZONTE - COMARCA; CENTRAL DE APOIO TECN-SETOR DE MEIO AMBIENTE 1.100,00 0,00 450,00 0,00 0,00 0,00 0,00 0,00 0,00 31/12/2020
1161 284600 CLAUDIA LENI DE FREITAS OFICIAL DO MP CONTAGEM - COMARCA; CONTAGEM-PJ-SECRETARIA 1.100,00 0,00 450,00 0,00 0,00 0,00 0,00 0,00 0,00 31/12/2020
1162 175200 CLAUDIA LOPES SILVA SCIOLI PROMOT.ENTRANC.ESPECIAL POUSO ALEGRE - COMARCA; POUSO ALEGRE-PJ-07PJ 1.100,00 0,00 3.038,96 0,00 5.614,85 0,00 0,00 0,00 0,00 31/12/2020
1163 433600 CLAUDIA LUIZA SANTIAGO FELICIO ANALISTA DO MP BELO HORIZONTE - COMARCA; CENT DE APOIO TEC-SETOR DEF,IDOSO E INFANC 1.100,00 0,00 450,00 0,00 0,00 0,00 0,00 0,00 0,00 31/12/2020
1164 317000 CLAUDIA MACHADO ALVES ASSESSOR/OFICIAL BELO HORIZONTE - COMARCA; DIR GOVERNANCA TECNOLOGIA INFORMACAO 1.100,00 0,00 450,00 0,00 0,00 0,00 0,00 0,00 685,78 31/12/2020
1165 155300 CLAUDIA MACIEL MIRANDA OFICIAL DO MP CONGONHAS - COMARCA; CONGONHAS-PJ-02PJ 1.100,00 0,00 450,00 0,00 0,00 0,00 0,00 0,00 0,00 31/12/2020
1166 242200 CLAUDIA MICHELLE DIAS MUNIZ BALEEIRO OFICIAL DO MP MONTE AZUL - COMARCA; MONTE AZUL-PJ-SECRETARIA 1.100,00 0,00 450,00 0,00 0,00 0,00 0,00 0,00 0,00 31/12/2020
1167 236500 CLAUDIA NETO COMELLI PROMOT.ENTRANC.ESPECIAL CONTAGEM - COMARCA; CONTAGEM-PJ-20PJ 1.100,00 0,00 2.149,84 0,00 5.614,85 0,00 0,00 0,00 0,00 31/12/2020
1168 623000 CLAUDIA PATRICIA SILVA RODRIGUES RAPOSEIRAS OFICIAL DO MP PARÁ DE MINAS - COMARCA; PARA DE MINAS-PJ-02PJ 1.100,00 769,39 450,00 0,00 0,00 0,00 0,00 0,00 0,00 31/12/2020
1169 418400 CLAUDIA REGINA MARTINS BONIFACIO OFICIAL DO MP ITUIUTABA - COMARCA; ITUIUTABA-PJ-06PJ 1.100,00 0,00 450,00 0,00 0,00 0,00 0,00 0,00 0,00 31/12/2020
1170 498300 CLAUDIA SOUTO FARIAS BRAUN OFICIAL DO MP TEÓFILO OTONI - COMARCA; TEOFILO OTONI-PJ-SECRETARIA 1.100,00 0,00 450,00 0,00 0,00 0,00 0,00 0,00 0,00 31/12/2020
1171 79600 CLAUDIA SPRANGER E SILVA LUIZ MOTTA PROCURADOR DE JUSTICA BELO HORIZONTE - COMARCA; CAO-DH CONT EXT ATIV POLIC E AP COMUNIT 1.100,00 0,00 1.769,56 0,00 5.910,37 0,00 0,00 0,00 0,00 31/12/2020
1172 206500 CLAUDIA VALERIA FONSECA ANDRADE ANALISTA DO MP BELO HORIZONTE - COMARCA; BH-23PJ INF-FISC MED SOC FEC 1.100,00 0,00 450,00 0,00 0,00 0,00 0,00 0,00 0,00 31/12/2020
1173 277500 CLAUDIO ANTONIO BORGES BRUNSWICK ALVARES OFICIAL DO MP BELO HORIZONTE - COMARCA; BH-15PJ M AMB 16PJ HAB URB-SECRETARIA 1.100,00 0,00 450,00 0,00 0,00 0,00 0,00 0,00 0,00 31/12/2020
1174 444800 CLAUDIO ARESIO DO CARMO ANALISTA DO MP SETE LAGOAS - COMARCA; SETE LAGOAS-PJ-01PJ 1.100,00 0,00 450,00 0,00 0,00 0,00 0,00 0,00 0,00 31/12/2020
1175 532100 CLAUDIO DANIEL FONSECA DE ALMEIDA PROMOTOR 2A ENTRANCIA MARIANA - COMARCA; MARIANA-PJ-02PJ 1.100,00 0,00 2.025,40 0,00 5.334,11 0,00 0,00 0,00 0,00 31/12/2020
1176 76700 CLAUDIO EMANUEL DA CUNHA PROCURADOR DE JUSTICA BELO HORIZONTE - COMARCA; GABINETE DE PROCURADOR DE JUSTIÇA - SALA 305 1.100,00 0,00 2.451,80 0,00 0,00 0,00 0,00 0,00 0,00 31/12/2020
1177 100500 CLAUDIO FERREIRA DE OLIVEIRA FILHO PROMOTOR 2A ENTRANCIA LAMBARI - COMARCA; LAMBARI-PJ-UNPJ 1.100,00 0,00 2.345,20 0,00 10.668,22 0,00 0,00 0,00 488,96 31/12/2020
1178 1098600 CLAUDIO HENRIQUE AMARAL DOS SANTOS ESTAGIARIO SANTA RITA DO SAPUCAI; SANTA RITA DO SAPUCAI-PJ-01PJ 0,00 0,00 0,00 45,00 0,00 0,00 0,00 0,00 0,00 31/12/2020
1179 545100 CLAUDIO HENRIQUE MACEDO DE SOUZA FRANSOZO ANALISTA DO MP OURO PRETO - COMARCA; OURO PRETO-PJ-03PJ 1.100,00 769,39 450,00 0,00 0,00 0,00 0,00 0,00 0,00 31/12/2020
1180 353500 CLAUDIO HENRIQUE PEDRO DA ROCHA OFICIAL DO MP BELO HORIZONTE - COMARCA; DIVISAO TRANSPORTES 1.100,00 0,00 450,00 0,00 0,00 0,00 0,00 0,00 0,00 31/12/2020
1181 265800 CLAUDIO KUPIDLOWSKY FERNANDES OFICIAL DO MP BELO HORIZONTE - COMARCA; SECRETARIA DO PROCON-MG 1.100,00 0,00 450,00 0,00 0,00 0,00 0,00 0,00 0,00 31/12/2020
1182 193600 CLAUDIO LEITE FONTES OFICIAL DO MP ITUIUTABA - COMARCA; ITUIUTABA-PJ-02PJ 1.100,00 0,00 450,00 0,00 0,00 0,00 0,00 0,00 0,00 31/12/2020
1183 102000 CLAUDIO LUIZ GONCALVES MARINS PROMOTOR 2A ENTRANCIA GUAXUPÉ - COMARCA; GUAXUPE-PJ-03PJ 1.100,00 0,00 2.345,20 0,00 10.668,22 0,00 0,00 0,00 488,96 31/12/2020
1184 163200 CLAUDIO MAIA DE BARROS PROMOT.ENTRANC.ESPECIAL BELO HORIZONTE - COMARCA; BH-07PJ 01 TRIBUNAL DO JURI-GAB 059PJ 1.100,00 0,00 2.579,72 0,00 0,00 0,00 0,00 0,00 0,00 31/12/2020
1185 329400 CLAUDIO MARCIO BERNARDES OFICIAL DO MP ITAÚNA - COMARCA; ITAUNA-PJ-03PJ 1.100,00 769,39 450,00 0,00 0,00 0,00 0,00 0,00 0,00 31/12/2020
1186 270200 CLAUDIO RABELO ALVES OFICIAL DO MP FORMIGA - COMARCA; FORMIGA-PJ-03PJ 1.100,00 0,00 450,00 0,00 0,00 24,24 0,00 0,00 0,00 31/12/2020
1187 264700 CLAUDIO ROBERTO KFURI DE ARAUJO ANALISTA DO MP BELO HORIZONTE - COMARCA; CENTRAL DE APOIO TECNICO-SETOR DE INFORMATICA 1.100,00 0,00 450,00 0,00 0,00 0,00 0,00 0,00 0,00 31/12/2020
1188 188600 CLAUDIO SALES OFICIAL DO MP NEPOMUCENO - COMARCA; NEPOMUCENO-PJ-SECRETARIA 1.100,00 0,00 450,00 0,00 0,00 0,00 0,00 0,00 0,00 31/12/2020
1189 543300 CLAUDIO SILVA DE CARVALHO ANALISTA DO MP CAMPO BELO - COMARCA; CAMPO BELO-PJ-03PJ 1.100,00 0,00 450,00 0,00 0,00 0,00 0,00 0,00 0,00 31/12/2020
1190 144300 CLAUDIO VARELLA DE SOUZA PROCURADOR DE JUSTICA BELO HORIZONTE - COMARCA; GABINETE DE PROCURADOR DE JUSTIÇA - SALA 712 1.100,00 0,00 1.172,60 0,00 11.820,74 0,00 0,00 0,00 541,78 31/12/2020
1191 160700 CLAUDIO VICENTE HESS ASSESSOR BELO HORIZONTE - COMARCA; CENTRAL DE APOIO TECNICO-SETOR DE INFORMATICA 1.100,00 0,00 450,00 0,00 0,00 0,00 0,00 0,00 0,00 31/12/2020
1192 312900 CLAUDIO VIEIRA FIRPE OFICIAL DO MP BELO HORIZONTE - COMARCA; DIR RELACOES INSTITUCIONAIS 1.100,00 0,00 450,00 0,00 0,00 0,00 0,00 0,00 0,00 31/12/2020
1193 634100 CLEA CRISTINA GUERRA DE FREITAS COSTA OFICIAL DO MP BELO HORIZONTE - COMARCA; BH-18PJ VIOLENCIA DOMESTICA-SECRETARIA 1.100,00 769,39 450,00 0,00 0,00 0,00 0,00 0,00 0,00 31/12/2020
1194 244800 CLEBER AUGUSTO DO NASCIMENTO PROMOTOR 2A ENTRANCIA CAMPO BELO - COMARCA; CAMPO BELO-PJ-04PJ 1.100,00 0,00 2.912,80 0,00 5.334,11 0,00 0,00 0,00 0,00 31/12/2020
1195 439000 CLEBER COUTO PROMOT.ENTRANC.ESPECIAL PATOS DE MINAS - COMARCA; COORD REG PJ DEF EDU DIR CRI ADO AL PAR NOROE 1.100,00 0,00 3.230,56 0,00 5.614,85 0,00 0,00 0,00 0,00 31/12/2020
1196 653100 CLEBER SOUZA SCALIONI ASSESSOR BELO HORIZONTE - COMARCA; CENTRAL DE APOIO TECNICO-SETOR CONTABIL 1.100,00 0,00 450,00 0,00 0,00 0,00 0,00 0,00 0,00 31/12/2020
1197 1167700 CLEBERSON AUGUSTO ALVES ESTAGIARIO 0,00 0,00 0,00 153,00 0,00 0,00 0,00 0,00 0,00 31/12/2020
1198 459200 CLEIA ZILLE PEREIRA ANALISTA DO MP BELO HORIZONTE - COMARCA; BH-07PJ 01 TRIBUNAL JURI-SECRETARIA 1.100,00 0,00 450,00 0,00 0,00 0,00 0,00 0,00 0,00 31/12/2020
1199 481800 CLEIDE CARDOSO DA SILVA ANALISTA DO MP MANHUAÇU - COMARCA; MANHUACU-PJ-04PJ 1.100,00 0,00 450,00 0,00 0,00 0,00 0,00 0,00 0,00 31/12/2020
1200 225000 CLEIDE PEREIRA DA SILVA PROMOT.ENTRANC.ESPECIAL BELO HORIZONTE - COMARCA; BH-09PJ AUDITORIA MILITAR-GAB 161PJ 1.100,00 0,00 980,72 0,00 0,00 0,00 0,00 0,00 0,00 31/12/2020
1201 347600 CLEIDIMAR DE OLIVEIRA SILVA OFICIAL DO MP PATOS DE MINAS - COMARCA; PATOS DE MINAS-PJ-03PJ 1.100,00 0,00 450,00 0,00 0,00 0,00 0,00 0,00 0,00 31/12/2020
1202 396500 CLEIDISON BATISTA DE ANDRADE OFICIAL DO MP RESPLENDOR - COMARCA; RESPLENDOR-PJ-UNPJ 1.100,00 769,39 450,00 0,00 0,00 0,00 0,00 0,00 0,00 31/12/2020
1203 535100 CLEISON ALVES DA SILVA ANALISTA DO MP BOA ESPERANÇA - COMARCA; BOA ESPERANCA-PJ-01PJ 1.100,00 0,00 450,00 0,00 0,00 0,00 0,00 0,00 0,00 31/12/2020
1204 298100 CLEONICE AUGUSTA BARROS DE OLIVEIRA ANALISTA DO MP JUIZ DE FORA - COMARCA; JUIZ DE FORA-PJ-08PJ 1.100,00 0,00 450,00 0,00 0,00 0,00 0,00 0,00 0,00 31/12/2020
1205 114300 CLERES PEREIRA DA SILVA JUNIOR ASSESSOR BELO HORIZONTE - COMARCA; BH-22PJ PES COM DEF E IDOSOS-SECRETARIA 1.100,00 0,00 450,00 0,00 0,00 0,00 0,00 0,00 0,00 31/12/2020
1206 264100 CLETO HENRIQUE ANDRADE SILVA ANALISTA DO MP BELO HORIZONTE - COMARCA; DIRETORIA DE SISTEMAS DE INFORMACAO 1.100,00 0,00 450,00 0,00 0,00 0,00 0,00 0,00 0,00 31/12/2020
1207 334400 CLEUBA DE OLIVEIRA BARCELOS GONCALVES OFICIAL DO MP DIVINÓPOLIS - COMARCA; COORD REG SAUDE MACRORREGIAO SANITARIA OESTE 1.100,00 0,00 450,00 0,00 0,00 0,00 0,00 0,00 0,00 31/12/2020
1208 347500 CLEUSA CORDEIRO DA MATA PIMENTA OFICIAL DO MP CAMPO BELO - COMARCA; CAMPO BELO-PJ-02PJ 1.100,00 0,00 450,00 0,00 0,00 0,00 0,00 0,00 0,00 31/12/2020
1209 92400 CLEVERSON RAYMUNDO SBARZI GUEDES PROMOT.ENTRANC.ESPECIAL JUIZ DE FORA - COMARCA; JUIZ DE FORA-PJ-14PJ 1.100,00 0,00 3.368,91 0,00 11.229,70 0,00 0,00 0,00 514,69 31/12/2020
1210 675000 CLEVERTON FRANCISCO GONCALVES DA SILVA 1O.TENENTE 1.100,00 0,00 0,00 0,00 0,00 0,00 0,00 0,00 0,00 31/12/2020
1211 510200 CLEZIO SALES SILVA OFICIAL DO MP BRASÓPOLIS - COMARCA; BRASOPOLIS-PJ-UNPJ 1.100,00 1.538,78 450,00 0,00 0,00 0,00 0,00 0,00 0,00 31/12/2020
1212 323000 CLOTILDE DE PADUA VIEIRA OFICIAL DO MP BELO HORIZONTE - COMARCA; BH-19PJ SAUDE-SECRETARIA 129PJ 1.100,00 0,00 450,00 0,00 0,00 0,00 0,00 0,00 0,00 31/12/2020
1213 285200 CLOVIS ANDRE LUDTKE OFICIAL DO MP BELO HORIZONTE - COMARCA; DIVISAO DE MANUTENCAO PREDIAL 1.100,00 0,00 450,00 0,00 0,00 0,00 0,00 0,00 0,00 31/12/2020
1214 381100 CONCEICAO APARECIDA TEIXEIRA ARANTES ANALISTA DO MP BELO HORIZONTE - COMARCA; BH-23PJ INFRACIONAL-ASS JURIDICA 1.100,00 769,39 450,00 0,00 0,00 0,00 0,00 0,00 1.712,40 31/12/2020
1215 1031700 CONRADO FIGUEIREDO ALMEIDA ESTAGIARIO SAO FRANCISCO; SAO FRANCISCO-PJ-01PJ 0,00 0,00 0,00 117,00 0,00 0,00 0,00 0,00 0,00 31/12/2020
1216 249900 CONSTANTINO CEZAR GOMES MOTA OFICIAL DO MP MONTES CLAROS - COMARCA; COORD REG BACIA RIOS VERDE GRANDE E PARDO 1.100,00 769,39 450,00 0,00 0,00 0,00 0,00 0,00 0,00 31/12/2020
1217 594800 COSME COELHO TEIXEIRA 3O.SARGENTO BELO HORIZONTE - COMARCA; NUCLEO DE CONTRAINTELIGENCIA 1.100,00 0,00 0,00 0,00 0,00 0,00 0,00 0,00 1.612,50 31/12/2020
1218 481000 CRISHMA ANALIA LOMBELLO ANALISTA DO MP JUIZ DE FORA - COMARCA; JUIZ DE FORA-PJ-13PJ 1.100,00 0,00 450,00 0,00 0,00 0,00 0,00 0,00 0,00 31/12/2020
1219 977400 CRISLAINE MAGALHAES SOBRINHO ESTAGIARIO NOVA LIMA; NOVA LIMA-PJ-04PJ 0,00 0,00 0,00 54,00 0,00 0,00 0,00 0,00 0,00 31/12/2020
1220 523900 CRISTHYANE BAZOLI COSTA GUEDES COUTO OFICIAL DO MP BELO HORIZONTE - COMARCA; BH-04PJ JUIZO REG PÚBLICOS-SECRETARIA 1.100,00 0,00 450,00 0,00 0,00 0,00 0,00 0,00 0,00 31/12/2020
1221 187000 CRISTIAN DAYVSON EVANGELISTA OFICIAL DO MP JUIZ DE FORA - COMARCA; JUIZ DE FORA-PJ-13PJ 1.100,00 0,00 450,00 0,00 0,00 0,00 0,00 0,00 0,00 31/12/2020
1222 245000 CRISTIAN LUCIO DA SILVA PROMOT.ENTRANC.ESPECIAL BELO HORIZONTE - COMARCA; BH-07PJ 03 TRIBUNAL DO JURI-GAB 064PJ 1.100,00 0,00 2.791,68 0,00 5.614,85 0,00 0,00 0,00 0,00 31/12/2020
1223 682100 CRISTIAN TRISTAO DE ANDRADE ASSESSOR PROMOTOR JUSTICA TRÊS CORACOES - COMARCA; TRES CORACOES-PJ-04PJ 1.100,00 0,00 450,00 0,00 0,00 0,00 0,00 0,00 0,00 31/12/2020
1224 319800 CRISTIANA GONCALVES DOS SANTOS GUSMAO OFICIAL DO MP PARAOPEBA - COMARCA; PARAOPEBA-PJ-UNPJ 1.100,00 0,00 450,00 0,00 0,00 0,00 0,00 0,00 0,00 31/12/2020
1225 520600 CRISTIANA JANAINA BARBOZA JUVENCIO DOS SANTOS ANALISTA DO MP BELO HORIZONTE - COMARCA; BH-02PJ FAMILIA-SECRETARIA 1.100,00 0,00 450,00 0,00 0,00 0,00 0,00 0,00 0,00 31/12/2020
1226 195600 CRISTIANA SOARES HALABI OFICIAL DO MP UBERABA - COMARCA; UBERABA-PJ-01PJ 1.100,00 0,00 450,00 0,00 0,00 0,00 0,00 0,00 0,00 31/12/2020
1227 218900 CRISTIANE ALVES BELLES OFICIAL DO MP JUIZ DE FORA - COMARCA; JUIZ DE FORA-PJ-10PJ 1.100,00 1.153,54 450,00 0,00 0,00 0,00 0,00 0,00 0,00 31/12/2020
1228 291600 CRISTIANE CAMPOS AMORIM BARONY PROMOTOR 2A ENTRANCIA CARANGOLA - COMARCA; CARANGOLA-PJ-03PJ 1.100,00 0,00 2.638,40 0,00 5.334,11 0,00 0,00 0,00 0,00 31/12/2020
1229 263600 CRISTIANE CARVALHO COUTINHO OFICIAL DO MP BELO HORIZONTE - COMARCA; BH-23PJ INFRACIONAL-SEC EXP 1.100,00 0,00 450,00 0,00 0,00 0,00 0,00 0,00 0,00 31/12/2020
1230 541000 CRISTIANE COELHO ALVES OFICIAL DO MP ITABIRA - COMARCA; ITABIRA-PJ-03PJ 1.100,00 0,00 450,00 0,00 0,00 0,00 0,00 0,00 0,00 31/12/2020
1231 441700 CRISTIANE CORRADO DE ANDRADE ANALISTA DO MP BELO HORIZONTE - COMARCA; DIRETORIA DE SISTEMAS DE INFORMACAO 1.100,00 0,00 450,00 0,00 0,00 0,00 0,00 0,00 0,00 31/12/2020
1232 375100 CRISTIANE DAS DORES ERCIO DE LIMA OFICIAL DO MP GOVERNADOR VALADARES - COMARCA; COOR REG APOIO COM INC MOB VALE DO RIO DOCE 1.100,00 0,00 450,00 0,00 0,00 0,00 0,00 0,00 0,00 31/12/2020
1233 1163300 CRISTIANE DE FREITAS SOARES ESTAGIARIO MANHUACU; MANHUACU-PJ-02PJ 0,00 0,00 0,00 153,00 0,00 0,00 0,00 0,00 0,00 31/12/2020
1234 178800 CRISTIANE DE LIMA HOSKEN OFICIAL DO MP BELO HORIZONTE - COMARCA; BH-14PJ DEFESA CONSUMIDOR-GAB 110PJ 1.100,00 0,00 450,00 0,00 0,00 0,00 0,00 0,00 0,00 31/12/2020
1235 494000 CRISTIANE DE MELO MARQUEZ OLIVEIRA ANALISTA DO MP UBERLÂNDIA - COMARCA; UBERLANDIA-PJ-06PJ 1.100,00 1.538,78 450,00 0,00 0,00 0,00 0,00 0,00 0,00 31/12/2020
1236 266100 CRISTIANE DE OLIVEIRA CASTRO OFICIAL DO MP BELO HORIZONTE - COMARCA; BH-14PJ DEFESA CONSUMIDOR-SECRETARIA 1.100,00 0,00 450,00 0,00 0,00 0,00 1.445,27 0,00 0,00 31/12/2020
1237 329500 CRISTIANE DOS REIS SILVA OFICIAL DO MP ARAXÁ - COMARCA; ARAXA-PJ-04PJ 1.100,00 0,00 450,00 0,00 0,00 0,00 0,00 0,00 0,00 31/12/2020
1238 301600 CRISTIANE GODINHO PIRES ANALISTA DO MP BETIM - COMARCA; BETIM-PJ-07PJ 1.100,00 0,00 450,00 0,00 0,00 0,00 0,00 0,00 0,00 31/12/2020
1239 1187300 CRISTIANE GOMES CAROBA ESTAGIARIO MONTES CLAROS; MONTES CLAROS-PJ-02PJ 0,00 0,00 0,00 90,00 0,00 0,00 0,00 0,00 0,00 31/12/2020
1240 406100 CRISTIANE GONCALVES CHAVES ANALISTA DO MP BELO HORIZONTE - COMARCA; BH-14PJ DEFESA CONSUMIDOR-GAB 112PJ 1.100,00 0,00 450,00 0,00 0,00 0,00 0,00 0,00 0,00 31/12/2020
1241 487600 CRISTIANE LOPES DE OLIVEIRA OFICIAL DO MP DIVINÓPOLIS - COMARCA; DIVINOPOLIS-PJ-03PJ 1.100,00 0,00 450,00 0,00 0,00 0,00 0,00 0,00 0,00 31/12/2020
1242 502500 CRISTIANE MACIEL DE OLIVEIRA GOMES ANALISTA DO MP JUIZ DE FORA - COMARCA; JUIZ DE FORA-PJ-05PJ 1.100,00 769,39 450,00 0,00 0,00 0,00 0,00 0,00 0,00 31/12/2020
1243 285500 CRISTIANE MAGALHAES LOURENCO ANALISTA DO MP BELO HORIZONTE - COMARCA; CENTRAL DE APOIO TECNICO-SETOR CONTABIL 1.100,00 0,00 450,00 0,00 0,00 0,00 0,00 0,00 0,00 31/12/2020
1244 536500 CRISTIANE MICHELE DE SOUZA ANALISTA DO MP BARÃO DE COCAIS - COMARCA; BARAO DE COCAIS-PJ-UNPJ 1.100,00 769,39 450,00 0,00 0,00 0,00 0,00 0,00 0,00 31/12/2020
1245 346600 CRISTIANE NOGUEIRA ANDRADE ANALISTA DO MP BELO HORIZONTE - COMARCA; CENTRAL DE APOIO TECNICO-SETOR CONTABIL 1.100,00 0,00 450,00 0,00 0,00 0,00 0,00 0,00 0,00 31/12/2020
1246 234000 CRISTIANE OLIVEIRA TOSTES OFICIAL DO MP JUIZ DE FORA - COMARCA; JUIZ DE FORA-PJ-08PJ 1.100,00 769,39 450,00 0,00 5.958,88 0,00 0,00 0,00 546,23 31/12/2020
1247 445800 CRISTIANE ORZIL COSTA OFICIAL DO MP SANTA LUZIA - COMARCA; SANTA LUZIA-PJ-05PJ 1.100,00 769,39 450,00 0,00 0,00 0,00 0,00 0,00 0,00 31/12/2020
1248 616100 CRISTIANE PAES RODRIGUES MARCICANO ANALISTA DO MP CATAGUASES - COMARCA; CATAGUASES-PJ-05PJ 1.100,00 1.538,78 450,00 0,00 0,00 0,00 0,00 0,00 0,00 31/12/2020
1249 1110700 CRISTIANE PIRES DAMASCENO ESTAGIARIO ITURAMA; ITURAMA-PJ-02PJ 0,00 0,00 0,00 117,00 0,00 0,00 0,00 0,00 0,00 31/12/2020
1250 612300 CRISTIANE RIBEIRO DOS REIS ARCANJO OFICIAL DO MP BELO HORIZONTE - COMARCA; DIRETORIA DE PAGAMENTO DE PESSOAL-DPAG 0,00 0,00 0,00 0,00 0,00 0,00 0,00 0,00 -97,96 31/12/2020
1251 257700 CRISTIANE RODRIGUES PAES NUNES ANALISTA DO MP BELO HORIZONTE - COMARCA; BH-22PJ PES COM DEF E IDOSOS-ORIENTACAO PSIC 1.100,00 769,39 450,00 0,00 0,00 0,00 0,00 0,00 0,00 31/12/2020
1252 510800 CRISTIANE SANTOS FERNANDES ORNELES ANALISTA DO MP BELO HORIZONTE - COMARCA; COORD ESTADUAL DAS PJS DE HAB. E URBANISMO 1.100,00 0,00 450,00 0,00 0,00 0,00 0,00 0,00 0,00 31/12/2020
1253 535701 CRISTIANE SANTOS MIRANDA ANALISTA DO MP BETIM - COMARCA; BETIM-PJ-12PJ 1.100,00 0,00 450,00 0,00 0,00 0,00 0,00 0,00 0,00 31/12/2020
1254 163400 CRISTIANO CASSIOLATO PROMOTOR 1A ENTRANCIA CARMO DO RIO CLARO - COMARCA; CARMO DO RIO CLARO-PJ-UNPJ 1.100,00 0,00 3.040,44 0,00 5.067,40 0,00 0,00 0,00 0,00 31/12/2020
1255 484000 CRISTIANO CESAR PIMENTA DAYRELL DA CUNHA PROMOT.ENTRANC.ESPECIAL SETE LAGOAS - COMARCA; SETE LAGOAS-PJ-01PJ 1.100,00 0,00 2.558,40 0,00 5.614,85 0,00 0,00 0,00 0,00 31/12/2020
1256 299901 CRISTIANO DA COSTA MATA PROMOT.ENTRANC.ESPECIAL IPATINGA - COMARCA; IPATINGA-PJ-11PJ 1.100,00 0,00 2.868,40 0,00 5.614,85 0,00 0,00 0,00 0,00 31/12/2020
1257 536200 CRISTIANO DE OLIVEIRA ANALISTA DO MP CONCEIÇÃO DO MATO DENTRO - COMARCA; CONCEICAO DO MATO DENTRO-PJ-UNPJ 1.100,00 769,39 450,00 0,00 0,00 0,00 0,00 0,00 0,00 31/12/2020
1258 675100 CRISTIANO GERALDO CUNHA CABO BELO HORIZONTE - COMARCA; GAECO - SECRETARIA 1.100,00 0,00 0,00 0,00 0,00 0,00 0,00 0,00 0,00 31/12/2020
1259 440000 CRISTIANO MOREIRA SILVA PROMOTOR 2A ENTRANCIA CAPELINHA - COMARCA; CAPELINHA-PJ-02PJ 1.100,00 0,00 2.624,51 0,00 5.334,11 0,00 0,00 0,00 0,00 31/12/2020
1260 167400 CRISTIANO ROCHA GAZAL PROMOTOR 1A ENTRANCIA CAMBUQUIRA - COMARCA; CAMBUQUIRA-PJ-UNPJ 1.100,00 0,00 1.492,40 0,00 8.107,84 0,00 0,00 0,00 278,71 31/12/2020
1261 477400 CRISTIANO SOARES ELEUTERIO ANALISTA DO MP BELO HORIZONTE - COMARCA; BH-17PJ PATRIMONIO PUBLICO-SECRETARIA 1.100,00 0,00 450,00 0,00 0,00 0,00 0,00 0,00 0,00 31/12/2020
1262 449400 CRISTIANO TEIXEIRA RODRIGUES LANA ANALISTA DO MP BELO HORIZONTE - COMARCA; EXTINTA-COORD EST DEF DIR FAM PES DEFIC IDOSO 1.100,00 0,00 450,00 0,00 0,00 0,00 0,00 0,00 0,00 31/12/2020
1263 106600 CRISTINA BECHARA KALLAS PROMOTOR 2A ENTRANCIA PASSOS - COMARCA; PASSOS-PJ-03PJ 1.100,00 0,00 2.153,32 0,00 5.334,11 0,00 0,00 0,00 0,00 31/12/2020
1264 239400 CRISTINA DE FATIMA CRUZ E SILVA OFICIAL DO MP MONTE SANTO DE MINAS - COMARCA; MONTE SANTO DE MINAS-PJ-SECRETARIA 1.100,00 0,00 450,00 0,00 0,00 0,00 0,00 0,00 0,00 31/12/2020
1265 544000 CRISTINA DE OLIVEIRA TERRA ANALISTA DO MP RIBEIRÃO DAS NEVES - COMARCA; RIBEIRAO DAS NEVES-PJ-09PJ 1.100,00 0,00 450,00 0,00 0,00 0,00 0,00 0,00 0,00 31/12/2020
1266 356800 CRISTINA DE PINHO BARROSO OFICIAL DO MP SABINÓPOLIS - COMARCA; SABINOPOLIS-PJ-UNPJ 1.100,00 769,39 450,00 0,00 0,00 753,64 0,00 0,00 0,00 31/12/2020
1267 649500 CRISTINA DO DIVINO ESPIRITO SANTOS OFICIAL DO MP DIVINÓPOLIS - COMARCA; DIVINOPOLIS-PJ-12PJ 1.100,00 0,00 450,00 0,00 0,00 0,00 0,00 0,00 0,00 31/12/2020
1268 218500 CRISTINA FAGUNDES SIQUEIRA PROMOTOR 2A ENTRANCIA ARAGUARI - COMARCA; ARAGUARI-PJ-04PJ 1.100,00 0,00 2.643,68 0,00 5.334,11 0,00 0,00 0,00 0,00 31/12/2020
1269 484500 CRISTINA FERREIRA LABARRERE NASCIMENTO PROMOTOR SUBSTITUTO CONTAGEM - COMARCA; CONTAGEM-PJ-10PJ 1.100,00 0,00 1.748,24 0,00 5.067,40 0,00 0,00 0,00 0,00 31/12/2020
1270 348201 CRISTINA MARIA DA SILVA ANALISTA DO MP ARAXÁ - COMARCA; ARAXA-PJ-06PJ 1.100,00 769,39 450,00 0,00 0,00 0,00 1.006,96 0,00 -110,77 31/12/2020
1271 434900 CRISTINA MELO DE MADUREIRA ANALISTA DO MP BELO HORIZONTE - COMARCA; BH-07PJ 01 TRIBUNAL JURI-SECRETARIA 1.100,00 0,00 450,00 0,00 0,00 0,00 0,00 0,00 0,00 31/12/2020
1272 307700 CRISTINA TEIXEIRA MARQUES OFICIAL DO MP BELO HORIZONTE - COMARCA; CENTRAL DE APOIO TECNICO-SETOR CONTABIL 1.100,00 0,00 450,00 0,00 0,00 0,00 0,00 0,00 0,00 31/12/2020
1273 58700 CRISTOVAM JOAQUIM FERNANDES RAMOS FILHO PROCURADOR DE JUSTICA BELO HORIZONTE - COMARCA; PROC JUST ESP ACOES COMP ORIG CRIMINAL 0,00 0,00 1.279,20 0,00 0,00 0,00 0,00 0,00 0,00 31/12/2020
1274 265300 CRISTOVAO SANCHES DE MEDEIROS ANALISTA DO MP BELO HORIZONTE - COMARCA; DIRETORIA DE CONTABILIDADE 1.100,00 0,00 450,00 0,00 0,00 0,00 0,00 0,00 0,00 31/12/2020
1275 349800 CROZEIR LUIZ DA SILVA OFICIAL DO MP UNAÍ - COMARCA; UNAI-PJ-SECRETARIA 1.100,00 0,00 450,00 0,00 0,00 2.765,56 0,00 0,00 0,00 31/12/2020
1276 490500 CYNTHIA CRISTINA DE SOUZA OLIVEIRA VALENTE ANALISTA DO MP BELO HORIZONTE - COMARCA; BH-09PJ AUDITORIA MILITAR-SECRETARIA 1.100,00 0,00 450,00 0,00 0,00 0,00 0,00 0,00 0,00 31/12/2020
1277 344200 CYNTHIA DUARTE VILELA PROMOTOR 2A ENTRANCIA SABARÁ - COMARCA; SABARA-PJ-03PJ 1.100,00 0,00 2.630,24 0,00 11.735,04 0,00 0,00 0,00 0,00 31/12/2020
1278 389800 CYNTHIA GARIGLIO DOS SANTOS OFICIAL DO MP PERDIZES - COMARCA; PERDIZES-PJ-SECRETARIA 1.100,00 769,39 450,00 0,00 0,00 0,00 0,00 0,00 0,00 31/12/2020
1279 335101 CYNTHIA GONTIJO D ASSUNCAO ANALISTA DO MP BELO HORIZONTE - COMARCA; PROC. JUSTICA DIR. DIFUSOS E COLETIVOS-SEC 1.100,00 769,39 450,00 0,00 0,00 0,00 0,00 0,00 0,00 31/12/2020
1280 223600 CYNTHIA MARIA DOS SANTOS SILVA JORGE PROMOT.ENTRANC.ESPECIAL BELO HORIZONTE - COMARCA; BH-13PJ JUIZO DE TOXICOS-GAB 011PJ 1.100,00 0,00 2.494,44 0,00 11.229,70 0,00 0,00 0,00 514,69 31/12/2020
1281 531200 CYNTIA CAMPOS GIRO PROMOTOR 2A ENTRANCIA PONTE NOVA - COMARCA; PONTE NOVA-PJ-05PJ 1.100,00 0,00 1.599,00 0,00 0,00 0,00 0,00 0,00 0,00 31/12/2020
1282 269700 CYNTIA ROCHA CAVALCANTI OFICIAL DO MP UBERLÂNDIA - COMARCA; UBERLANDIA-PJ-06PJ 1.100,00 769,39 450,00 0,00 0,00 0,00 0,00 0,00 0,00 31/12/2020
1283 850000 DAIANA MACHADO DA SILVA ESTAGIARIO RIBEIRAO DAS NEVES; RIBEIRAO DAS NEVES-PJ-01PJ 0,00 0,00 0,00 18,00 803,33 0,00 0,00 0,00 0,00 31/12/2020
1284 1025100 DAIANE GONCALVES BORGES ESTAGIARIO ITUIUTABA; ITUIUTABA-PJ-05PJ 0,00 0,00 0,00 153,00 0,00 0,00 0,00 0,00 0,00 31/12/2020
1285 278000 DAIRTON LOPES MARTINS FILHO COORDENADOR/ANALISTA BELO HORIZONTE - COMARCA; DIRETORIA DE SISTEMAS DE INFORMACAO 1.100,00 0,00 450,00 0,00 0,00 0,00 0,00 0,00 0,00 31/12/2020
1286 392700 DALIANA CHAVES IBRAIM MARINHO OFICIAL DO MP ITAÚNA - COMARCA; ITAUNA-PJ-04PJ 1.100,00 0,00 450,00 0,00 0,00 0,00 0,00 0,00 0,00 31/12/2020
1287 1107100 DALILA MAGALHAES CABRAL ESTAGIARIO CONTAGEM; CONTAGEM-PJ-06PJ 0,00 0,00 0,00 162,00 0,00 0,00 0,00 0,00 0,00 31/12/2020
1288 558101 DALLEY TASSIA SILVA ANALISTA DO MP MORADA NOVA DE MINAS - COMARCA; MORADA NOVA DE MINAS-PJ-UNPJ 1.100,00 1.538,78 450,00 0,00 0,00 0,00 0,00 0,00 0,00 31/12/2020
1289 476700 DALTON DAUD ANALISTA DO MP ARAGUARI - COMARCA; ARAGUARI-PJ-05PJ 1.100,00 0,00 450,00 0,00 0,00 0,00 0,00 0,00 0,00 31/12/2020
1290 1013200 DAMARIS DE ARAUJO NASCIMENTO ESTAGIARIO TRES CORACOES; TRES CORACOES-PJ-02PJ 0,00 0,00 0,00 162,00 0,00 0,00 0,00 0,00 0,00 31/12/2020
1291 426900 DANIEL ALVES DA SILVA OFICIAL DO MP BELO HORIZONTE - COMARCA; DIVISAO TRANSPORTES 1.100,00 0,00 450,00 0,00 0,00 0,00 0,00 0,00 0,00 31/12/2020
1292 343900 DANIEL ANGELO DE OLIVEIRA RANGEL PROMOTOR 1A ENTRANCIA RIO PRETO - COMARCA; RIO PRETO-PJ-UNPJ 1.100,00 0,00 2.234,64 0,00 5.067,40 0,00 0,00 0,00 0,00 31/12/2020
1293 122000 DANIEL ANTONIO VIEIRA OFICIAL DO MP ENTRE-RIOS DE MINAS - COMARCA; ENTRE RIOS DE MINAS-PJ-SECRETARIA 1.100,00 0,00 450,00 0,00 0,00 0,00 0,00 0,00 0,00 31/12/2020
1294 685900 DANIEL AUGUSTO DE CAMARGO LIMA CAMPOS PROMOTOR SUBSTITUTO ÁGUAS FORMOSAS - COMARCA; AGUAS FORMOSAS-PJ-UNPJ 1.100,00 0,00 703,56 0,00 0,00 0,00 0,00 0,00 0,00 31/12/2020
1295 311501 DANIEL BATISTA MENDES PROMOT.ENTRANC.ESPECIAL BELO HORIZONTE - COMARCA; BH-07PJ 01 TRIBUNAL DO JURI 1.100,00 0,00 2.451,80 0,00 5.614,85 0,00 0,00 0,00 0,00 31/12/2020
1296 437801 DANIEL CASTRO E MELO PROMOTOR 2A ENTRANCIA JANAÚBA - COMARCA; JANAUBA-PJ-03PJ 1.100,00 0,00 0,00 0,00 5.334,11 0,00 0,00 0,00 0,00 31/12/2020
1297 313800 DANIEL DE OLIVEIRA MALARD PROMOT.ENTRANC.ESPECIAL BELO HORIZONTE - COMARCA; CAO-CRIMINAL 1.100,00 0,00 3.151,78 0,00 5.614,85 0,00 0,00 0,00 0,00 31/12/2020
1298 170200 DANIEL DE SA RODRIGUES PROMOT.ENTRANC.ESPECIAL BELO HORIZONTE - COMARCA; BH-11PJ COMB CRIME ORGANIZ-GAB 082PJ 1.100,00 0,00 3.368,91 0,00 5.614,85 0,00 0,00 0,00 0,00 31/12/2020
1299 456600 DANIEL DOS SANTOS RODRIGUES PROMOTOR 2A ENTRANCIA OURO PRETO - COMARCA; OURO PRETO-PJ-01PJ 1.100,00 0,00 2.451,80 0,00 0,00 0,00 0,00 0,00 0,00 31/12/2020
1300 996600 DANIEL FERREIRA CAMARA ESTAGIARIO BELO HORIZONTE; CAO-CRIMINAL-GABINETES 0,00 0,00 0,00 54,00 0,00 0,00 0,00 0,00 0,00 31/12/2020
1301 411000 DANIEL FERREIRA DA SILVA ANALISTA DO MP GOVERNADOR VALADARES - COMARCA; GOVERNADOR VALADARES-PJ-15PJ 1.100,00 1.538,78 450,00 0,00 0,00 0,00 0,00 0,00 0,00 31/12/2020
1302 309000 DANIEL GOMES DOS SANTOS ANALISTA DO MP POÇOS DE CALDAS - COMARCA; POCOS DE CALDAS-PJ-03PJ 1.100,00 0,00 450,00 0,00 0,00 0,00 0,00 0,00 0,00 31/12/2020
1303 554500 DANIEL GOMES PEREIRA OFICIAL DO MP NANUQUE - COMARCA; NANUQUE-PJ-02PJ 1.100,00 0,00 450,00 0,00 0,00 0,00 0,00 0,00 0,00 31/12/2020
1304 453000 DANIEL GONCALVES PEREIRA ANALISTA DO MP UNAÍ - COMARCA; UNAI-PJ-02PJ 1.100,00 1.922,93 450,00 0,00 0,00 0,00 0,00 0,00 0,00 31/12/2020
1305 495500 DANIEL GUIMARAES CABRAL OFICIAL DO MP BELO HORIZONTE - COMARCA; BH-17PJ PATRIMONIO PUBLICO-SECRETARIA 1.100,00 0,00 450,00 0,00 0,00 0,00 0,00 0,00 0,00 31/12/2020
1306 442900 DANIEL GUIMARAES GONCALVES ANALISTA DO MP UBERLÂNDIA - COMARCA; UBERLANDIA-PJ-03PJ 1.100,00 0,00 450,00 0,00 0,00 0,00 0,00 0,00 0,00 31/12/2020
1307 634800 DANIEL LESSA COSTA PROMOT.ENTRANC.ESPECIAL CARATINGA - COMARCA; CARATINGA-PJ-06PJ 1.100,00 0,00 1.918,80 0,00 5.614,85 0,00 0,00 0,00 0,00 31/12/2020
1308 655900 DANIEL LUIZ DA SILVA ASSESSOR BELO HORIZONTE - COMARCA; DIV FISCAL ADM CONT TERCEIRIZACAO 1.100,00 0,00 450,00 0,00 0,00 0,00 0,00 0,00 0,00 31/12/2020
1309 209600 DANIEL MAROTTA MARTINEZ PROMOT.ENTRANC.ESPECIAL UBERLÂNDIA - COMARCA; UBERLANDIA-PJ-17PJ 1.100,00 0,00 2.377,84 0,00 5.614,85 0,00 0,00 0,00 0,00 31/12/2020
1310 440300 DANIEL OLIVEIRA DE ORNELAS PROMOT.ENTRANC.ESPECIAL MONTES CLAROS - COMARCA; MONTES CLAROS-PJ-12PJ 1.100,00 0,00 2.798,40 0,00 5.614,85 0,00 0,00 0,00 0,00 31/12/2020
1311 464600 DANIEL PIACENTINI STIVANIN ANALISTA DO MP ANDRADAS - COMARCA; ANDRADAS-PJ-02PJ 1.100,00 0,00 450,00 0,00 0,00 0,00 0,00 0,00 0,00 31/12/2020
1312 533600 DANIEL PIOVANELLI ARDISSON PROMOTOR 2A ENTRANCIA MONTES CLAROS - COMARCA; COORD REG BACIA RIOS VERDE GRANDE E PARDO 1.100,00 0,00 1.492,40 0,00 5.334,11 0,00 0,00 0,00 0,00 31/12/2020
1313 417000 DANIEL QUEIROZ FERREIRA ANALISTA DO MP SÃO SEBASTIÃO DO PARAÍSO - COMARCA; SAO SEBASTIAO DO PARAISO-PJ-05PJ 1.100,00 0,00 450,00 0,00 0,00 0,00 0,00 0,00 0,00 31/12/2020
1314 483400 DANIEL RIBEIRO COSTA PROMOTOR 1A ENTRANCIA ELOI MENDES - COMARCA; ELOI MENDES-PJ-UNPJ 1.100,00 0,00 1.918,80 0,00 5.067,40 0,00 0,00 0,00 0,00 31/12/2020
1315 457600 DANIEL SALIBA DE FREITAS PROMOTOR 2A ENTRANCIA NOVA SERRANA - COMARCA; NOVA SERRANA-PJ-02PJ 1.100,00 0,00 2.558,40 0,00 0,00 0,00 0,00 0,00 0,00 31/12/2020
1316 396700 DANIEL SILVA CARNEVALLI DIRETOR/ANALISTA BELO HORIZONTE - COMARCA; SUPERINTENDENCIA DE TECNOLOGIA DA INFORMACAO 1.100,00 769,39 450,00 0,00 0,00 0,00 0,00 0,00 -1.386,24 31/12/2020
1317 489300 DANIEL TABOZA ROCHA ANALISTA DO MP IPATINGA - COMARCA; IPATINGA-PJ-08PJ 1.100,00 769,39 450,00 0,00 0,00 0,00 0,00 0,00 0,00 31/12/2020
1318 414100 DANIEL TARDELI VALADAO ANALISTA DO MP TRÊS CORACOES - COMARCA; TRES CORACOES-PJ-02PJ 1.100,00 1.538,78 450,00 0,00 0,00 0,00 0,00 0,00 0,00 31/12/2020
1319 446601 DANIEL VIEIRA BUENO ANALISTA DO MP SÃO DOMINGOS DO PRATA - COMARCA; SAO DOMINGOS DO PRATA-PJ-UNPJ 1.100,00 769,39 450,00 0,00 0,00 0,00 0,00 0,00 0,00 31/12/2020